     2              OBSERVATION DATA    GPS                 RINEX VERSION / TYPE
teqc 1997Jul24 19970902 20:59:04UTC                         PGM / RUN BY / DATE
                                                            COMMENT
BIT 2 OF LLI FLAGS DATA COLLECTED UNDER A-S CONDITION       COMMENT
BIT 2 OF LLI FLAGS DATA COLLECTED UNDER A-S CONDITION       COMMENT
Original Marker Name: -----.5113                            COMMENT
Campaign Name: Salt. Tr. Crust. Monit. May-Jun 1986         COMMENT
4-Character Station Name: 5113                              COMMENT
6-Character Antenna Code: TI4100                            COMMENT
Vertical Measurement Point: PAE                             COMMENT
Vertical Offset to Rinex Ref. Point: 0.0000                 COMMENT
Radial Measurement Point: RRP                               COMMENT
Radial Offset to Rinex Ref. Point: 0.0000                   COMMENT
Antenna Height from Field Measurement: 1.4070 m             COMMENT
Original XYZ: -2458594.1346 -4763438.8713 3444652.2603      COMMENT
New XYZ position is based on association with SCEC monument COMMENT
E1C8P4W3+0011. Position of that monument is believed to be  COMMENT
valid to within 1 m horizontally; vertical accuracy         COMMENT
should be no worse than 3-times this value.                 COMMENT
                                                            COMMENT
Revised Rinex header created by UCSD GPS archive for        COMMENT
GSAC on 01-Jun-1999 (1999:152) 22:52:38 GMT                 COMMENT
For assistance contact dagnew@ucsd.edu or hjohnson@ucsd.edu COMMENT
                                                            COMMENT
51134 DOPPLER                                               MARKER NAME
5 NATIONAL GEODETIC SURVEY                                  OBSERVER / AGENCY
UT-16 TI 4100 1.0                                           REC # / TYPE / VERS
4011 TI 4100                                                ANT # / TYPE
 -2455455.0000 -4767433.0000  3441461.0000                  APPROX POSITION XYZ
        1.4070        0.0000        0.0000                  ANTENNA: DELTA H/E/N
     1     1     0                                          WAVELENGTH FACT L1/2
     4    P1    P2    L1    L2                              # / TYPES OF OBSERV
     6                                                      INTERVAL
  1986     6    19    22    48   49.000000                  TIME OF FIRST OBS
  1986     6    20     0    38   47.000000                  TIME OF LAST OBS
     0                                                      # OF SATELLITES
                                                            END OF HEADER
 86  6 19 22 48 49.0800000  0  1G11
  21265465.461    21265467.231      257929.422 9    -41323.404 8
 86  6 19 22 50 11.0800000  0  1G11
  21233080.318    21233083.490       87749.552 9   -173930.533 8
 86  6 19 22 50 17.0800000  0  1G11
  21230741.995    21230742.385       75449.627 9   -183514.884 8
 86  6 19 22 50 23.0800000  0  1G11
  21228404.424    21228406.121       63170.528 8   -193083.013 7
 86  6 19 22 50 29.0800000  0  1G11
  21226070.702    21226073.098       50912.292 9   -202634.882 8
 86  6 19 22 50 35.0800000  0  1G11
  21223742.533    21223743.472       38674.878 8   -212170.520 7
 86  6 19 22 50 41.0800000  0  1G11
  21221417.450    21221420.319       26458.380 9   -221689.865 8
 86  6 19 22 50 47.0800000  0  1G11
  21219096.566    21219099.112       14262.812 8   -231192.917 7
 86  6 19 22 50 53.0800000  0  1G11
  21216779.551    21216782.705        2088.168 9   -240679.634 8
 86  6 19 22 50 59.0800000  0  1G11
  21214466.659    21214468.133      -10065.515 9   -250150.041 9
 86  6 19 22 51  5.0800000  0  1G11
  21212158.294    21212159.436      -22198.259 9   -259604.125 8
 86  6 19 22 51 11.0800000  0  1G11
  21209852.688    21209855.817      -34310.057 9   -269041.880 8
 86  6 19 22 51 17.0800000  0  1G11
  21207550.734    21207554.330      -46400.860 9   -278463.309 7
 86  6 19 22 51 23.0800000  0  1G11
  21205254.119    21205257.961      -58470.712 9   -287868.371 8
 86  6 19 22 51 29.0800000  0  1G11
  21202962.133    21202965.684      -70519.517 9   -297257.055 7
 86  6 19 22 51 35.0800000  0  1G11
  21200672.316    21200677.911      -82547.286 9   -306629.346 8
 86  6 19 22 51 41.0800000  0  1G11
  21198387.254    21198391.811      -94554.031 9   -315985.243 7
 86  6 19 22 51 47.0800000  0  1G11
  21196107.672    21196111.150     -106539.690 8   -325324.711 8
 86  6 19 22 51 53.0800000  0  1G11
  21193830.651    21193833.817     -118504.289 8   -334647.773 8
 86  6 19 22 51 59.0800000  0  1G11
  21191558.377    21191562.088     -130447.847 9   -343954.443 8
 86  6 19 22 52 29.0800000  0  1G11
                  21180222.064    -1213454.091 8
 86  6 19 22 52 35.0800000  0  2G 9G11
                  23437678.132    -1252655.249 3
                  21177973.236    -1225270.615 6
 86  6 19 22 52 41.0800000  0  3G 8G 9G11
                  21012567.079    -1098881.706 5
                  23434453.631    -1269648.215 1
                  21175723.918    -1237065.950 9
 86  6 19 22 52 47.0800000  0  4G 6G 8G 9G11
                  21079569.497    -1223929.128 9
                  21014471.199    -1088846.294 9
                  23431237.654    -1286642.364 7
                  21173488.502    -1248840.060 9
 86  6 19 22 52 53.0800000  0  4G 6G 8G 9G11
                  21077969.497    -1232294.759 9
                  21016421.206    -1078787.093 9
  23428001.531    23428009.083    -1303637.150 7   1832542.327 9
                  21171253.066    -1260592.940 9
 86  6 19 22 52 59.0800000  0  4G 6G 8G 9G11
                  21076417.990    -1240652.675 9
  21018340.538    21018345.348    -1068702.725 9   1884661.413 7
  23424768.325    23424773.603    -1320632.888 7   1819298.903 8
                  21169023.435    -1272324.580 9
 86  6 19 22 53  5.0800000  0  4G 6G 8G 9G11
  21074828.031    21074828.190    -1249002.331 9   1924332.030 8
  21020264.344    21020265.823    -1058593.820 8   1892538.448 9
  23421535.169    23421538.433    -1337629.592 7   1806054.254 8
                  21166789.704    -1284034.953 9
 86  6 19 22 53 11.0800000  0  4G 6G 8G 9G11
  21073241.358    21073241.085    -1257343.942 9   1917832.065 8
  21022192.381    21022193.522    -1048460.494 9   1900434.549 7
  23418300.742    23418303.954    -1354627.153 8   1792809.391 7
                  21164569.190    -1295724.121 8
 86  6 19 22 53 17.0800000  0  4G 6G 8G 9G11
  21071654.841    21071656.142    -1265677.552 9   1911338.837 8
  21024125.309    21024127.095    -1038302.743 9   1908350.171 7
  23415065.837    23415068.646    -1371625.677 8   1779563.819 7
                  21162335.482    -1307392.006 9
 86  6 19 22 53 23.0800000  0  4G 6G 8G 9G11
  21070070.475    21070071.891    -1274003.110 8   1904851.393 9
  21026061.721    21026065.506    -1028120.538 9   1916284.358 9
  23411831.641    23411833.508    -1388625.047 8   1766317.560 9
                  21160139.325    -1319038.615 9
 86  6 19 22 53 29.0800000  0  4G 6G 8G 9G11
  21068487.432    21068489.018    -1282320.606 9   1898370.230 9
  21028005.485    21028008.459    -1017913.985 9   1924237.519 8
  23408596.899    23408598.176    -1405625.324 8   1753070.590 8
                  21157910.465    -1330663.903 9
 86  6 19 22 53 35.0800000  0  4G 6G 8G 9G11
  21066905.826    21066908.669    -1290629.973 9   1891895.393 8
  21029951.310    21029953.343    -1007683.081 9   1932209.654 8
  23405361.317    23405364.912    -1422626.479 9   1739822.960 8
                  21155742.193    -1342268.631 7
 86  6 19 22 53 41.0800000  0  4G 6G 8G 9G11
  21065325.312    21065329.298    -1298931.276 9   1885426.850 9
  21031904.355    21031906.427     -997427.794 9   1940200.785 8
  23402125.357    23402128.569    -1439628.417 8   1726574.713 8
  21153535.912    21153541.887    -1353851.282 8   2197044.154 9
 86  6 19 22 53 47.0800000  0  4G 6G 8G 9G11
  21063748.084    21063751.448    -1307224.465 9   1878964.628 9
  21033859.033    21033861.406     -987148.182 9   1948210.876 8
  23398890.220    23398893.195    -1456631.270 7   1713325.756 9
  21151338.862    21151341.126    -1365412.579 8   2188035.316 8
 86  6 19 22 53 53.0800000  0  4G 6G 8G 9G11
  21062171.794    21062174.595    -1315509.531 9   1872508.733 8
  21035820.193    21035821.476     -976844.260 9   1956239.900 8
  23395654.452    23395657.519    -1473634.936 7   1700076.162 9
  21149141.446    21149145.227    -1376952.528 9   2179043.149 8
 86  6 19 22 53 59.0800000  0  4G 6G 8G 9G11
  21060597.452    21060599.637    -1323786.460 9   1866059.181 8
  21037784.756    21037788.594     -966516.013 9   1964287.882 8
  23392418.619    23392421.417    -1490639.445 7   1686825.914 9
  21146949.516    21146953.446    -1388471.122 9   2170067.617 8
 86  6 19 22 54  5.0800000  0  4G 6G 8G 9G11
  21059023.899    21059025.983    -1332055.179 9   1859616.022 8
  21039756.749    21039757.759     -956163.478 9   1972354.800 8
  23389183.221    23389185.606    -1507644.730 8   1673575.073 8
  21144761.745    21144766.033    -1399968.334 9   2161108.755 8
 86  6 19 22 54 11.0800000  0  4G 6G 8G 9G11
  21057451.478    21057454.496    -1340315.722 9   1853179.236 8
  21041731.861    21041731.742     -945786.720 9   1980440.588 8
  23385947.391    23385948.994    -1524650.854 8   1660323.552 9
  21142579.652    21142582.762    -1411444.126 8   2152166.593 7
 86  6 19 22 54 17.0800000  0  4G 6G 8G 9G11
  21055881.423    21055883.109    -1348568.105 9   1846748.820 8
  21043710.263    21043709.559     -935385.674 9   1988545.289 8
  23382711.371    23382712.823    -1541657.808 8   1647071.403 8
  21140399.000    21140401.610    -1422898.490 9   2143241.123 8
 86  6 19 22 54 23.0800000  0  4G 6G 8G 9G11
  21054313.106    21054314.530    -1356812.268 9   1840324.800 9
  21045694.874    21045694.587     -924960.470 9   1996668.831 8
  23379474.901    23379476.263    -1558665.458 8   1633818.691 8
  21138223.974    21138226.630    -1434331.484 9   2134332.286 8
 86  6 19 22 54 29.0800000  0  4G 6G 8G 9G11
  21052744.595    21052747.115    -1365048.173 9   1833907.204 9
  21047682.607    21047682.365     -914511.037 9   2004811.251 7
  23376239.205    23376239.152    -1575673.961 7   1620565.340 8
  21136051.246    21136055.776    -1445743.075 8   2125440.140 8
 86  6 19 22 54 35.0800000  0  4G 6G 8G 9G11
  21051180.561    21051180.898    -1373275.880 9   1827496.005 9
  21049674.689    21049675.688     -904037.440 9   2012972.493 9
  23373001.296    23373003.124    -1592683.194 7   1607311.384 8
  21133884.902    21133888.021    -1457133.247 9   2116564.706 8
 86  6 19 22 54 41.0800000  0  4G 6G 8G 9G11
  21049615.376    21049616.315    -1381495.286 9   1821091.274 8
  21051671.837    21051672.135     -893539.659 9   2021152.569 8
  23369764.032    23369765.567    -1609693.222 7   1594056.814 8
  21131720.514    21131724.252    -1468501.888 8   2107706.020 8
 86  6 19 22 54 47.0800000  0  4G 6G 8G 9G11
  21048053.143    21048053.580    -1389706.489 9   1814692.940 9
  21053675.341    21053675.500     -883017.786 9   2029351.428 8
  23366527.264    23366529.842    -1626704.043 7   1580801.664 9
  21129562.753    21129566.412    -1479849.063 8   2098864.064 8
 86  6 19 22 54 53.0800000  0  4G 6G 8G 9G11
  21028683.201    21028683.678    -1397909.109 8   1808300.565 8
  21037872.848    21037873.148     -872471.287 8   2037568.742 7
  23345481.427    23345483.773    -1643715.307 7   1567545.390 8
  21109598.402    21109600.335    -1491174.447 9   2090038.364 9
 86  6 19 22 54 59.0800000  0  4G 6G 8G 9G11
  21027123.293    21027124.855    -1406103.698 9   1801915.171 9
  21039883.963    21039884.793     -861901.206 9   2045805.173 8
  23342243.358    23342245.884    -1660727.553 8   1554289.128 8
  21107447.502    21107449.555    -1502478.549 9   2081229.984 8
 86  6 19 22 55  5.0800000  0  4G 6G 8G 9G11
  21025566.355    21025566.555    -1414289.980 9   1795536.247 9
  21041900.313    21041902.069     -851306.990 9   2054060.403 8
  23339006.711    23339009.387    -1677740.497 8   1541032.275 8
  21105301.392    21105303.830    -1513761.103 9   2072438.389 8
 86  6 19 22 55 11.0800000  0  4G 6G 8G 9G11
  21024010.448    21024010.894    -1422467.906 9   1789163.835 9
  21043920.542    21043922.670     -840688.739 9   2062334.340 8
  23335766.948    23335771.167    -1694754.133 8   1527774.900 8
  21103157.530    21103160.489    -1525022.204 9   2063663.502 9
 86  6 19 22 55 17.0800000  0  4G 6G 8G 9G11
  21022454.261    21022456.323    -1430637.470 9   1782797.948 9
  21045945.862    21045947.246     -830046.445 9   2070627.043 8
  23332530.940    23332533.169    -1711768.431 8   1514517.027 8
  21101019.022    21101021.613    -1536261.731 9   2054905.446 8
 86  6 19 22 55 23.0800000  0  4G 6G 8G 9G11
  21020902.446    21020903.650    -1438798.676 9   1776438.573 8
  21047976.765    21047977.090     -819380.143 9   2078938.448 7
  23329293.606    23329295.105    -1728783.428 8   1501258.583 8
  21098884.234    21098885.651    -1547479.743 9   2046164.132 7
 86  6 19 22 55 29.0800000  0  4G 6G 8G 9G11
  21019350.207    21019352.487    -1446951.495 9   1770085.724 9
  21050011.475    21050012.573     -808689.847 9   2087268.541 7
  23326054.791    23326057.065    -1745799.168 9   1487999.590 8
  21096753.101    21096755.902    -1558676.234 9   2037439.588 9
 86  6 19 22 55 35.0800000  0  4G 6G 8G 9G11
  21017801.209    21017802.607    -1455095.894 9   1763739.445 9
  21052049.932    21052051.661     -797975.572 9   2095617.327 8
  23322817.536    23322817.808    -1762815.496 9   1474740.120 8
  21094625.810    21094629.503    -1569851.145 9   2028731.873 8
 86  6 19 22 55 41.0800000  0  4G 6G 8G 9G11
  21016253.876    21016253.859    -1463231.921 9   1757399.685 9
  21054093.041    21054095.187     -787237.306 9   2103984.806 8
  23319578.698    23319580.995    -1779832.567 8   1461480.091 8
  21092503.644    21092508.220    -1581004.452 7   2020040.999 8
 86  6 19 22 55 47.0800000  0  4G 6G 8G 9G11
  21014706.445    21014707.903    -1471359.491 9   1751066.520 8
  21056141.446    21056142.712     -776475.113 9   2112370.921 8
  23316341.292    23316342.244    -1796850.317 8   1448219.489 8
  21090385.156    21090387.919    -1592136.127 8   2011366.978 9
 86  6 19 22 55 53.0800000  0  4G 6G 8G 9G11
  21013161.997    21013161.758    -1479478.615 9   1744739.922 8
  21058194.638    21058194.114     -765689.034 9   2120775.661 8
  23313102.126    23313104.585    -1813868.713 8   1434958.415 9
  21088270.832    21088274.934    -1603246.127 8   2002709.834 9
 86  6 19 22 55 59.0800000  0  4G 6G 8G 9G11
  21011617.915    21011619.384    -1487589.286 9   1738419.929 8
  21060250.929    21060252.744     -754879.017 9   2129199.048 8
  23309862.995    23309865.826    -1830887.674 8   1421696.901 8
  21086160.370    21086164.572    -1614334.484 8   1994069.571 9
 86  6 19 22 56  5.0800000  0  4G 6G 8G 9G11
  21010075.847    21010076.936    -1495691.486 9   1732106.527 8
  21062311.035    21062313.924     -744045.128 9   2137641.023 8
  23306623.474    23306626.744    -1847907.185 9   1408434.955 9
  21084054.889    21084059.446    -1625401.203 8   1985446.154 8
 86  6 19 22 56 11.0800000  0  4G 6G 8G 9G11
  21008536.138    21008537.273    -1503785.175 9   1725799.755 9
  21064377.412    21064379.801     -733187.378 9   2146101.616 8
  23303385.555    23303387.135    -1864927.381 9   1395172.451 8
  21081952.332    21081957.379    -1636446.279 8   1976839.614 8
 86  6 19 22 56 17.0800000  0  4G 6G 8G 9G11
  21006998.426    21006999.138    -1511870.345 9   1719499.624 9
  21066448.680    21066450.221     -722305.789 9   2154580.767 8
  23300146.882    23300148.659    -1881948.224 8   1381909.468 8
  21079855.778    21079859.695    -1647469.681 8   1968249.951 9
 86  6 19 22 56 23.0800000  0  4G 6G 8G 9G11
  21005461.774    21005462.122    -1519947.037 9   1713206.095 9
  21068524.227    21068525.400     -711400.428 9   2163078.453 9
  23296906.950    23296909.846    -1898969.633 8   1368646.063 9
  21077761.717    21077766.705    -1658471.418 8   1959677.170 8
 86  6 19 22 56 29.0800000  0  4G 6G 8G 9G11
  21003924.994    21003926.762    -1528015.163 9   1706919.247 8
  21070604.054    21070604.927     -700471.223 9   2171594.708 8
  23293668.083    23293670.470    -1915991.653 8   1355382.153 8
  21075672.535    21075677.402    -1669451.445 8   1951121.312 8
 86  6 19 22 56 35.0800000  0  4G 6G 8G 9G11
  21002390.712    21002392.437    -1536074.728 9   1700639.070 8
  21072688.730    21072689.145     -689518.295 9   2180129.464 9
  23290427.885    23290431.151    -1933014.266 8   1342117.781 9
  21073586.294    21073590.997    -1680409.786 8   1942582.329 8
 86  6 19 22 56 41.0800000  0  4G 6G 8G 9G11
  21000858.163    21000860.643    -1544125.794 9   1694365.514 8
  21074776.640    21074777.997     -678541.600 9   2188682.723 8
  23287190.547    23287192.760    -1950037.440 7   1328852.996 9
  21071506.079    21071510.460    -1691346.384 8   1934060.309 8
 86  6 19 22 56 47.0800000  0  4G 6G 8G 9G11
  20999327.206    20999330.137    -1552168.238 9   1688098.674 9
  21076869.331    21076871.426     -667541.204 9   2197254.466 8
  23283949.799    23283952.635    -1967061.132 8   1315587.801 9
  21069429.550    21069434.394    -1702261.196 8   1925555.265 9
 86  6 19 22 56 53.0800000  0  4G 6G 8G 9G11
  20997799.333    20997801.538    -1560202.007 9   1681838.598 8
  21078967.156    21078969.442     -656516.990 9   2205844.760 9
  23280709.511    23280713.108    -1984085.368 8   1302322.184 9
  21067357.712    21067360.785    -1713154.226 8   1917067.192 8
 86  6 19 22 56 59.0800000  0  4G 6G 8G 9G11
  20996272.336    20996273.364    -1568227.219 9   1675585.187 8
  21081070.807    21081071.037     -645469.155 9   2214453.454 7
  23277471.057    23277473.089    -2001110.157 8   1289056.116 8
  21065287.839    21065291.837    -1724025.507 9   1908596.076 9
 86  6 19 22 57  5.0800000  0  4G 6G 8G 9G11
  20994746.901    20994749.052    -1576243.784 9   1669338.508 8
  21083176.634    21083178.319     -634397.614 9   2223080.623 9
  23274230.973    23274233.554    -2018135.513 9   1275789.622 9
  21063223.300    21063225.310    -1734875.063 9   1900141.873 8
 86  6 19 22 57 11.0800000  0  4G 6G 8G 9G11
  20993222.720    20993225.358    -1584251.715 9   1663098.563 8
  21085288.269    21085290.211     -623302.422 9   2231726.241 8
  23270991.028    23270994.085    -2035161.336 8   1262522.765 8
  21061164.142    21061165.149    -1745702.805 8   1891704.686 8
 86  6 19 22 57 17.0800000  0  4G 6G 8G 9G11
  20991700.990    20991702.693    -1592250.953 9   1656865.399 8
  21087404.940    21087404.856     -612183.597 9   2240390.250 7
  23267750.245    23267754.131    -2052187.649 8   1249255.521 8
  21059107.892    21059109.614    -1756508.727 8   1883284.483 8
 86  6 19 22 57 23.0800000  0  4G 6G 8G 9G11
  20990181.153    20990182.817    -1600241.472 9   1650639.026 9
  21089524.442    21089526.618     -601041.142 9   2249072.688 9
  23264510.936    23264512.461    -2069214.511 7   1235987.848 8
  21057055.028    21057056.626    -1767292.829 8   1874881.282 8
 86  6 19 22 57 29.0800000  0  4G 6G 8G 9G11
  20988661.167    20988663.439    -1608223.309 9   1644419.411 9
  21091648.789    21091651.449     -589875.118 9   2257773.477 8
  23261270.037    23261272.222    -2086241.810 8   1222719.855 8
  21055007.443    21055009.412    -1778055.066 9   1866495.128 8
 86  6 19 22 57 35.0800000  0  4G 6G 8G 9G11
  20987145.715    20987146.715    -1616196.485 9   1638206.557 9
  21093778.214    21093781.371     -578685.553 9   2266492.616 8
  23258031.336    23258033.357    -2103269.500 7   1209451.508 8
  21052963.355    21052966.145    -1788795.451 8   1858126.006 8
 86  6 19 22 57 41.0800000  0  4G 6G 8G 9G11
  20985628.780    20985629.911    -1624160.865 9   1632000.530 9
  21095912.497    21095914.297     -567472.394 9   2275230.133 8
  23254790.711    23254793.539    -2120297.643 9   1196182.854 8
  21050923.151    21050925.643    -1799514.001 8   1849773.890 8
 86  6 19 22 57 47.0800000  0  4G 6G 8G 9G11
  20984115.251    20984116.802    -1632116.508 9   1625801.325 9
  21098050.805    21098053.522     -556235.747 9   2283985.957 8
  23251550.251    23251552.822    -2137326.262 9   1182913.793 9
  21048887.277    21048889.318    -1810210.743 9   1841438.778 8
 86  6 19 22 57 53.0800000  0  4G 6G 8G 9G11
  20982602.787    20982604.117    -1640063.396 9   1619608.960 8
  21100193.053    21100194.575     -544975.600 9   2292760.114 8
  23248309.217    23248312.652    -2154355.385 8   1169644.360 9
  21046856.707    21046858.601    -1820885.592 9   1833120.734 8
 86  6 19 22 57 59.0800000  0  4G 6G 8G 9G11
  20981092.223    20981093.000    -1648001.496 8   1613423.430 9
  21102340.857    21102341.924     -533691.904 9   2301552.595 8
  23245068.379    23245070.414    -2171384.882 9   1156374.618 8
  21044828.323    21044830.896    -1831538.543 8   1824819.725 8
 86  6 19 22 58  5.0800000  0  4G 6G 8G 9G11
  20979582.587    20979584.883    -1655930.795 9   1607244.759 8
  21104492.945    21104493.140     -522384.777 9   2310363.342 9
  23241827.327    23241829.799    -2188414.838 8   1143104.554 8
  21042807.187    21042808.342    -1842169.557 9   1816535.812 8
 86  6 19 22 58 11.0800000  0  4G 6G 8G 9G11
  20978075.650    20978077.335    -1663851.308 9   1601072.930 8
  21106649.205    21106649.332     -511054.196 9   2319192.361 8
  23238586.959    23238588.899    -2205445.208 8   1129834.138 8
  21040787.150    21040789.821    -1852778.665 9   1808268.981 8
 86  6 19 22 58 17.0800000  0  4G 6G 8G 9G11
  20976570.450    20976571.690    -1671763.003 9   1594907.982 9
  21108809.779    21108810.793     -499700.196 9   2328039.637 8
  23235345.626    23235348.299    -2222475.937 7   1116563.457 8
  21038773.161    21038774.620    -1863365.884 8   1800019.203 8
 86  6 19 22 58 23.0800000  0  4G 6G 8G 9G11
  20975067.131    20975069.010    -1679665.767 9   1588749.981 8
  21110975.363    21110976.120     -488322.758 9   2336905.179 9
  23232105.258    23232106.064    -2239507.033 8   1103292.481 8
  21036761.842    21036762.981    -1873931.162 9   1791786.524 8
 86  6 19 22 58 29.0800000  0  4G 6G 8G 9G11
  20973565.559    20973565.732    -1687559.664 9   1582598.885 9
  21113144.165    21113144.332     -476921.919 9   2345788.936 9
  23228864.366    23228865.062    -2256538.467 8   1090021.237 9
  21034754.883    21034758.028    -1884474.476 8   1783570.956 9
 86  6 19 22 58 35.0800000  0  4G 6G 8G 9G11
  20972064.731    20972066.212    -1695444.706 9   1576454.699 9
  21115317.243    21115319.471     -465497.778 9   2354690.866 8
  23225623.973    23225623.467    -2273570.301 8   1076749.704 8
  21032753.875    21032755.144    -1894995.812 9   1775372.524 8
 86  6 19 22 58 41.0800000  0  4G 6G 8G 9G11
  20970566.832    20970567.421    -1703320.901 9   1570317.404 8
  21117495.846    21117497.842     -454050.282 9   2363610.974 8
  23222382.518    23222384.367    -2290602.484 8   1063477.858 8
  21030756.207    21030758.197    -1905495.188 9   1767191.203 9
 86  6 19 22 58 47.0800000  0  4G 6G 8G 9G11
  20969068.964    20969070.763    -1711188.167 9   1564187.068 8
  21119678.307    21119681.740     -442579.461 9   2372549.287 8
  23219142.093    23219142.597    -2307634.979 8   1050205.805 8
  21028761.728    21028762.303    -1915972.517 9   1759027.039 8
 86  6 19 22 58 53.0800000  0  4G 6G 8G 9G11
  20967573.819    20967575.086    -1719046.515 9   1558063.675 9
  21121866.210    21121867.989     -431085.332 9   2381505.735 8
  23215901.061    23215902.145    -2324667.787 9   1036933.492 8
  21026773.167    21026774.489    -1926427.848 8   1750880.025 8
 86  6 19 22 58 59.0800000  0  4G 6G 8G 9G11
  20966079.698    20966080.997    -1726895.888 9   1551947.289 9
  21124058.309    21124058.693     -419567.879 9   2390480.371 8
  23212658.993    23212661.300    -2341700.970 9   1023660.859 9
  21024786.459    21024790.110    -1936861.144 8   1742750.199 7
 86  6 19 22 59  5.0800000  0  4G 6G 8G 9G11
  20964587.668    20964589.272    -1734736.268 8   1545837.894 8
  21126253.140    21126255.211     -408027.205 9   2399473.104 9
  23209416.448    23209418.976    -2358734.459 9   1010388.027 7
  21022804.485    21022807.882    -1947272.439 8   1734637.500 8
 86  6 19 22 59 11.0800000  0  4G 6G 8G 9G11
  20963097.720    20963099.894    -1742567.657 9   1539735.516 8
  21128453.073    21128455.904     -396463.262 9   2408483.959 9
  23206176.824    23206179.154    -2375768.249 9    997114.941 8
  21020828.128    21020832.091    -1957661.710 8   1726541.988 8
 86  6 19 22 59 17.0800000  0  4G 6G 8G 9G11
  20961608.534    20961609.500    -1750390.068 9   1533640.129 9
  21130657.851    21130660.607     -384876.119 9   2417512.911 8
  23202933.102    23202935.850    -2392802.306 9    983841.668 8
  21018856.120    21018858.316    -1968028.923 8   1718463.630 8
 86  6 19 22 59 23.0800000  0  4G 6G 8G 9G11
  20960120.916    20960122.208    -1758203.504 9   1527551.742 9
  21132868.058    21132870.344     -373265.776 9   2426559.916 8
  23199692.257    23199694.903    -2409836.618 8    970568.178 9
  21016886.548    21016890.397    -1978374.098 8   1710402.454 9
 86  6 19 22 59 29.0800000  0  4G 6G 8G 9G11
  20958637.453    20958637.094    -1766007.912 9   1521470.377 8
  21135082.638    21135084.639     -361632.275 9   2435624.978 8
  23196451.181    23196453.401    -2426871.231 9    957294.443 9
  21014922.773    21014925.817    -1988697.203 8   1702358.497 8
 86  6 19 22 59 35.0800000  0  4G 6G 8G 9G11
  20957153.418    20957153.987    -1773803.282 9   1515396.072 8
  21137300.621    21137303.046     -349975.627 9   2444708.082 9
  23193209.211    23193211.028    -2443906.095 9    944020.523 8
  21012961.194    21012965.944    -1998998.218 8   1694331.736 8
 86  6 19 22 59 41.0800000  0  4G 6G 8G 9G11
  20955671.575    20955672.192    -1781589.551 9   1509328.848 9
  21139523.473    21139526.152     -338295.849 9   2453809.213 9
  23189967.148    23189969.108    -2460941.184 9    930746.430 7
  21011005.721    21011009.460    -2009277.131 8   1686322.189 9
 86  6 19 22 59 47.0800000  0  4G 6G 8G 9G11
  20954191.720    20954191.747    -1789366.766 9   1503268.680 9
  21141750.815    21141752.233     -326592.923 9   2462928.362 8
  23186724.259    23186727.668    -2477976.547 8    917472.132 8
  21009053.402    21009057.906    -2019533.962 9   1678329.852 8
 86  6 19 22 59 53.0800000  0  4G 6G 8G 9G11
  20952713.149    20952713.496    -1797134.854 9   1497215.634 9
  21143982.505    21143983.774     -314866.958 9   2472065.474 8
  23183484.381    23183486.575    -2495012.198 8    904197.623 9
  21007106.590    21007110.066    -2029768.642 9   1670354.785 9
 86  6 19 22 59 59.0800000  0  4G 6G 8G 9G11
  20951237.398    20951237.444    -1804893.846 9   1491169.679 9
  21146218.317    21146219.817     -303117.893 9   2481220.589 9
  23180242.389    23180244.389    -2512047.938 8    890923.018 8
  21005163.209    21005165.656    -2039981.174 9   1662396.961 8
 86  6 19 23  0  5.0800000  0  4G 6G 8G 9G11
  20949761.009    20949762.239    -1812643.753 9   1485130.776 8
  21148457.776    21148459.031     -291345.789 8   2490393.655 9
  23176999.319    23177002.309    -2529083.958 8    877648.208 8
  21003224.506    21003227.263    -2050171.605 8   1654456.371 8
 86  6 19 23  0 11.0800000  0  4G 6G 8G 9G11
  20948288.582    20948289.614    -1820384.539 9   1479098.992 8
  21150701.767    21150704.344     -279550.655 9   2499584.669 9
  23173759.425    23173760.117    -2546120.123 9    864373.278 8
  21001289.046    21001292.292    -2060339.805 8   1646533.103 8
 86  6 19 23  0 17.0800000  0  4G 6G 8G 9G11
  20946816.584    20946817.698    -1828116.177 9   1473074.337 9
  21152951.620    21152953.917     -267732.553 9   2508793.580 8
  23170517.366    23170518.820    -2563156.459 8    851098.228 8
  20999357.274    20999361.544    -2070485.833 9   1638627.120 9
 86  6 19 23  0 23.0800000  0  4G 6G 8G 9G11
  20945346.720    20945348.886    -1835838.556 8   1467056.897 8
  21155205.202    21155207.044     -255891.419 9   2518020.422 9
  23167275.110    23167276.381    -2580192.944 9    837823.063 8
  20997430.551    20997434.540    -2080609.665 8   1630738.423 8
 86  6 19 23  0 29.0800000  0  4G 6G 8G 9G11
  20943879.222    20943881.486    -1843551.765 9   1461046.600 8
  21157463.063    21157464.719     -244027.321 9   2527265.173 8
  23164033.817    23164035.546    -2597229.660 9    824547.694 9
  20995510.842    20995512.591    -2090711.297 9   1622867.019 7
 86  6 19 23  0 35.0800000  0  4G 6G 8G 9G11
  20942414.286    20942415.824    -1851255.819 9   1455043.446 8
  21159724.514    21159725.709     -232140.318 9   2536527.772 9
  23160792.315    23160792.699    -2614266.535 9    811272.226 8
  20993590.851    20993594.618    -2100790.700 8   1615012.946 7
 86  6 19 23  0 41.0800000  0  4G 6G 8G 9G11
  20940950.032    20940951.416    -1858950.647 9   1449047.471 9
  21161990.846    21161992.258     -220230.436 8   2545808.195 9
  23157549.533    23157551.168    -2631303.486 9    797996.699 8
  20991676.932    20991679.709    -2110847.912 9   1607176.161 8
 86  6 19 23  0 47.0800000  0  4G 6G 8G 9G11
  20939487.684    20939488.330    -1866636.256 9   1443058.684 8
  21164261.242    21164262.437     -208297.668 9   2555106.458 8
  23154307.593    23154309.584    -2648340.567 9    784721.067 8
  20989768.403    20989770.396    -2120882.945 8   1599356.660 7
 86  6 19 23  0 53.0800000  0  4G 6G 8G 9G11
  20938026.321    20938027.793    -1874312.543 9   1437077.163 9
  21166536.674    21166537.891     -196341.964 9   2564422.576 8
  23151064.697    23151066.818    -2665377.843 9    771445.266 8
  20987863.334    20987864.229    -2130895.757 9   1591554.479 8
 86  6 19 23  0 59.0800000  0  4G 6G 8G 9G11
  20936567.190    20936569.120    -1881979.543 8   1431102.881 7
  21168815.083    21168816.681     -184363.417 9   2573756.515 8
  23147823.566    23147825.050    -2682415.100 9    758169.507 8
  20985960.772    20985965.183    -2140886.317 8   1583769.632 8
 86  6 19 23  1  5.0800000  0  4G 6G 8G 9G11
  20935110.616    20935111.174    -1889637.290 8   1425135.793 8
  21171099.059    21171100.316     -172362.052 9   2583108.218 8
  23144580.235    23144582.007    -2699452.488 8    744893.622 8
  20984065.110    20984066.763    -2150854.635 9   1576002.117 9
 86  6 19 23  1 11.0800000  0  4G 6G 8G 9G11
  20933654.788    20933655.940    -1897285.760 9   1419175.945 8
  21173387.044    21173388.959     -160337.839 9   2592477.725 8
  23141337.985    23141340.157    -2716489.959 9    731617.693 7
  20982173.016    20982174.502    -2160800.687 8   1568251.948 7
 86  6 19 23  1 17.0800000  0  4G 6G 8G 9G11
  20932200.190    20932202.358    -1904924.927 9   1413223.358 8
  21175679.449    21175680.798     -148290.879 9   2601864.961 8
  23138095.436    23138097.318    -2733527.529 9    718341.642 7
  20980283.440    20980285.667    -2170724.444 8   1560519.150 7
 86  6 19 23  1 23.0800000  0  4G 6G 8G 9G11
  20930747.984    20930750.558    -1912554.803 9   1407277.995 9
  21177977.601    21177977.628     -136221.223 9   2611269.891 9
  23134853.657    23134854.548    -2750565.066 9    705065.660 8
  20978400.723    20978401.939    -2180625.933 9   1552803.702 8
 86  6 19 23  1 29.0800000  0  4G 6G 8G 9G11
  20929299.488    20929301.739    -1920175.249 9   1401339.989 9
  21180276.997    21180279.484     -124128.782 9   2620692.567 8
  23131610.387    23131612.650    -2767602.716 9    691789.573 8
  20976520.266    20976522.094    -2190505.099 9   1545105.660 8
 86  6 19 23  1 35.0800000  0  4G 6G 8G 9G11
  20927851.643    20927851.848    -1927786.311 9   1395409.285 9
  21182583.742    21182585.726     -112013.636 9   2630132.920 7
  23128368.652    23128370.252    -2784640.414 8    678513.443 8
  20974644.143    20974646.599    -2200361.918 9   1537425.028 8
 86  6 19 23  1 41.0800000  0  4G 6G 8G 9G11
  20926404.583    20926406.225    -1935388.047 9   1389485.856 8
  21184893.757    21184895.575      -99875.778 9   2639591.000 8
  23125126.510    23125129.584    -2801678.205 8    665237.248 8
  20972771.678    20972774.897    -2210196.426 8   1529761.771 8
 86  6 19 23  1 47.0800000  0  4G 6G 8G 9G11
  20924960.465    20924960.249    -1942980.407 9   1383569.743 9
  21187207.996    21187208.113      -87715.242 9   2649066.727 8
  23121884.832    23121885.437    -2818715.962 9    651961.083 7
  20970905.255    20970908.915    -2220008.656 8   1522115.884 8
 86  6 19 23  1 53.0800000  0  4G 6G 8G 9G11
  20923516.587    20923517.004    -1950563.280 9   1377661.007 8
  21189527.316    21189528.085      -75532.068 9   2658560.120 8
  23118642.324    23118644.895    -2835753.655 9    638684.976 9
  20969042.827    20969045.565    -2229798.559 9   1514487.386 8
 86  6 19 23  1 59.0800000  0  4G 6G 8G 9G11
  20922076.098    20922075.181    -1958136.716 9   1371759.620 9
  21191849.915    21191849.776      -63326.231 9   2668071.143 8
  23115400.832    23115402.126    -2852791.339 9    625408.860 8
  20967184.159    20967187.450    -2239566.062 9   1506876.346 8
 86  6 19 23  2  5.0800000  0  4G 6G 8G 9G11
  20920636.914    20920636.337    -1965700.739 9   1365865.574 8
  21194175.857    21194176.396      -51097.779 9   2677599.819 8
  23112160.096    23112161.265    -2869829.018 9    612132.756 8
  20965330.376    20965333.353    -2249311.210 9   1499282.730 8
 86  6 19 23  2 11.0800000  0  4G 6G 8G 9G11
  20919197.885    20919199.366    -1973255.239 9   1359978.954 8
  21196508.367    21196508.905      -38846.780 9   2687146.051 9
  23108917.006    23108917.755    -2886866.599 9    598856.719 8
  20963479.988    20963482.906    -2259033.972 9   1491706.564 8
 86  6 19 23  2 17.0800000  0  4G 6G 8G 9G11
  20917761.677    20917763.160    -1980800.239 8   1354099.728 9
  21198843.458    21198843.224      -26573.187 9   2696709.892 9
  23105676.113    23105676.601    -2903904.190 9    585580.682 8
  20961633.454    20961635.814    -2268734.291 8   1484147.877 8
 86  6 19 23  2 23.0800000  0  4G 6G 8G 9G11
  20916328.828    20916330.644    -1988335.698 9   1348227.923 9
  21201181.873    21201183.118      -14277.010 9   2706291.329 8
  23102432.996    23102434.653    -2920941.719 9    572304.694 8
  20959792.804    20959794.824    -2278412.230 8   1476606.634 8
 86  6 19 23  2 29.0800000  0  4G 6G 8G 9G11
  20914897.061    20914896.556    -1995861.727 9   1342363.496 8
  21203525.466    21203528.478       -1958.351 9   2715890.274 9
  23099190.972    23099192.738    -2937979.250 9    559028.696 8
  20957955.086    20957957.433    -2288067.726 9   1469082.881 8
 86  6 19 23  2 35.0800000  0  4G 6G 8G 9G11
  20913465.415    20913468.179    -2003378.208 9   1336506.496 8
  21205873.758    21205876.508       10382.823 9   2725506.763 8
  23095949.809    23095951.150    -2955016.641 9    545752.829 7
  20956120.503    20956123.662    -2297700.812 9   1461576.584 8
 86  6 19 23  2 41.0800000  0  4G 6G 8G 9G11
  20912037.067    20912038.570    -2010885.142 9   1330656.935 8
  21208228.063    21208228.501       22746.455 9   2735140.766 8
  23092706.704    23092709.055    -2972053.959 9    532476.989 7
  20954292.094    20954295.707    -2307311.537 8   1454087.706 8
 86  6 19 23  2 47.0800000  0  4G 6G 8G 9G11
  20910611.608    20910611.546    -2018382.501 9   1324814.838 9
  21210584.154    21210585.831       35132.561 9   2744792.276 9
  23089464.416    23089465.587    -2989091.186 9    519201.217 8
  20952467.913    20952469.523    -2316899.785 9   1446616.351 7
 86  6 19 23  2 53.0800000  0  4G 6G 8G 9G11
  20909186.475    20909186.876    -2025870.254 9   1318980.229 8
  21212945.231    21212947.763       47541.114 9   2754461.260 7
  23086223.038    23086223.826    -3006128.208 9    505925.644 9
  20950646.897    20950648.907    -2326465.557 9   1439162.494 8
 86  6 19 23  2 59.0800000  0  4G 6G 8G 9G11
  20907763.808    20907764.371    -2033348.405 9   1313153.094 8
  21215311.652    21215312.725       59972.036 9   2764147.692 8
  23082980.107    23082982.394    -3023165.182 9    492650.080 8
  20948829.961    20948833.214    -2336008.846 9   1431726.169 7
 86  6 19 23  3  5.0800000  0  4G 6G 8G 9G11
  20906341.412    20906343.125    -2040816.998 9   1307333.419 8
  21217681.261    21217681.811       72425.379 9   2773851.601 8
  23079737.784    23079738.956    -3040201.988 9    479374.644 7
  20947018.560    20947021.747    -2345529.644 9   1424307.365 7
 86  6 19 23  3 11.0800000  0  4G 6G 8G 9G11
  20904922.536    20904923.518    -2048275.907 9   1301521.270 8
  21220055.869    21220056.907       84901.121 9   2783572.956 8
  23076496.463    23076497.255    -3057238.667 9    466099.329 7
  20945211.845    20945214.329    -2355027.953 9   1416906.086 8
 86  6 19 23  3 17.0800000  0  4G 6G 8G 9G11
  20903505.021    20903505.208    -2055725.224 8   1295716.613 8
  21222433.138    21222434.552       97399.124 9   2793311.653 8
  23073253.268    23073255.958    -3074275.183 9    452824.118 8
  20943407.658    20943410.728    -2364503.769 9   1409522.343 8
 86  6 19 23  3 23.0800000  0  4G 6G 8G 9G11
  20902090.197    20902090.264    -2063164.773 9   1289919.556 9
  21224816.905    21224817.143      109919.495 9   2803067.774 9
  23070012.373    23070013.335    -3091311.464 9    439549.112 8
  20941609.422    20941612.280    -2373957.087 8   1402156.119 8
 86  6 19 23  3 29.0800000  0  4G 6G 8G 9G11
  20900675.985    20900676.859    -2070594.619 9   1284130.061 8
  21227203.265    21227204.432      122462.172 9   2812841.300 8
  23066771.159    23066772.066    -3108347.620 9    426274.177 8
  20939814.717    20939817.082    -2383387.891 9   1394807.453 7
 86  6 19 23  3 35.0800000  0  4G 6G 8G 9G11
  20899264.091    20899264.800    -2078014.805 8   1278348.113 8
  21229594.144    21229594.751      135027.157 9   2822632.174 9
  23063527.870    23063529.660    -3125383.587 9    412999.399 8
  20938024.807    20938027.210    -2392796.139 9   1387476.342 9
 86  6 19 23  3 41.0800000  0  4G 6G 8G 9G11
  20897853.445    20897854.122    -2085425.296 9   1272573.699 9
  21231988.352    21231990.626      147614.351 9   2832440.378 8
  23060286.781    23060288.776    -3142419.372 9    399724.772 7
  20936237.989    20936238.835    -2402181.796 8   1380162.844 7
 86  6 19 23  3 47.0800000  0  4G 6G 8G 9G11
  20896445.449    20896446.513    -2092826.036 9   1266806.881 8
  21234387.633    21234390.909      160223.799 9   2842265.898 9
  23057045.049    23057046.268    -3159454.938 9    386450.313 8
  20934456.258    20934459.421    -2411544.895 9   1372866.931 8
 86  6 19 23  3 53.0800000  0  4G 6G 8G 9G11
  20895037.871    20895039.998    -2100217.016 9   1261047.672 9
  21236792.217    21236794.250      172855.439 9   2852108.739 8
  23053803.092    23053804.115    -3176490.217 9    373176.056 8
  20932679.783    20932681.995    -2420885.415 9   1365588.609 8
 86  6 19 23  3 59.0800000  0  4G 6G 8G 9G11
  20893634.820    20893633.992    -2107598.238 9   1255296.073 8
  21239199.904    21239200.712      185509.250 9   2861968.842 9
  23050559.999    23050562.147    -3193525.295 9    359901.972 8
  20930907.618    20930908.190    -2430203.420 9   1358327.837 7
 86  6 19 23  4  5.0800000  0  4G 6G 8G 9G11
  20892231.065    20892232.519    -2114969.661 9   1249552.114 8
  21241612.602    21241612.983      198185.200 9   2871846.206 8
  23047318.986    23047322.285    -3210560.123 9    346628.109 8
  20929138.122    20929140.437    -2439498.860 9   1351084.637 7
 86  6 19 23  4 11.0800000  0  4G 6G 8G 9G11
  20890830.047    20890830.990    -2122331.331 9   1243815.736 8
  21244029.662    21244029.435      210883.322 9   2881740.844 8
  23044077.293    23044080.860    -3227594.714 8    333354.415 8
  20927373.992    20927374.782    -2448771.755 9   1343859.009 8
 86  6 19 23  4 17.0800000  0  4G 6G 8G 9G11
  20889431.564    20889432.109    -2129683.176 9   1238087.040 7
  21246449.415    21246450.943      223603.555 9   2891652.707 9
  23040836.308    23040839.010    -3244629.045 9    320080.920 8
  20925613.818    20925615.191    -2458022.039 9   1336651.001 8
 86  6 19 23  4 23.0800000  0  4G 6G 8G 9G11
  20888032.720    20888035.146    -2137025.206 9   1232365.971 8
  21248873.712    21248875.435      236345.853 8   2901581.767 8
  23037594.119    23037597.868    -3261663.095 8    306807.641 9
  20923856.639    20923858.344    -2467249.726 9   1329460.604 8
 86  6 19 23  4 29.0800000  0  4G 6G 8G 9G11
  20886638.580    20886639.672    -2144357.405 9   1226652.572 8
  21251302.167    21251304.971      249110.246 9   2911528.043 9
  23034354.082    23034356.272    -3278696.856 8    293534.594 9
  20922105.605    20922106.551    -2476454.765 8   1322287.841 8
 86  6 19 23  4 35.0800000  0  4G 6G 8G 9G11
  20885245.454    20885247.011    -2151679.733 9   1220946.858 8
  21253736.583    21253738.567      261896.660 9   2921491.485 9
  23031111.941    23031114.014    -3295730.272 8    280261.823 9
  20920357.975    20920360.501    -2485637.200 9   1315132.725 8
 86  6 19 23  4 41.0800000  0  4G 6G 8G 9G11
  20883854.882    20883855.293    -2158992.181 9   1215248.851 8
  21256173.215    21256175.622      274705.115 8   2931472.084 8
  23027870.148    23027873.578    -3312763.307 8    266989.327 9
  20918614.641    20918617.567    -2494796.999 8   1307995.214 8
 86  6 19 23  4 47.0800000  0  4G 6G 8G 9G11
  20882464.577    20882465.639    -2166294.712 9   1209558.563 9
  21258614.893    21258617.450      287535.550 8   2941469.826 8
  23024630.325    23024631.046    -3329796.008 9    253717.103 9
  20916876.771    20916879.206    -2503934.171 8   1300875.343 6
 86  6 19 23  4 53.0800000  0  4G 6G 8G 9G11
  20881076.695    20881077.455    -2173587.340 9   1203876.003 8
  21261061.602    21261063.317      300387.982 9   2951484.699 8
  23021388.542    23021389.760    -3346828.380 9    240445.127 8
  20915141.981    20915143.101    -2513048.660 9   1293773.139 8
 86  6 19 23  4 59.0800000  0  4G 6G 8G 9G11
  20879691.353    20879691.350    -2180870.000 9   1198201.193 9
  21263511.736    21263513.680      313262.370 9   2961516.675 8
  23018148.432    23018148.459    -3363860.413 8    227173.417 8
  20913411.961    20913413.886    -2522140.483 8   1286688.594 7
 86  6 19 23  5  5.0800000  0  4G 6G 8G 9G11
  20878307.368    20878308.151    -2188142.738 9   1192534.125 8
  21265965.667    21265968.046      326158.693 9   2971565.757 8
  23014907.343    23014907.459    -3380892.132 8    213901.957 8
  20911686.331    20911688.065    -2531209.617 9   1279621.744 7
 86  6 19 23  5 11.0800000  0  4G 6G 8G 9G11
  20876925.444    20876926.739    -2195405.508 9   1186874.827 9
  21268422.378    21268425.766      339076.941 9   2981631.920 9
  23011666.390    23011666.635    -3397923.456 9    200630.802 9
  20909964.897    20909966.718    -2540256.062 9   1272572.559 8
 86  6 19 23  5 17.0800000  0  4G 6G 8G 9G11
  20875544.469    20875546.797    -2202658.324 9   1181223.282 9
  21270885.003    21270888.035      352017.039 9   2991715.107 9
  23008426.125    23008425.783    -3414954.329 9    187359.998 8
  20908247.936    20908250.171    -2549279.836 8   1265541.053 7
 86  6 19 23  5 23.0800000  0  4G 6G 8G 9G11
  20874166.934    20874168.384    -2209901.195 9   1175579.489 8
  21273351.206    21273353.107      364979.011 9   3001815.340 8
  23005182.918    23005185.512    -3431984.827 9    174089.482 9
  20906535.873    20906537.432    -2558280.939 9   1258527.212 8
 86  6 19 23  5 29.0800000  0  4G 6G 8G 9G11
  20872790.710    20872791.767    -2217133.972 9   1169943.565 8
  21275823.207    21275825.165      377962.822 9   3011932.591 9
  23001943.336    23001945.256    -3449014.948 9    160819.259 9
  20904826.306    20904828.599    -2567259.327 9   1251531.064 8
 86  6 19 23  5 35.0800000  0  4G 6G 8G 9G11
  20871415.420    20871417.854    -2224356.775 9   1164315.402 9
  21278297.884    21278299.506      390968.478 9   3022066.866 9
  22998702.946    22998704.641    -3466044.667 9    147549.375 9
  20903122.423    20903123.818    -2576215.083 9   1244552.557 8
 86  6 19 23  5 41.0800000  0  4G 6G 8G 9G11
  20870043.054    20870044.670    -2231569.471 9   1158695.122 8
  21280777.293    21280778.604      403995.935 8   3032218.123 8
  22995463.109    22995463.192    -3483073.873 8    134279.863 8
  20901421.299    20901424.399    -2585148.022 9   1237591.819 7
 86  6 19 23  5 47.0800000  0  4G 6G 8G 9G11
  20868672.239    20868673.511    -2238772.130 9   1153082.651 9
  21283259.633    21283261.562      417045.161 9   3042386.338 8
  22992221.903    22992224.302    -3500102.645 8    121010.690 9
  20899726.052    20899729.492    -2594058.221 9   1230648.823 8
 86  6 19 23  5 53.0800000  0  4G 6G 8G 9G11
  20867302.895    20867305.641    -2245964.726 9   1147478.038 9
  21285746.236    21285748.643      430116.122 9   3052571.503 8
  22988981.894    22988983.078    -3517130.946 9    107741.885 9
  20898035.325    20898037.320    -2602945.693 9   1223723.516 7
 86  6 19 23  5 59.0800000  0  4G 6G 8G 9G11
  20865937.232    20865938.343    -2253147.271 9   1141881.252 9
  21288238.172    21288240.555      443208.750 9   3062773.561 8
  22985741.247    22985742.816    -3534158.771 9     94473.462 9
  20896348.521    20896351.259    -2611810.403 9   1216815.962 8
 86  6 19 23  6  5.0800000  0  4G 6G 8G 9G11
  20864573.341    20864574.354    -2260319.652 9   1136292.378 9
  21290732.476    21290736.141      456323.136 9   3072992.551 8
  22982499.528    22982502.960    -3551186.098 8     81205.416 8
  20894666.800    20894667.996    -2620652.337 9   1209926.136 8
 86  6 19 23  6 11.0800000  0  4G 6G 8G 9G11
  20863210.031    20863211.251    -2267481.853 8   1130711.443 9
  21293233.749    21293235.835      469459.160 9   3083228.407 9
  22979259.453    22979261.895    -3568212.922 9     67937.779 9
  20892987.663    20892988.894    -2629471.486 9   1203054.068 8
 86  6 19 23  6 17.0800000  0  4G 6G 8G 9G11
  20861848.385    20861849.031    -2274633.920 8   1125138.402 9
  21295737.944    21295739.374      482616.894 9   3093481.185 9
  22976020.962    22976022.401    -3585239.208 9     54670.553 8
  20891314.214    20891315.313    -2638267.865 8   1196199.763 8
 86  6 19 23  6 23.0800000  0  4G 6G 8G 9G11
  20860488.577    20860490.699    -2281775.824 9   1119573.284 9
  21298245.960    21298248.006      495796.224 9   3103750.791 8
  22972781.371    22972782.599    -3602264.932 9     41403.760 8
  20889643.473    20889644.704    -2647041.463 9   1189363.194 7
 86  6 19 23  6 29.0800000  0  4G 6G 8G 9G11
  20859132.683    20859132.668    -2288907.572 9   1114016.086 8
  21300757.311    21300759.634      508997.219 9   3114037.275 8
  22969540.968    22969542.589    -3619290.120 8     28137.367 9
  20887978.520    20887980.893    -2655792.200 9   1182544.438 8
 86  6 19 23  6 35.0800000  0  4G 6G 8G 9G11
  20857776.532    20857777.255    -2296029.120 9   1108466.826 7
  21303273.778    21303276.141      522219.782 9   3124340.578 8
  22966301.864    22966304.411    -3636314.826 8     14871.370 9
  20886317.950    20886319.802    -2664520.140 9   1175743.459 7
 86  6 19 23  6 41.0800000  0  4G 6G 8G 9G11
  20856423.960    20856423.952    -2303140.447 9   1102925.537 9
  21305795.330    21305795.355      535463.942 9   3134660.692 8
  22963060.020    22963064.160    -3653338.966 8      1605.810 9
  20884660.853    20884661.862    -2673225.222 8   1168960.268 8
 86  6 19 23  6 47.0800000  0  4G 6G 8G 9G11
  20855073.011    20855072.953    -2310241.582 8   1097392.176 9
  21308320.057    21308320.127      548729.600 9   3144997.561 8
  22959821.059    22959823.791    -3670362.601 9    -11659.356 8
  20883009.582    20883010.691    -2681907.488 8   1162194.876 8
 86  6 19 23  6 53.0800000  0  4G 6G 8G 9G11
  20853723.122    20853723.143    -2317332.417 9   1091866.848 9
  21310848.564    21310848.444      562016.734 9   3155351.169 8
  22956581.687    22956583.828    -3687385.571 9    -24923.998 8
  20881361.316    20881364.218    -2690566.961 8   1155447.237 7
 86  6 19 23  6 59.0800000  0  4G 6G 8G 9G11
  20852376.317    20852376.961    -2324413.021 9   1086349.497 9
  21313379.927    21313381.802      575325.375 9   3165721.542 8
  22953342.295    22953344.907    -3704407.928 8    -38188.169 9
  20879718.715    20879720.273    -2699203.598 9   1148717.399 8
 86  6 19 23  7  5.0800000  0  4G 6G 8G 9G11
  20851030.092    20851032.131    -2331483.361 8   1080840.136 8
  21315916.203    21315918.588      588655.517 9   3176108.654 8
  22950102.595    22950107.611    -3721429.704 8    -51451.886 9
  20878078.624    20878080.050    -2707817.375 9   1142005.381 8
 86  6 19 23  7 11.0800000  0  4G 6G 8G 9G11
  20849685.903    20849687.379    -2338543.367 8   1075338.823 9
  21318457.029    21318459.015      602007.120 8   3186512.485 9
  22946863.973    22946868.124    -3738450.851 8    -64715.129 9
  20876443.874    20876445.920    -2716408.235 8   1135311.209 8
 86  6 19 23  7 17.0800000  0  4G 6G 8G 9G11
  20848343.929    20848345.770    -2345593.069 9   1069845.556 8
  21321003.048    21321003.902      615380.122 9   3196933.016 8
  22943627.088    22943628.753    -3755471.402 9    -77977.874 9
  20874813.896    20874815.420    -2724976.238 8   1128634.844 8
 86  6 19 23  7 23.0800000  0  4G 6G 8G 9G11
  20847004.435    20847006.497    -2352632.437 8   1064360.338 9
  21323549.840    21323552.600      628774.530 9   3207370.206 8
  22940388.158    22940390.942    -3772491.319 9    -91240.134 9
  20873187.686    20873189.866    -2733521.359 9   1121976.294 8
 86  6 19 23  7 29.0800000  0  4G 6G 8G 9G11
  20845667.252    20845668.169    -2359661.455 9   1058883.187 8
  21326104.738    21326106.274      642190.313 9   3217824.062 9
  22937148.582    22937151.496    -3789510.475 9   -104501.809 8
  20871566.732    20871568.606    -2742043.602 8   1115335.589 7
 86  6 19 23  7 35.0800000  0  4G 6G 8G 9G11
  20844333.217    20844332.944    -2366680.122 8   1053414.092 9
  21328661.294    21328662.119      655627.457 8   3228294.563 8
  22933910.784    22933913.195    -3806528.936 9   -117762.956 9
  20869948.305    20869949.813    -2750542.894 9   1108712.770 7
 86  6 19 23  7 41.0800000  0  4G 6G 8G 9G11
  20842998.364    20842997.810    -2373688.331 8   1047953.156 9
  21331222.407    21331223.268      669085.954 9   3238781.694 8
  22930672.512    22930674.338    -3823546.733 8   -131023.554 8
  20868335.450    20868336.198    -2759019.280 9   1102107.787 8
 86  6 19 23  7 47.0800000  0  4G 6G 8G 9G11
  20841666.928    20841667.600    -2380686.210 9   1042500.263 8
  21333785.931    21333789.851      682565.721 8   3249285.401 8
  22927433.951    22927436.365    -3840563.856 9   -144283.644 8
  20866725.752    20866729.014    -2767472.824 8   1095520.605 8
 86  6 19 23  7 53.0800000  0  4G 6G 8G 9G11
  20840338.164    20840338.307    -2387673.660 9   1037055.497 8
  21336354.419    21336357.981      696066.780 9   3259805.705 9
  22924196.741    22924197.737    -3857580.207 8   -157543.129 8
  20865122.052    20865124.562    -2775903.394 9   1088951.333 8
 86  6 19 23  7 59.0800000  0  4G 6G 8G 9G11
  20839010.449    20839009.497    -2394650.659 9   1031618.864 8
  21338929.015    21338931.284      709589.095 9   3270342.576 8
  22920958.586    22920959.795    -3874595.914 9   -170802.115 9
  20863521.198    20863524.814    -2784311.038 8   1082399.928 7
 86  6 19 23  8  5.0800000  0  4G 6G 8G 9G11
  20837684.623    20837684.329    -2401617.273 9   1026190.338 9
  21341505.759    21341508.826      723132.659 8   3280895.986 9
  22917720.518    22917722.352    -3891610.950 8   -184060.586 9
  20861927.440    20861928.628    -2792695.728 9   1075866.400 8
 86  6 19 23  8 11.0800000  0  4G 6G 8G 9G11
  20836360.593    20836359.236    -2408573.418 9   1020769.973 8
  21344086.942    21344090.353      736697.439 9   3291465.934 8
  22914483.435    22914484.223    -3908625.205 9   -197318.452 9
  20860335.067    20860336.803    -2801057.450 8   1069350.779 8
 86  6 19 23  8 17.0800000  0  4G 6G 8G 9G11
  20835038.584    20835040.311    -2415519.072 9   1015357.773 8
  21346672.658    21346676.130      750283.342 9   3302052.347 9
  22911245.344    22911246.017    -3925638.597 9   -210575.626 9
  20858748.912    20858750.631    -2809396.191 9   1062853.075 8
 86  6 19 23  8 23.0800000  0  4G 6G 8G 9G11
  20833718.859    20833720.234    -2422454.234 9   1009953.759 8
  21349262.465    21349264.268      763890.435 9   3312655.275 9
  22908008.192    22908008.549    -3942651.280 9   -223832.245 9
  20857166.680    20857168.334    -2817711.940 9   1056373.265 8
 86  6 19 23  8 29.0800000  0  4G 6G 8G 9G11
  20832400.444    20832401.444    -2429378.794 8   1004557.999 8
  21351855.087    21351858.690      777518.707 9   3323274.687 9
  22904770.689    22904772.219    -3959663.199 9   -237088.267 8
  20855588.223    20855590.842    -2826004.758 9   1049911.345 8
 86  6 19 23  8 35.0800000  0  4G 6G 8G 9G11
  20831083.558    20831086.017    -2436292.977 9    999170.311 8
  21354453.679    21354454.612      791168.035 8   3333910.520 9
  22901533.285    22901534.826    -3976674.338 9   -250343.694 9
  20854014.374    20854017.456    -2834274.545 9   1043467.353 8
 86  6 19 23  8 41.0800000  0  4G 6G 8G 9G11
  20829770.472    20829772.980    -2443196.519 9    993790.926 8
  21357053.213    21357057.612      804838.516 9   3344562.838 8
  22898296.429    22898296.581    -3993684.612 8   -263598.451 9
  20852445.095    20852447.390    -2842521.307 9   1037041.321 8
 86  6 19 23  8 47.0800000  0  4G 6G 8G 9G11
  20828459.624    20828461.337    -2450089.528 8    988419.762 9
  21359660.080    21359660.974      818529.996 9   3355231.537 7
  22895059.343    22895059.139    -4010694.109 9   -276852.584 9
  20850881.254    20850880.417    -2850745.031 8   1030633.216 7
 86  6 19 23  8 53.0800000  0  4G 6G 8G 9G11
  20827150.114    20827152.340    -2456971.950 9    983056.836 9
  21362268.999    21362270.229      832242.543 9   3365916.634 7
  22891822.063    22891824.252    -4027702.712 9   -290106.041 8
  20849319.967    20849320.649    -2858945.737 9   1024243.068 7
 86  6 19 23  8 59.0800000  0  4G 6G 8G 9G11
  20825843.244    20825843.450    -2463843.796 9    977702.155 8
  21364882.060    21364884.146      845976.123 8   3376618.120 7
  22888585.944    22888588.351    -4044710.526 9   -303358.868 9
  20847764.434    20847763.765    -2867123.428 9   1017870.845 7
 86  6 19 23  9  5.0800000  0  4G 6G 8G 9G11
  20824536.798    20824537.990    -2470704.910 9    972355.829 9
  21367500.639    21367501.693      859730.734 9   3387336.000 8
  22885349.742    22885350.640    -4061717.469 8   -316611.034 8
  20846212.251    20846212.175    -2875278.096 9   1011516.545 8
 86  6 19 23  9 11.0800000  0  4G 6G 8G 9G11
  20823234.136    20823234.687    -2477555.405 9    967017.775 8
  21370122.024    21370123.426      873506.297 9   3398070.193 8
  22882114.624    22882115.494    -4078723.553 8   -329862.524 8
  20844663.664    20844664.999    -2883409.795 8   1005180.173 6
 86  6 19 23  9 17.0800000  0  4G 6G 8G 9G11
  20821932.451    20821933.025    -2484395.266 8    961688.016 9
  21372746.518    21372749.020      887302.782 8   3408820.707 8
  22878877.328    22878879.171    -4095728.670 9   -343113.263 8
  20843121.114    20843122.105    -2891518.474 9    998861.720 7
 86  6 19 23  9 23.0800000  0  4G 6G 8G 9G11
  20820633.114    20820633.072    -2491224.494 9    956366.541 8
  21375376.872    21375377.503      901120.199 9   3419587.515 8
  22875641.222    22875643.470    -4112732.927 8   -356363.312 8
  20841582.398    20841582.894    -2899604.052 8    992561.280 6
 86  6 19 23  9 29.0800000  0  4G 6G 8G 9G11
  20819335.287    20819336.582    -2498043.078 9    951053.361 9
  21378010.883    21378010.334      914958.552 9   3430370.652 8
  22872405.812    22872408.150    -4129736.246 9   -369612.661 9
  20840048.167    20840047.587    -2907666.565 8    986278.789 7
 86  6 19 23  9 35.0800000  0  4G 6G 8G 9G11
  20818039.023    20818039.659    -2504850.915 9    945748.552 7
  21380648.453    21380648.664      928817.763 9   3441170.020 9
  22869170.103    22869173.099    -4146738.719 8   -382861.312 9
  20838518.095    20838519.721    -2915706.055 8    980014.256 8
 86  6 19 23  9 41.0800000  0  4G 6G 8G 9G11
  20816745.849    20816746.561    -2511647.968 8    940452.137 8
  21383289.667    21383290.480      942697.916 8   3451985.723 7
  22865934.162    22865938.486    -4163740.230 8   -396109.247 8
  20836992.526    20836995.063    -2923722.484 9    973767.686 8
 86  6 19 23  9 47.0800000  0  4G 6G 8G 9G11
  20815454.439    20815455.247    -2518434.275 9    935164.095 8
  21385933.686    21385935.222      956598.820 8   3462817.588 8
  22862699.486    22862702.483    -4180740.741 8   -409356.384 8
  20835471.068    20835474.546    -2931715.834 9    967539.107 8
 86  6 19 23  9 53.0800000  0  4G 6G 8G 9G11
  20814165.420    20814166.864    -2525209.918 9    929884.374 9
  21388583.223    21388584.363      970520.557 9   3473665.687 8
  22859464.944    22859467.775    -4197740.262 8   -422602.757 8
  20833955.286    20833957.422    -2939686.077 9    961328.533 7
 86  6 19 23  9 59.0800000  0  4G 6G 8G 9G11
  20812878.813    20812879.438    -2531974.770 9    924613.062 9
  21391236.119    21391238.090      984463.022 9   3484529.939 9
  22856229.108    22856232.990    -4214738.859 9   -435848.408 9
  20832441.440    20832445.649    -2947633.313 9    955135.889 8
 86  6 19 23 10  5.0800000  0  4G 6G 8G 9G11
  20811593.955    20811594.456    -2538728.889 9    919350.111 9
  21393893.952    21393895.392      998426.234 9   3495410.350 8
  22852994.397    22852998.099    -4231736.465 9   -449093.295 8
  20830934.911    20830937.480    -2955557.510 9    948961.184 8
 86  6 19 23 10 11.0800000  0  4G 6G 8G 9G11
  20810310.324    20810311.671    -2545472.220 9    914095.569 8
  21396554.630    21396556.875     1012410.189 8   3506306.939 8
  22849761.137    22849763.911    -4248733.054 8   -462337.374 8
  20829431.005    20829432.531    -2963458.606 8    942804.498 7
 86  6 19 23 10 17.0800000  0  4G 6G 8G 9G11
  20809028.438    20809030.644    -2552204.674 9    908849.501 8
  21399218.155    21399220.385     1026414.898 9   3517219.698 8
  22846527.632    22846529.964    -4265728.617 8   -475580.668 9
  20827932.013    20827934.751    -2971336.519 8    936665.868 8
 86  6 19 23 10 23.0800000  0  4G 6G 8G 9G11
  20807748.641    20807750.148    -2558926.282 9    903611.879 9
  21401887.295    21401890.169     1040440.240 9   3528148.534 9
  22843293.509    22843296.045    -4282723.136 8   -488823.130 9
  20826437.411    20826440.578    -2979191.269 9    930545.281 8
 86  6 19 23 10 29.0800000  0  4G 6G 8G 9G11
  20806471.790    20806473.430    -2565637.057 9    898382.721 8
  21404559.948    21404563.119     1054486.268 9   3539093.494 8
  22840060.217    22840061.652    -4299716.625 8   -502064.813 8
  20824947.317    20824950.306    -2987022.888 8    924442.726 8
 86  6 19 23 10 35.0800000  0  4G 6G 8G 9G11
  20805196.756    20805197.886    -2572336.951 9    893162.012 8
  21407238.686    21407240.259     1068552.953 9   3550054.538 9
  22836827.780    22836828.287    -4316709.084 8   -515305.700 8
  20823461.567    20823462.996    -2994831.306 9    918358.255 7
 86  6 19 23 10 41.0800000  0  4G 6G 8G 9G11
  20803924.229    20803924.755    -2579025.989 9    887949.784 9
  21409918.478    21409921.627     1082640.195 9   3561031.597 9
  22833593.079    22833594.965    -4333700.504 8   -528545.755 8
  20821979.476    20821982.419    -3002616.596 8    912291.804 8
 86  6 19 23 10 47.0800000  0  4G 6G 8G 9G11
  20802653.331    20802653.345    -2585704.061 9    882746.089 8
  21412603.330    21412606.317     1096748.050 9   3572024.732 8
  22830360.851    22830362.539    -4350690.782 8   -541784.925 9
  20820502.215    20820504.599    -3010378.700 9    906243.412 7
 86  6 19 23 10 53.0800000  0  4G 6G 8G 9G11
  20801384.719    20801386.243    -2592371.221 9    877550.893 8
  21415292.195    21415294.610     1110876.462 9   3583033.873 9
  22827126.974    22827129.528    -4367679.971 9   -555023.260 9
  20819031.507    20819030.534    -3018117.591 8    900213.098 8
 86  6 19 23 10 59.0800000  0  4G 6G 8G 9G11
  20800118.047    20800120.402    -2599027.471 9    872364.203 9
  21417984.426    21417987.372     1125025.456 9   3594059.065 9
  22823892.763    22823896.224    -4384668.048 8   -568260.705 9
  20817563.538    20817560.494    -3025833.324 8    894200.853 7
 86  6 19 23 11  5.0800000  0  4G 6G 8G 9G11
  20798853.142    20798854.975    -2605672.763 8    867186.048 8
  21420681.941    21420682.539     1139194.969 9   3605100.237 8
  22820661.258    22820663.678    -4401655.048 8   -581497.315 8
  20816099.268    20816099.829    -3033525.847 9    888206.681 7
 86  6 19 23 11 11.0800000  0  4G 6G 8G 9G11
  20797590.585    20797592.798    -2612307.136 9    862016.402 8
  21423382.326    21423382.056     1153384.933 9   3616157.364 8
  22817428.598    22817431.453    -4418640.920 9   -594733.062 9
  20814639.493    20814638.724    -3041195.172 8    882230.575 7
 86  6 19 23 11 17.0800000  0  4G 6G 8G 9G11
  20796329.574    20796333.144    -2618930.529 9    856855.325 9
  21426086.274    21426087.063     1167595.347 9   3627230.407 8
  22814197.528    22814199.277    -4435625.675 8   -607967.930 8
  20813185.050    20813184.989    -3048841.271 8    876272.574 6
 86  6 19 23 11 23.0800000  0  4G 6G 8G 9G11
  20795071.532    20795074.632    -2625542.893 8    851702.835 8
  21428793.928    21428795.216     1181826.251 9   3638319.425 9
  22810964.986    22810967.010    -4452609.248 8   -621201.871 9
  20811733.297    20811733.306    -3056464.204 9    870332.629 8
 86  6 19 23 11 29.0800000  0  4G 6G 8G 9G11
  20793816.340    20793818.566    -2632144.226 9    846558.948 9
  21431505.669    21431506.836     1196077.594 9   3649424.373 8
  22807733.055    22807735.993    -4469591.531 8   -634434.830 8
  20810287.427    20810288.307    -3064063.947 9    864410.759 8
 86  6 19 23 11 35.0800000  0  4G 6G 8G 9G11
  20792562.238    20792564.202    -2638734.525 9    841423.645 9
  21434222.496    21434222.716     1210349.260 9   3660545.139 8
  22804501.515    22804503.719    -4486572.706 8   -647666.906 8
  20808844.912    20808845.059    -3071640.523 8    858506.925 7
 86  6 19 23 11 41.0800000  0  4G 6G 8G 9G11
  20791310.720    20791311.503    -2645313.781 9    836296.967 8
  21436940.338    21436941.958     1224641.299 9   3671681.785 8
  22801270.280    22801273.603    -4503552.708 9   -660898.085 9
  20807406.790    20807408.980    -3079193.908 8    852621.171 7
 86  6 19 23 11 47.0800000  0  4G 6G 8G 9G11
  20790061.396    20790061.910    -2651881.923 9    831178.920 8
  21439663.580    21439665.102     1238953.734 9   3682834.326 7
  22798038.727    22798043.258    -4520531.510 9   -674128.317 8
  20805972.740    20805975.214    -3086724.055 8    846753.525 7
 86  6 19 23 11 53.0800000  0  4G 6G 8G 9G11
  20788812.840    20788813.410    -2658438.983 9    826069.527 9
  21442390.981    21442392.612     1253286.465 9   3694002.669 8
  22794808.614    22794810.951    -4537509.055 9   -687357.567 9
  20804544.722    20804548.262    -3094230.961 9    840903.979 8
 86  6 19 23 11 59.0800000  0  4G 6G 8G 9G11
  20787566.445    20787568.931    -2664984.911 9    820968.804 8
  21445121.732    21445124.460     1267639.474 9   3705186.827 8
  22791579.831    22791580.638    -4554485.355 9   -700585.850 9
  20803120.599    20803123.639    -3101714.632 8    835072.568 7
 86  6 19 23 12  5.0800000  0  4G 6G 8G 9G11
  20786323.320    20786324.535    -2671519.721 9    815876.739 8
  21447856.474    21447858.691     1282012.763 9   3716386.791 8
  22788347.239    22788351.147    -4571460.376 9   -713813.134 9
  20801700.790    20801704.264    -3109175.093 9    829259.226 8
 86  6 19 23 12 11.0800000  0  4G 6G 8G 9G11
  20785081.414    20785083.293    -2678043.394 9    810793.357 9
  21450596.912    21450598.475     1296406.327 9   3727602.548 8
  22785118.255    22785121.436    -4588434.058 9   -727039.394 8
  20800286.259    20800288.862    -3116612.274 8    823464.004 8
 86  6 19 23 12 17.0800000  0  4G 6G 8G 9G11
  20783841.465    20783843.606    -2684555.888 9    805718.697 9
  21453338.514    21453341.741     1310820.126 9   3738834.072 8
  22781889.035    22781891.361    -4605406.458 9   -740264.621 8
  20798874.754    20798879.090    -3124026.144 9    817686.982 7
 86  6 19 23 12 23.0800000  0  4G 6G 8G 9G11
  20782604.590    20782606.334    -2691057.187 9    800652.744 9
  21456086.020    21456088.018     1325254.108 9   3750081.326 9
  22778659.747    22778663.072    -4622377.583 8   -753488.888 9
  20797469.593    20797471.680    -3131416.669 8    811928.130 7
 86  6 19 23 12 29.0800000  0  4G 6G 8G 9G11
  20781369.466    20781371.632    -2697547.302 9    795595.503 8
  21458836.359    21458839.503     1339708.292 9   3761344.317 9
  22775429.886    22775433.185    -4639347.428 9   -766712.128 9
  20796067.788    20796070.655    -3138783.960 8    806187.396 8
 86  6 19 23 12 35.0800000  0  4G 6G 8G 9G11
  20780137.725    20780137.649    -2704026.231 9    790546.986 9
  21461591.352    21461592.733     1354182.623 9   3772623.016 9
  22772200.434    22772204.229    -4656315.946 9   -779934.346 9
  20794670.927    20794673.281    -3146127.949 8    800464.819 7
 86  6 19 23 12 41.0800000  0  4G 6G 8G 9G11
  20778906.402    20778908.204    -2710493.864 9    785507.270 8
  21464349.875    21464351.889     1368677.059 9   3783917.379 8
  22768972.503    22768974.269    -4673283.130 9   -793155.520 8
  20793278.259    20793279.491    -3153448.684 8    794760.362 8
 86  6 19 23 12 47.0800000  0  4G 6G 8G 9G11
  20777676.904    20777679.216    -2716950.258 9    780476.305 7
  21467112.379    21467112.822     1383191.624 9   3795227.421 8
  22765744.721    22765746.214    -4690248.865 9   -806375.573 8
  20791890.201    20791891.026    -3160746.102 8    789074.055 8
 86  6 19 23 12 53.0800000  0  4G 6G 8G 9G11
  20776452.055    20776452.612    -2723395.433 9    775454.094 8
  21469878.444    21469879.756     1397726.263 9   3806553.119 8
  22762515.677    22762517.111    -4707213.300 9   -819594.609 9
  20790504.758    20790506.826    -3168020.225 9    783405.914 7
 86  6 19 23 12 59.0800000  0  4G 6G 8G 9G11
  20775226.959    20775228.468    -2729829.350 9    770440.655 8
  21472647.813    21472650.332     1412280.977 9   3817894.424 8
  22759287.851    22759289.637    -4724176.395 9   -832812.597 8
  20789125.065    20789127.366    -3175270.994 9    777755.966 7
 86  6 19 23 13  5.0800000  0  4G 6G 8G 9G11
  20774004.038    20774005.662    -2736251.955 9    765436.025 8
  21475421.192    21475423.423     1426855.682 9   3829251.352 8
  22756061.230    22756062.091    -4741138.097 9   -846029.501 9
  20787748.987    20787751.287    -3182498.398 8    772124.224 8
 86  6 19 23 13 11.0800000  0  4G 6G 8G 9G11
  20772784.803    20772785.655    -2742663.235 9    760440.226 9
  21478198.877    21478200.666     1441450.398 9   3840623.843 9
  22752834.421    22752834.902    -4758098.424 9   -859245.347 8
  20786379.341    20786378.723    -3189702.463 9    766510.652 7
 86  6 19 23 13 17.0800000  0  4G 6G 8G 9G11
  20771566.982    20771569.643    -2749063.204 9    755453.235 9
  21480980.054    21480980.940     1456065.160 9   3852011.966 8
  22749605.991    22749607.469    -4775057.287 9   -872460.030 8
  20785012.873    20785012.948    -3196883.239 7    760915.256 8
 86  6 19 23 13 23.0800000  0  4G 6G 8G 9G11
  20770352.057    20770352.505    -2755451.766 8    750475.131 9
  21483765.052    21483765.480     1470699.833 9   3863415.598 9
  22746379.153    22746380.876    -4792014.640 9   -885673.554 8
  20783650.246    20783650.369    -3204040.691 9    755338.037 7
 86  6 19 23 13 29.0800000  0  4G 6G 8G 9G11
  20769138.288    20769138.528    -2761828.938 9    745505.911 8
  21486553.940    21486554.286     1485354.458 9   3874834.788 8
  22743152.803    22743153.765    -4808970.641 9   -898886.021 8
  20782292.819    20782294.602    -3211174.781 9    749778.995 8
 86  6 19 23 13 35.0800000  0  4G 6G 8G 9G11
  20767926.724    20767927.029    -2768194.756 9    740545.540 8
  21489346.253    21489346.746     1500029.002 9   3886269.482 8
  22739925.851    22739927.542    -4825925.158 9   -912097.327 8
  20780939.275    20780940.624    -3218285.527 9    744238.162 7
 86  6 19 23 13 41.0800000  0  4G 6G 8G 9G11
  20766717.888    20766718.496    -2774549.169 9    735594.040 8
  21492142.512    21492143.796     1514723.410 9   3897719.681 8
  22736700.231    22736700.607    -4842878.158 9   -925307.451 8
  20779590.383    20779592.535    -3225372.934 8    738715.508 8
 86  6 19 23 13 47.0800000  0  4G 6G 8G 9G11
  20765511.154    20765510.635    -2780892.196 9    730651.418 9
  21494941.741    21494943.300     1529437.683 9   3909185.333 9
  22733473.938    22733474.357    -4859829.629 8   -938516.372 8
  20778247.201    20778248.175    -3232436.972 8    733211.062 8
 86  6 19 23 13 53.0800000  0  4G 6G 8G 9G11
  20764306.589    20764306.668    -2787223.815 9    725717.692 9
  21497745.158    21497746.416     1544171.789 9   3920666.457 9
  22730249.075    22730250.170    -4876779.607 9   -951724.155 8
  20776907.269    20776909.207    -3239477.626 9    727724.836 7
 86  6 19 23 13 59.0800000  0  4G 6G 8G 9G11
  20763104.639    20763103.960    -2793544.011 9    720792.873 9
  21500552.545    21500554.139     1558925.665 9   3932162.968 8
  22727023.656    22727022.366    -4893728.150 8   -964930.796 8
  20775571.669    20775573.532    -3246494.927 9    722256.809 7
 86  6 19 23 14  5.0800000  0  4G 6G 8G 9G11
  20761903.028    20761902.232    -2799852.664 9    715877.036 8
  21503363.107    21503364.578     1573699.344 9   3943674.923 9
  22723798.018    22723799.365    -4910675.191 9   -978136.301 8
  20774241.259    20774243.541    -3253488.821 9    716807.024 7
 86  6 19 23 14 11.0800000  0  4G 6G 8G 9G11
  20760704.129    20760704.537    -2806149.871 8    710970.120 8
  21506179.637    21506180.849     1588492.749 9   3955202.238 9
  22720574.853    22720574.007    -4927620.707 9   -991340.583 8
  20772915.368    20772915.961    -3260459.353 7    711375.451 8
 86  6 19 23 14 17.0800000  0  4G 6G 8G 9G11
  20759507.876    20759508.750    -2812435.566 9    706072.176 9
  21508997.262    21509000.905     1603305.877 8   3966744.923 8
  22717348.967    22717350.064    -4944564.675 9  -1004543.671 7
  20771591.531    20771594.073    -3267406.509 8    705962.092 8
 86  6 19 23 14 23.0800000  0  4G 6G 8G 9G11
  20758313.773    20758314.751    -2818709.770 8    701183.190 7
  21511820.878    21511822.308     1618138.667 8   3978302.943 8
  22714125.888    22714126.448    -4961507.044 9  -1017745.517 8
  20770273.416    20770275.576    -3274330.227 9    700566.979 7
 86  6 19 23 14 29.0800000  0  4G 6G 8G 9G11
  20757122.275    20757123.527    -2824972.430 9    696303.194 9
  21514646.684    21514648.945     1632991.179 9   3989876.328 9
  22710903.333    22710903.443    -4978447.817 9  -1030946.118 8
  20768959.967    20768963.502    -3281230.554 8    695190.112 8
 86  6 19 23 14 35.0800000  0  4G 6G 8G 9G11
  20755932.197    20755933.512    -2831223.563 9    691432.176 8
  21517475.997    21517479.101     1647863.370 8   4001465.042 8
  22707678.474    22707679.270    -4995386.968 8  -1044145.449 8
  20767650.751    20767654.312    -3288107.413 8    689831.512 8
 86  6 19 23 14 41.0800000  0  4G 6G 8G 9G11
  20754745.639    20754746.585    -2837463.079 9    686570.214 9
  21520310.994    21520313.094     1662755.186 9   4013069.052 9
  22704456.133    22704455.932    -5012324.420 9  -1057343.462 8
  20766348.253    20766349.507    -3294960.916 8    684491.119 7
 86  6 19 23 14 47.0800000  0  4G 6G 8G 9G11
  20753560.454    20753561.967    -2843690.989 9    681717.293 8
  21523148.102    21523149.977     1677666.633 9   4024688.351 9
  22701232.354    22701233.989    -5029260.280 8  -1070540.234 8
  20765048.443    20765050.204    -3301791.029 8    679168.972 7
 86  6 19 23 14 53.0800000  0  4G 6G 8G 9G11
  20752377.546    20752378.207    -2849907.343 9    676873.379 8
  21525989.749    21525991.094     1692597.644 9   4036322.900 9
  22698010.589    22698012.423    -5046194.534 8  -1083735.756 8
  20763752.600    20763756.605    -3308597.678 8    673865.077 7
 86  6 19 23 14 59.0800000  0  4G 6G 8G 9G11
  20751197.841    20751196.772    -2856112.073 8    672038.529 8
  21528834.504    21528836.218     1707548.219 9   4047972.685 9
  22694787.017    22694789.730    -5063127.174 8  -1096930.021 8
  20762462.379    20762464.819    -3315380.891 8    668579.470 8
 86  6 19 23 15  5.0800000  0  4G 6G 8G 9G11
  20750017.636    20750019.723    -2862305.169 9    667212.745 9
  21531683.777    21531685.353     1722518.308 9   4059637.684 8
  22691565.109    22691567.881    -5080058.150 8  -1110122.981 8
  20761176.806    20761178.933    -3322140.658 9    663312.107 8
 86  6 19 23 15 11.0800000  0  4G 6G 8G 9G11
  20748841.654    20748842.732    -2868486.646 9    662396.004 8
  21534536.828    21534538.548     1737507.916 9   4071317.893 8
  22688343.471    22688347.200    -5096987.384 9  -1123314.594 9
  20759894.645    20759897.970    -3328876.983 8    658063.040 8
 86  6 19 23 15 17.0800000  0  4G 6G 8G 9G11
  20747667.717    20747669.499    -2874656.402 9    657588.407 9
  21537392.945    21537393.572     1752516.986 9   4083013.264 9
  22685121.505    22685125.236    -5113914.937 9  -1136504.874 8
  20758616.759    20758620.186    -3335589.878 9    652832.217 8
 86  6 19 23 15 23.0800000  0  4G 6G 8G 9G11
  20746495.690    20746497.292    -2880814.499 9    652789.882 9
  21540252.423    21540253.351     1767545.485 9   4094723.791 8
  22681900.594    22681904.860    -5130840.754 9  -1149693.815 8
  20757344.712    20757346.987    -3342279.331 8    647619.656 8
 86  6 19 23 15 29.0800000  0  4G 6G 8G 9G11
  20745324.953    20745327.383    -2886960.871 9    648000.509 9
  21543116.505    21543117.046     1782593.492 9   4106449.501 8
  22678681.242    22678684.114    -5147764.891 8  -1162881.437 8
  20756076.373    20756078.596    -3348945.350 8    642425.353 8
 86  6 19 23 15 35.0800000  0  4G 6G 8G 9G11
  20744159.313    20744158.978    -2893095.516 9    643220.264 8
  21545982.150    21545984.577     1797660.863 9   4118190.310 8
  22675462.189    22675464.642    -5164687.305 8  -1176067.713 9
  20754810.218    20754813.815    -3355587.837 8    637249.394 9
 86  6 19 23 15 41.0800000  0  4G 6G 8G 9G11
  20742994.186    20742994.212    -2899218.453 9    638449.145 9
  21548854.047    21548855.088     1812747.607 9   4129946.210 8
  22672242.997    22672244.204    -5181607.994 9  -1189252.664 8
  20753551.889    20753553.754    -3362206.853 9    632091.726 8
 86  6 19 23 15 47.0800000  0  4G 6G 8G 9G11
  20741831.448    20741831.416    -2905329.614 9    633687.194 9
  21551728.962    21551729.663     1827853.699 9   4141717.182 8
  22669021.873    22669023.687    -5198526.825 9  -1202436.151 9
  20752296.839    20752298.934    -3368802.470 8    626952.299 7
 86  6 19 23 15 53.0800000  0  4G 6G 8G 9G11
  20740670.521    20740670.680    -2911429.064 9    628934.381 8
  21554606.867    21554609.558     1842979.135 9   4153503.224 8
  22665802.916    22665804.218    -5215443.919 8  -1215618.304 9
  20751045.979    20751047.614    -3375374.599 8    621831.150 8
 86  6 19 23 15 59.0800000  0  4G 6G 8G 9G11
  20739511.889    20739512.536    -2917516.661 9    624190.793 8
  21557489.126    21557490.395     1858123.855 8   4165304.304 9
  22662582.962    22662585.794    -5232359.286 9  -1228799.104 8
  20749798.617    20749802.709    -3381923.248 8    616728.307 7
 86  6 19 23 16  5.0800000  0  4G 6G 8G 9G11
  20738356.016    20738356.996    -2923592.485 9    619456.377 8
  21560374.771    21560376.162     1873287.859 9   4177120.398 9
  22659364.669    22659366.610    -5249272.835 9  -1241978.493 9
  20748558.840    20748561.924    -3388448.445 8    611643.739 8
 86  6 19 23 16 11.0800000  0  4G 6G 8G 9G11
  20737201.915    20737202.458    -2929656.525 9    614731.155 8
  21563264.252    21563266.216     1888471.095 9   4188951.494 9
  22656145.111    22656149.470    -5266184.559 8  -1255156.450 8
  20747320.735    20747323.706    -3394950.159 8    606577.478 8
 86  6 19 23 16 17.0800000  0  4G 6G 8G 9G11
  20736049.510    20736050.367    -2935708.681 9    610015.186 9
  21566156.662    21566158.076     1903673.597 9   4200797.576 8
  22652929.244    22652931.124    -5283094.377 9  -1268332.921 8
  20746088.017    20746090.372    -3401428.371 8    601529.532 7
 86  6 19 23 16 23.0800000  0  4G 6G 8G 9G11
  20734900.791    20734901.863    -2941748.980 9    605308.455 9
  21569052.150    21569053.797     1918895.284 9   4212658.624 8
  22649711.507    22649712.587    -5300002.330 9  -1281507.940 8
  20744859.401    20744863.326    -3407883.075 8    596499.893 8
 86  6 19 23 16 29.0800000  0  4G 6G 8G 9G11
  20733752.662    20733754.398    -2947777.424 9    600610.977 8
  21571953.615    21571955.469     1934136.112 9   4224534.590 9
  22646493.865    22646494.366    -5316908.523 8  -1294681.592 9
  20743635.680    20743636.614    -3414314.283 8    591488.558 8
 86  6 19 23 16 35.0800000  0  4G 6G 8G 9G11
  20732607.720    20732609.516    -2953793.956 9    595922.760 8
  21574856.790    21574859.947     1949396.118 8   4236425.503 9
  22643277.786    22643278.377    -5333812.802 9  -1307853.750 8
  20742416.545    20742419.235    -3420721.949 8    586495.576 8
 86  6 19 23 16 41.0800000  0  4G 6G 8G 9G11
  20731466.648    20731466.876    -2959798.590 9    591243.834 8
  21577763.433    21577766.491     1964675.303 9   4248331.355 9
  22640060.313    22640062.574    -5350715.203 9  -1321024.444 8
  20741201.219    20741203.994    -3427106.140 8    581520.897 7
 86  6 19 23 16 47.0800000  0  4G 6G 8G 9G11
  20730324.780    20730326.127    -2965791.250 9    586574.215 8
  21580675.648    21580677.439     1979973.523 9   4260252.037 9
  22636846.036    22636846.942    -5367615.773 9  -1334193.723 8
  20739990.567    20739993.542    -3433466.815 8    576564.524 7
 86  6 19 23 16 53.0800000  0  4G 6G 8G 9G11
  20729187.479    20729188.251    -2971772.046 9    581913.854 7
  21583590.676    21583592.416     1995290.825 9   4272187.591 9
  22633628.815    22633632.026    -5384514.335 9  -1347361.431 7
  20738785.570    20738787.651    -3439803.949 8    571626.500 7
 86  6 19 23 16 59.0800000  0  4G 6G 8G 9G11
  20728051.296    20728051.990    -2977740.860 8    577262.824 9
  21586509.412    21586510.690     2010627.181 9   4284138.001 8
  22630414.480    22630416.641    -5401410.926 9  -1360527.594 8
  20737582.681    20737584.671    -3446117.548 8    566706.819 7
 86  6 19 23 17  5.0800000  0  4G 6G 8G 9G11
  20726916.421    20726918.830    -2983697.725 9    572621.118 8
  21589432.029    21589433.310     2025982.581 9   4296103.234 9
  22627199.240    22627201.913    -5418305.623 9  -1373692.293 7
  20736386.796    20736388.075    -3452407.600 9    561805.481 8
 86  6 19 23 17 11.0800000  0  4G 6G 8G 9G11
  20725785.366    20725788.006    -2989642.549 9    567988.784 9
  21592356.099    21592358.539     2041356.983 9   4308083.284 9
  22623985.211    22623986.589    -5435198.359 9  -1386855.447 8
  20735194.261    20735196.623    -3458674.062 9    556922.511 8
 86  6 19 23 17 17.0800000  0  4G 6G 8G 9G11
  20724656.920    20724659.073    -2995575.363 9    563365.800 8
  21595285.446    21595288.663     2056750.373 8   4320078.118 9
  22620770.590    22620772.019    -5452089.072 9  -1400017.067 8
  20734007.330    20734009.189    -3464916.929 8    552057.963 8
 86  6 19 23 17 23.0800000  0  4G 6G 8G 9G11
  20723531.427    20723531.289    -3001496.162 9    558752.193 8
  21598217.612    21598220.903     2072162.682 9   4332087.706 9
  22617556.831    22617557.214    -5468977.802 8  -1413177.106 8
  20732822.282    20732825.145    -3471136.253 8    547211.739 7
 86  6 19 23 17 29.0800000  0  4G 6G 8G 9G11
  20722405.866    20722407.691    -3007404.950 9    554147.945 8
  21601152.759    21601156.807     2087593.875 9   4344112.015 9
  22614342.850    22614344.489    -5485864.532 9  -1426335.574 8
  20731644.321    20731645.282    -3477332.002 9    542383.874 8
 86  6 19 23 17 35.0800000  0  4G 6G 8G 9G11
  20721284.844    20721284.960    -3013301.672 9    549553.103 9
  21604094.355    21604097.402     2103043.992 9   4356151.058 8
  22611129.216    22611131.341    -5502749.246 8  -1439492.498 8
  20730469.518    20730473.276    -3483504.221 8    537574.363 7
 86  6 19 23 17 41.0800000  0  4G 6G 8G 9G11
  20720165.195    20720165.515    -3019186.309 9    544967.665 9
  21607037.141    21607041.740     2118512.948 9   4368204.781 8
  22607916.767    22607918.616    -5519631.928 9  -1452647.820 8
  20729300.057    20729302.002    -3489652.900 8    532783.186 7
 86  6 19 23 17 47.0800000  0  4G 6G 8G 9G11
  20719047.876    20719048.252    -3025058.895 9    540391.624 8
  21609986.926    21609988.521     2134000.753 9   4380273.197 9
  22604703.825    22604706.482    -5536512.586 8  -1465801.570 8
  20728134.898    20728137.626    -3495778.003 8    528010.372 8
 86  6 19 23 17 53.0800000  0  4G 6G 8G 9G11
  20717932.618    20717933.175    -3030919.393 9    535825.003 9
  21612936.717    21612940.334     2149507.342 9   4392356.243 9
  22601492.566    22601495.094    -5553391.173 9  -1478953.706 9
  20726972.791    20726974.724    -3501879.561 9    523255.922 8
 86  6 19 23 17 59.0800000  0  4G 6G 8G 9G11
  20716820.107    20716821.379    -3036767.719 9    531267.878 8
  21615891.252    21615893.696     2165032.778 9   4404453.980 9
  22598280.620    22598284.209    -5570267.702 9  -1492104.244 9
  20725815.541    20725819.444    -3507957.522 8    518519.850 8
 86  6 19 23 18  5.0800000  0  4G 6G 8G 9G11
  20715710.875    20715710.669    -3042603.918 9    526720.188 9
  21618850.292    21618852.318     2180576.982 9   4416566.328 8
  22595070.849    22595071.983    -5587142.196 8  -1505253.180 8
  20724662.945    20724665.845    -3514011.911 8    513802.153 7
 86  6 19 23 18 11.0800000  0  4G 6G 8G 9G11
  20714601.088    20714601.900    -3048427.976 9    522181.957 9
  21621810.978    21621813.661     2196139.941 9   4428693.301 9
  22591860.314    22591861.181    -5604014.526 9  -1518400.446 8
  20723515.309    20723518.697    -3520042.647 8    509102.854 8
 86  6 19 23 18 17.0800000  0  4G 6G 8G 9G11
  20713494.667    20713496.366    -3054239.837 9    517653.245 9
  21624777.255    21624779.727     2211721.622 9   4440834.864 9
  22588650.250    22588651.317    -5620884.777 8  -1531546.093 8
  20722373.255    20722375.970    -3526049.855 8    504421.939 8
 86  6 19 23 18 23.0800000  0  4G 6G 8G 9G11
  20712391.075    20712391.902    -3060039.450 9    513134.056 8
  21627745.806    21627746.597     2227321.995 9   4452990.993 8
  22585440.177    22585440.667    -5637752.895 9  -1544690.088 9
  20721234.119    20721237.476    -3532033.468 9    499759.374 8
 86  6 19 23 18 29.0800000  0  4G 6G 8G 9G11
  20711287.944    20711291.593    -3065826.920 8    508624.343 9
  21630718.058    21630718.532     2242941.042 9   4465161.663 8
  22582231.293    22582232.329    -5654618.828 9  -1557832.363 8
  20720099.583    20720103.714    -3537993.521 8    495115.165 7
 86  6 19 23 18 35.0800000  0  4G 6G 8G 9G11
  20710189.117    20710191.252    -3071602.153 9    504124.162 8
  21633692.495    21633695.268     2258578.668 9   4477346.818 8
  22579020.447    22579022.475    -5671482.606 9  -1570972.980 9
  20718970.331    20718972.766    -3543929.945 8    490489.391 8
 86  6 19 23 18 41.0800000  0  4G 6G 8G 9G11
  20709092.032    20709094.901    -3077365.187 9    499633.477 8
  21636672.827    21636675.072     2274234.912 9   4489546.477 9
  22575812.122    22575813.723    -5688344.199 9  -1584111.871 9
  20717844.579    20717846.864    -3549842.741 9    485882.021 7
 86  6 19 23 18 47.0800000  0  4G 6G 8G 9G11
  20707998.821    20708000.960    -3083115.892 9    495152.412 8
  21639655.874    21639656.304     2289909.776 9   4501760.654 8
  22572605.007    22572606.575    -5705203.504 9  -1597248.993 7
  20716724.391    20716728.734    -3555731.934 8    481293.049 7
 86  6 19 23 18 53.0800000  0  4G 6G 8G 9G11
  20706907.322    20706908.165    -3088854.303 9    490680.924 8
  21642641.561    21642642.688     2305603.216 9   4513989.314 9
  22569395.725    22569397.801    -5722060.688 8  -1610384.433 8
  20715607.396    20715611.343    -3561597.502 8    476722.482 6
 86  6 19 23 18 59.0800000  0  4G 6G 8G 9G11
  20705816.760    20705818.863    -3094580.448 9    486218.995 9
  21645630.839    21645633.487     2321315.201 9   4526232.399 9
  22566189.630    22566192.167    -5738915.673 8  -1623518.197 8
  20714496.495    20714499.226    -3567439.471 8    472170.303 7
 86  6 19 23 19  5.0800000  0  4G 6G 8G 9G11
  20704730.320    20704731.934    -3100294.270 9    481766.660 9
  21648624.147    21648625.988     2337045.704 9   4538489.930 8
  22562982.524    22562984.666    -5755768.389 9  -1636650.191 8
  20713390.282    20713393.264    -3573257.830 9    467636.527 8
 86  6 19 23 19 11.0800000  0  4G 6G 8G 9G11
  20703644.814    20703646.293    -3105995.749 9    477323.951 9
  21651621.295    21651623.195     2352794.651 9   4550761.838 8
  22559775.668    22559777.739    -5772618.832 9  -1649780.385 8
  20712288.056    20712290.371    -3579052.548 8    463121.172 9
 86  6 19 23 19 17.0800000  0  4G 6G 8G 9G11
  20702562.507    20702563.728    -3111684.847 9    472890.883 9
  21654621.760    21654624.032     2368562.097 9   4563048.164 9
  22556569.801    22556571.369    -5789467.019 9  -1662908.818 9
  20711191.284    20711191.207    -3584823.624 8    458624.233 8
 86  6 19 23 19 23.0800000  0  4G 6G 8G 9G11
  20701481.544    20701483.865    -3117361.578 9    468467.460 8
  21657625.489    21657627.701     2384348.008 9   4575348.869 9
  22553364.355    22553366.191    -5806312.880 8  -1676035.456 9
  20710097.536    20710097.606    -3590570.993 8    454145.767 7
 86  6 19 23 19 29.0800000  0  4G 6G 8G 9G11
  20700405.986    20700407.015    -3123025.913 8    464053.694 9
  21660632.991    21660635.266     2400152.348 9   4587663.945 9
  22550157.633    22550159.902    -5823156.393 9  -1689160.268 9
  20709007.454    20709007.301    -3596294.773 8    449685.679 7
 86  6 19 23 19 35.0800000  0  4G 6G 8G 9G11
  20699331.217    20699330.709    -3128677.889 9    459649.571 9
  21663643.013    21663646.947     2415975.065 9   4599993.307 9
  22546954.034    22546955.453    -5839997.638 9  -1702283.301 9
  20707923.590    20707924.348    -3601994.937 9    445243.993 7
 86  6 19 23 19 41.0800000  0  4G 6G 8G 9G11
  20698257.489    20698257.826    -3134317.427 9    455255.116 9
  21666657.828    21666660.891     2431816.139 9   4612336.997 9
  22543749.309    22543752.487    -5856836.504 9  -1715404.492 9
  20706843.494    20706844.129    -3607671.432 8    440820.752 8
 86  6 19 23 19 47.0800000  0  4G 6G 8G 9G11
  20697186.343    20697186.630    -3139944.543 8    450870.345 9
  21669677.406    21669679.128     2447675.555 9   4624694.979 8
  22540545.532    22540547.089    -5873673.024 9  -1728523.854 9
  20705767.530    20705768.837    -3613324.294 9    436415.937 8
 86  6 19 23 19 53.0800000  0  4G 6G 8G 9G11
  20696116.662    20696118.264    -3145559.168 8    446495.319 9
  21672698.926    21672700.343     2463553.261 9   4637067.213 9
  22537341.379    22537343.579    -5890507.191 8  -1741641.379 8
  20704693.099    20704695.668    -3618953.478 8    432029.545 8
 86  6 19 23 19 59.0800000  0  4G 6G 8G 9G11
  20695050.598    20695051.826    -3151161.315 9    442130.009 8
  21675723.046    21675725.250     2479449.253 9   4649453.705 9
  22534137.751    22534140.300    -5907339.001 9  -1754757.056 8
  20703627.275    20703631.112    -3624559.035 9    427661.588 9
 86  6 19 23 20  5.0800000  0  4G 6G 8G 9G11
  20693986.229    20693989.275    -3156751.041 9    437774.379 9
  21678751.142    21678753.648     2495363.524 9   4661854.430 8
  22530934.918    22530937.440    -5924168.436 8  -1767870.883 9
  20702564.047    20702568.646    -3630140.895 8    423312.084 8
 86  6 19 23 20 11.0800000  0  4G 6G 8G 9G11
  20692925.854    20692926.578    -3162328.206 9    433428.542 8
  21681783.922    21681784.765     2511296.052 9   4674269.371 9
  22527732.874    22527736.036    -5940995.482 9  -1780982.858 8
  20701507.664    20701510.213    -3635699.096 8    418981.022 7
 86  6 19 23 20 17.0800000  0  4G 6G 8G 9G11
  20691866.637    20691868.693    -3167892.837 9    429092.460 8
  21684819.285    21684821.114     2527246.781 9   4686698.502 8
  22524532.369    22524534.399    -5957820.084 8  -1794092.941 9
  20700452.724    20700457.274    -3641233.622 8    414668.403 7
 86  6 19 23 20 23.0800000  0  4G 6G 8G 9G11
  20690810.149    20690811.115    -3173444.971 9    424766.123 8
  21687857.982    21687861.073     2543215.700 9   4699141.809 9
  22521330.086    22521333.013    -5974642.257 8  -1807201.125 9
  20699403.452    20699407.649    -3646744.492 8    410374.219 7
 86  6 19 23 20 29.0800000  0  4G 6G 8G 9G11
  20689756.568    20689757.314    -3178984.496 9    420449.604 8
  21690899.561    21690902.204     2559202.811 9   4711599.284 9
  22518128.968    22518132.707    -5991461.984 8  -1820307.393 9
  20698361.836    20698363.172    -3652231.736 7    406098.454 7
 86  6 19 23 20 35.0800000  0  4G 6G 8G 9G11
  20688704.477    20688705.695    -3184511.484 9    416142.875 8
  21693944.141    21693948.056     2575208.040 9   4724070.874 8
  22514930.005    22514931.506    -6008279.197 8  -1833411.709 7
  20697322.105    20697323.416    -3657695.233 8    401841.190 8
 86  6 19 23 20 41.0800000  0  4G 6G 8G 9G11
  20687655.647    20687657.234    -3190025.873 9    411845.937 8
  21696994.115    21696996.917     2591231.377 9   4736556.593 9
  22511730.469    22511732.215    -6025093.931 8  -1846514.102 9
  20696287.148    20696288.718    -3663135.018 7    397602.399 8
 86  6 19 23 20 47.0800000  0  4G 6G 8G 9G11
  20686608.495    20686610.033    -3195527.660 9    407558.825 9
  21700046.639    21700050.269     2607272.794 9   4749056.379 8
  22508530.441    22508533.145    -6041906.194 8  -1859614.559 9
  20695256.658    20695258.520    -3668551.115 8    393382.067 7
 86  6 19 23 20 53.0800000  0  4G 6G 8G 9G11
  20685564.227    20685564.580    -3201016.806 9    403281.582 8
  21703103.309    21703106.135     2623332.203 9   4761570.212 9
  22505333.389    22505335.581    -6058715.904 9  -1872713.038 8
  20694230.528    20694232.150    -3673943.494 8    389180.210 8
 86  6 19 23 20 59.0800000  0  4G 6G 8G 9G11
  20684521.642    20684522.202    -3206493.317 9    399014.166 9
  21706161.969    21706165.249     2639409.676 9   4774098.103 8
  22502134.759    22502136.557    -6075523.164 8  -1885809.586 8
  20693210.197    20693209.771    -3679312.232 9    384996.781 8
 86  6 19 23 21  5.0800000  0  4G 6G 8G 9G11
  20683481.250    20683482.369    -3211957.178 9    394756.616 8
  21709224.941    21709227.865     2655505.129 9   4786639.998 9
  22498936.249    22498937.830    -6092327.841 8  -1898904.139 8
  20692191.287    20692193.290    -3684657.259 8    380831.826 8
 86  6 19 23 21 11.0800000  0  4G 6G 8G 9G11
  20682443.867    20682445.353    -3217408.401 8    390508.895 8
  21712292.241    21712294.471     2671618.555 9   4799195.909 9
  22495739.368    22495741.096    -6109129.979 9  -1911996.698 8
  20691179.886    20691180.644    -3689978.611 9    376685.310 8
 86  6 19 23 21 17.0800000  0  4G 6G 8G 9G11
  20681408.082    20681410.304    -3222846.946 9    386271.081 9
  21715361.250    21715363.846     2687749.878 8   4811765.783 9
  22492540.948    22492544.230    -6125929.571 8  -1925087.273 9
  20690171.908    20690174.287    -3695276.277 8    372557.265 8
 86  6 19 23 21 23.0800000  0  4G 6G 8G 9G11
  20680375.868    20680377.384    -3228272.765 9    382043.171 8
  21718434.216    21718437.351     2703899.140 9   4824349.606 8
  22489344.215    22489347.768    -6142726.539 9  -1938175.817 8
  20689167.003    20689169.263    -3700550.251 9    368447.681 7
 86  6 19 23 21 29.0800000  0  4G 6G 8G 9G11
  20679346.293    20679347.600    -3233685.875 9    377825.164 7
  21721511.566    21721513.941     2720066.335 9   4836947.415 9
  22486149.176    22486152.020    -6159520.915 8  -1951262.338 9
  20688167.372    20688170.459    -3705800.483 9    364356.586 7
 86  6 19 23 21 35.0800000  0  4G 6G 8G 9G11
  20678319.265    20678319.201    -3239086.226 9    373617.099 9
  21724591.604    21724593.078     2736251.416 9   4849559.174 8
  22482954.690    22482957.154    -6176312.727 9  -1964346.842 8
  20687171.644    20687175.684    -3711027.016 8    360283.976 8
 86  6 19 23 21 41.0800000  0  4G 6G 8G 9G11
  20677293.662    20677293.789    -3244473.820 9    369418.971 8
  21727674.865    21727676.622     2752454.339 8   4862184.819 8
  22479760.801    22479761.853    -6193101.853 8  -1977429.278 8
  20686183.003    20686186.261    -3716229.853 8    356229.824 8
 86  6 19 23 21 47.0800000  0  4G 6G 8G 9G11
  20676271.717    20676272.654    -3249848.610 9    365230.829 8
  21730761.107    21730762.887     2768675.050 9   4874824.331 8
  22476566.096    22476567.494    -6209888.332 8  -1990509.643 8
  20685196.661    20685201.632    -3721408.971 8    352194.164 8
 86  6 19 23 21 53.0800000  0  4G 6G 8G 9G11
  20675250.607    20675251.584    -3255210.638 9    361052.630 9
  21733850.548    21733852.840     2784913.566 9   4887477.719 9
  22473371.617    22473373.633    -6226672.225 8  -2003587.990 8
  20684215.614    20684219.458    -3726564.344 8    348176.985 8
 86  6 19 23 21 59.0800000  0  4G 6G 8G 9G11
  20674233.092    20674233.815    -3260559.846 9    356884.413 8
  21736943.725    21736945.826     2801169.845 9   4900144.927 9
  22470177.850    22470180.312    -6243453.473 8  -2016664.294 8
  20683239.774    20683242.554    -3731696.035 8    344178.269 8
 86  6 19 23 22  5.0800000  0  4G 6G 8G 9G11
  20673217.797    20673219.470    -3265896.240 8    352726.184 9
  21740039.846    21740042.567     2817443.904 9   4912826.007 8
  22466984.751    22466985.993    -6260232.078 9  -2029738.522 8
  20682267.722    20682270.259    -3736804.044 8    340198.013 8
 86  6 19 23 22 11.0800000  0  4G 6G 8G 9G11
  20672203.619    20672205.787    -3271219.766 8    348577.992 8
  21743141.578    21743143.708     2833735.669 9   4925520.891 8
  22463793.079    22463795.632    -6277007.810 9  -2042810.517 9
  20681301.071    20681301.947    -3741888.321 9    336236.234 7
 86  6 19 23 22 17.0800000  0  4G 6G 8G 9G11
  20671193.401    20671196.044    -3276530.467 9    344439.781 9
  21746244.344    21746247.572     2850045.121 9   4938229.552 8
  22460601.451    22460604.135    -6293780.836 8  -2055880.398 8
  20680337.891    20680340.933    -3746948.892 8    332292.947 7
 86  6 19 23 22 23.0800000  0  4G 6G 8G 9G11
  20670185.983    20670187.613    -3281828.314 9    340311.593 9
  21749352.297    21749354.129     2866372.177 9   4950951.934 9
  22457408.123    22457411.562    -6310551.125 8  -2068948.152 8
  20679379.891    20679382.548    -3751985.759 9    328368.116 8
 86  6 19 23 22 29.0800000  0  4G 6G 8G 9G11
  20669179.068    20669181.390    -3287113.209 9    336193.496 8
  21752462.059    21752464.711     2882716.928 9   4963688.093 9
  22454219.231    22454220.480    -6327318.662 9  -2082013.751 9
  20678425.075    20678426.621    -3756998.863 7    324461.794 8
 86  6 19 23 22 35.0800000  0  4G 6G 8G 9G11
  20668177.235    20668178.106    -3292385.198 9    332085.457 8
  21755574.145    21755577.824     2899079.250 9   4976437.949 8
  22451028.624    22451032.163    -6344083.437 9  -2095077.215 7
  20677476.330    20677477.934    -3761988.257 8    320573.953 7
 86  6 19 23 22 41.0800000  0  4G 6G 8G 9G11
  20667176.135    20667176.601    -3297644.249 9    327987.488 9
  21758691.823    21758693.423     2915459.137 9   4989201.498 8
  22447838.889    22447841.762    -6360845.380 9  -2108138.464 8
  20676528.910    20676533.387    -3766953.926 9    316704.614 8
 86  6 19 23 22 47.0800000  0  4G 6G 8G 9G11
  20666178.023    20666178.500    -3302890.369 8    323899.605 8
  21761813.495    21761815.113     2931856.620 9   5001978.755 9
  22444650.019    22444652.645    -6377604.481 9  -2121197.485 9
  20675589.692    20675592.573    -3771895.820 8    312853.780 8
 86  6 19 23 22 53.0800000  0  4G 6G 8G 9G11
  20665182.447    20665181.836    -3308123.532 9    319821.816 8
  21764936.968    21764938.771     2948271.608 9   5014769.651 8
  22441462.191    22441463.313    -6394360.888 9  -2134254.428 9
  20674654.746    20674656.362    -3776813.917 9    309021.500 7
 86  6 19 23 22 59.0800000  0  4G 6G 8G 9G11
  20664188.176    20664188.009    -3313343.717 9    315754.144 9
  21768064.420    21768064.278     2964704.106 9   5027574.191 8
  22438273.426    22438275.715    -6411114.429 9  -2147309.145 9
  20673723.201    20673725.895    -3781708.252 8    305207.741 8
 86  6 19 23 23  5.0800000  0  4G 6G 8G 9G11
  20663197.115    20663197.323    -3318550.896 9    311696.592 8
  21771194.717    21771197.217     2981154.141 9   5040392.381 8
  22435085.821    22435088.400    -6427865.111 9  -2160361.622 8
  20672795.777    20672797.889    -3786578.862 8    301412.452 8
 86  6 19 23 23 11.0800000  0  4G 6G 8G 9G11
  20662209.569    20662209.444    -3323745.045 9    307649.210 9
  21774329.026    21774329.382     2997621.586 9   5053224.155 9
  22431899.673    22431901.408    -6444612.927 8  -2173411.857 8
  20671873.711    20671876.447    -3791425.738 8    297635.675 7
 86  6 19 23 23 17.0800000  0  4G 6G 8G 9G11
  20661223.516    20661223.519    -3328926.193 9    303611.948 9
  21777465.318    21777466.276     3014106.467 8   5066069.509 8
  22428712.711    22428713.917    -6461357.860 8  -2186459.845 8
  20670956.550    20670959.382    -3796248.851 9    293877.418 7
 86  6 19 23 23 23.0800000  0  4G 6G 8G 9G11
  20660239.645    20660239.298    -3334094.298 9    299584.858 9
  21780605.984    21780606.051     3030608.720 9   5078928.416 8
  22425524.842    22425528.421    -6478099.897 8  -2199505.570 9
  20670044.615    20670045.450    -3801048.208 8    290137.670 7
 86  6 19 23 23 29.0800000  0  4G 6G 8G 9G11
  20659259.304    20659260.503    -3339249.342 9    295567.945 8
  21783748.821    21783750.470     3047128.393 9   5091800.879 9
  22422340.064    22422342.344    -6494839.004 9  -2212549.025 9
  20669134.933    20669137.071    -3805823.787 9    286416.439 8
 86  6 19 23 23 35.0800000  0  4G 6G 8G 9G11
  20658281.157    20658280.956    -3344391.267 9    291561.256 9
  21786895.817    21786898.061     3063665.373 9   5104686.842 9
  22419156.794    22419157.502    -6511575.200 9  -2225590.211 9
  20668230.981    20668233.166    -3810575.635 9    282713.703 8
 86  6 19 23 23 41.0800000  0  4G 6G 8G 9G11
  20657304.240    20657305.470    -3349520.079 9    287564.760 8
  21790045.199    21790048.715     3080219.729 9   5117586.326 8
  22415972.906    22415973.884    -6528308.455 9  -2238629.108 9
  20667332.386    20667332.904    -3815303.756 8    279029.459 8
 86  6 19 23 23 47.0800000  0  4G 6G 8G 9G11
  20656331.415    20656332.143    -3354635.825 9    283578.469 9
  21793200.032    21793202.402     3096791.351 9   5130499.263 8
  22412789.467    22412790.982    -6545038.755 8  -2251665.691 9
  20666436.363    20666437.765    -3820008.079 8    275363.750 8
 86  6 19 23 23 53.0800000  0  4G 6G 8G 9G11
  20655360.233    20655361.225    -3359738.408 9    279602.442 9
  21796356.683    21796359.294     3113380.250 9   5143425.677 9
  22409606.072    22409605.736    -6561766.063 8  -2264699.969 9
  20665544.519    20665547.791    -3824688.658 9    271716.551 8
 86  6 19 23 23 59.0800000  0  4G 6G 8G 9G11
  20654391.862    20654392.629    -3364827.867 9    275636.618 7
  21799516.605    21799518.422     3129986.403 9   5156365.527 9
  22406423.015    22406424.787    -6578490.326 9  -2277731.854 9
  20664658.658    20664661.774    -3829345.413 8    268087.901 8
 86  6 19 23 24  5.0800000  0  4G 6G 8G 9G11
  20653424.531    20653427.387    -3369904.164 9    271681.062 8
  21802680.569    21802682.242     3146609.778 9   5169318.801 8
  22403240.937    22403242.496    -6595211.595 9  -2290761.401 9
  20663776.819    20663779.855    -3833978.449 8    264477.740 7
 86  6 19 23 24 11.0800000  0  4G 6G 8G 9G11
  20652462.220    20652462.612    -3374967.282 9    267735.787 9
  21805847.621    21805848.292     3163250.329 8   5182285.473 7
  22400060.197    22400061.268    -6611929.871 9  -2303788.628 9
  20662898.950    20662901.649    -3838587.737 8    260886.090 8
 86  6 19 23 24 17.0800000  0  4G 6G 8G 9G11
  20651501.381    20651501.728    -3380017.223 9    263800.766 8
  21809016.478    21809017.694     3179908.021 9   5195265.501 8
  22396878.933    22396880.270    -6628645.102 8  -2316813.473 9
  20662027.008    20662028.991    -3843173.273 8    257312.943 8
 86  6 19 23 24 23.0800000  0  4G 6G 8G 9G11
  20650541.561    20650544.131    -3385053.860 9    259876.107 8
  21812189.398    21812190.843     3196582.901 8   5208258.909 9
  22393698.915    22393700.235    -6645357.253 9  -2329835.931 9
  20661159.296    20661161.964    -3847735.075 9    253758.296 8
 86  6 19 23 24 29.0800000  0  4G 6G 8G 9G11
  20649585.833    20649587.615    -3390077.343 9    255961.710 9
  21815364.790    21815366.741     3213274.871 9   5221265.627 9
  22390518.819    22390520.283    -6662066.325 9  -2342855.968 9
  20660295.538    20660298.045    -3852273.125 9    250222.145 7
 86  6 19 23 24 35.0800000  0  4G 6G 8G 9G11
  20648633.510    20648634.470    -3395087.532 9    252057.660 9
  21818544.652    21818546.638     3229983.916 9   5234285.656 8
  22387339.100    22387342.596    -6678772.334 8  -2355873.645 8
  20659436.281    20659437.737    -3856787.439 8    246704.513 8
 86  6 19 23 24 41.0800000  0  4G 6G 8G 9G11
  20647681.209    20647683.080    -3400084.459 9    248163.956 9
  21821727.729    21821730.114     3246710.013 9   5247318.973 7
  22384161.257    22384163.880    -6695475.269 8  -2368888.913 8
  20658582.048    20658582.712    -3861277.961 8    243205.397 9
 86  6 19 23 24 47.0800000  0  4G 6G 8G 9G11
  20646733.369    20646734.630    -3405068.115 9    244280.588 9
  21824914.027    21824915.175     3263453.139 9   5260365.559 9
  22380982.213    22380985.521    -6712175.133 8  -2381901.791 9
  20657731.131    20657732.361    -3865744.676 9    239724.845 8
 86  6 19 23 24 53.0800000  0  4G 6G 8G 9G11
  20645787.857    20645789.688    -3410038.487 9    240407.575 7
  21828103.721    21828104.833     3280213.294 9   5273425.426 9
  22377805.429    22377808.249    -6728871.849 9  -2394912.222 8
  20656886.487    20656887.352    -3870187.611 9    236262.825 7
 86  6 19 23 24 59.0800000  0  4G 6G 8G 9G11
  20644844.853    20644846.629    -3414995.528 9    236544.958 9
  21831295.716    21831297.416     3296990.420 9   5286498.513 8
  22374629.533    22374631.987    -6745565.424 9  -2407920.194 9
  20656044.802    20656046.511    -3874606.716 8    232819.375 8
 86  6 19 23 25  5.0800000  0  4G 6G 8G 9G11
  20643905.746    20643904.102    -3419939.213 9    232692.735 8
  21834492.020    21834494.316     3313784.555 9   5299584.846 8
  22371453.397    22371455.721    -6762255.835 8  -2420925.707 8
  20655209.205    20655209.406    -3879002.104 8    229394.407 7
 86  6 19 23 25 11.0800000  0  4G 6G 8G 9G11
  20642965.810    20642966.198    -3424869.577 9    228850.893 9
  21837691.579    21837693.166     3330595.584 9   5312684.326 9
  22368277.262    22368280.797    -6778943.073 9  -2433928.746 9
  20654377.096    20654378.649    -3883373.682 8    225987.969 7
 86  6 19 23 25 17.0800000  0  4G 6G 8G 9G11
  20642029.851    20642030.187    -3429786.545 9    225019.488 8
  21840894.004    21840896.818     3347423.503 8   5325796.991 9
  22365103.897    22365106.415    -6795627.098 9  -2446929.279 8
  20653549.776    20653551.879    -3887721.492 9    222600.070 7
 86  6 19 23 25 23.0800000  0  4G 6G 8G 9G11
  20641096.343    20641096.727    -3434690.114 9    221198.527 8
  21844100.450    21844100.423     3364268.304 9   5338922.809 8
  22361930.108    22361931.254    -6812307.872 9  -2459927.285 8
  20652726.827    20652728.630    -3892045.568 8    219230.655 8
 86  6 19 23 25 29.0800000  0  4G 6G 8G 9G11
  20640166.142    20640167.609    -3439580.341 9    217387.963 8
  21847309.672    21847310.376     3381129.939 9   5352061.743 8
  22358754.962    22358757.418    -6828985.423 9  -2472922.786 9
  20651908.419    20651910.598    -3896345.850 9    215879.815 9
 86  6 19 23 25 35.0800000  0  4G 6G 8G 9G11
  20639238.899    20639239.375    -3444457.136 9    213587.863 9
  21850519.125    21850520.607     3398008.416 9   5365213.804 9
  22355581.988    22355585.723    -6845659.784 9  -2485915.775 9
  20651094.016    20651097.562    -3900622.340 8    212547.472 8
 86  6 19 23 25 41.0800000  0  4G 6G 8G 9G11
  20638312.998    20638314.288    -3449320.467 9    209798.250 8
  21853734.759    21853735.882     3414903.670 8   5378378.944 8
  22352409.627    22352412.126    -6862330.891 9  -2498906.248 8
  20650284.869    20650288.232    -3904875.069 9    209233.662 7
 86  6 19 23 25 47.0800000  0  4G 6G 8G 9G11
  20637390.232    20637390.421    -3454170.331 9    206019.136 8
  21856952.007    21856953.222     3431815.734 9   5391557.162 8
  22349236.878    22349239.875    -6878998.692 9  -2511894.142 8
  20649480.102    20649483.886    -3909104.001 7    205938.373 7
 86  6 19 23 25 53.0800000  0  4G 6G 8G 9G11
  20636470.117    20636471.304    -3459006.800 9    202250.456 9
  21860173.048    21860175.679     3448744.517 9   5404748.419 8
  22346065.961    22346069.595    -6895663.211 9  -2524879.481 9
  20648679.522    20648682.417    -3913309.158 9    202661.648 7
 86  6 19 23 25 59.0800000  0  4G 6G 8G 9G11
  20635551.233    20635552.676    -3463829.681 9    198492.356 9
  21863398.307    21863401.657     3465690.031 9   5417952.702 9
  22342896.030    22342897.738    -6912324.389 8  -2537862.209 8
  20647883.865    20647888.019    -3917490.535 8    199403.439 9
 86  6 19 23 26  5.0800000  0  4G 6G 8G 9G11
  20634637.350    20634637.752    -3468639.099 9    194744.765 8
  21866625.273    21866627.981     3482652.282 9   5431170.044 9
  22339725.663    22339729.426    -6928982.212 9  -2550842.325 9
  20647092.691    20647095.618    -3921648.110 9    196163.771 8
 86  6 19 23 26 11.0800000  0  4G 6G 8G 9G11
  20633723.319    20633725.659    -3473434.978 9    191007.716 8
  21869856.831    21869860.078     3499631.159 8   5444400.327 8
  22336556.276    22336559.317    -6945636.758 9  -2563819.886 9
  20646305.925    20646308.718    -3925781.866 8    192942.654 8
 86  6 19 23 26 17.0800000  0  4G 6G 8G 9G11
  20632813.672    20632814.833    -3478217.312 9    187281.217 8
  21873090.052    21873094.242     3516626.679 9   5457643.575 8
  22333388.602    22333390.605    -6962287.904 8  -2576794.813 9
  20645523.718    20645527.819    -3929891.792 8    189740.132 8
 86  6 19 23 26 23.0800000  0  4G 6G 8G 9G11
  20631906.830    20631907.538    -3482986.103 9    183565.273 8
  21876328.364    21876331.095     3533638.831 9   5470899.799 8
  22330220.786    22330222.860    -6978935.723 9  -2589767.122 9
  20644747.320    20644749.293    -3933977.839 9    186556.193 7
 86  6 19 23 26 29.0800000  0  4G 6G 8G 9G11
  20631001.304    20631002.622    -3487741.372 9    179859.873 8
  21879569.429    21879571.642     3550667.537 9   5484168.916 8
  22327052.625    22327055.619    -6995580.133 9  -2602736.790 9
  20643973.992    20643976.189    -3938040.108 9    183390.784 8
 86  6 19 23 26 35.0800000  0  4G 6G 8G 9G11
  20630099.276    20630099.108    -3492483.009 9    176165.085 8
  21882812.988    21882814.966     3567712.824 9   5497450.953 9
  22323885.995    22323888.161    -7012221.128 8  -2615703.797 9
  20643204.951    20643208.204    -3942078.588 8    180243.926 8
 86  6 19 23 26 41.0800000  0  4G 6G 8G 9G11
  20629198.649    20629201.220    -3497211.063 9    172480.887 9
  21886059.629    21886061.148     3584774.631 9   5510745.857 8
  22320719.810    22320722.232    -7028858.701 9  -2628668.144 9
  20642441.641    20642443.153    -3946093.292 8    177115.590 7
 86  6 19 23 26 47.0800000  0  4G 6G 8G 9G11
  20628302.183    20628304.335    -3501925.490 8    168807.305 9
  21889310.410    21889311.219     3601852.921 9   5524053.628 8
  22317554.972    22317557.374    -7045492.872 9  -2641629.837 7
  20641682.894    20641685.455    -3950084.238 8    174005.757 7
 86  6 19 23 26 53.0800000  0  4G 6G 8G 9G11
  20627407.155    20627408.856    -3506626.288 9    165144.343 7
  21892563.543    21892563.986     3618947.682 9   5537374.212 7
  22314390.981    22314392.826    -7062123.546 8  -2654588.795 8
  20640927.118    20640929.417    -3954051.387 9    170914.474 7
 86  6 19 23 26 59.0800000  0  4G 6G 8G 9G11
  20626515.720    20626517.177    -3511313.447 9    161492.015 8
  21895819.014    21895819.435     3636058.896 9   5550707.624 8
  22311226.532    22311228.700    -7078750.753 9  -2667545.063 7
  20640175.410    20640178.640    -3957994.759 8    167841.727 8
 86  6 19 23 27  5.0800000  0  4G 6G 8G 9G11
  20625627.566    20625628.675    -3515986.915 9    157850.349 9
  21899079.529    21899080.498     3653186.529 9   5564053.832 8
  22308062.334    22308063.980    -7095374.456 9  -2680498.606 9
  20639431.522    20639433.435    -3961914.361 8    164787.486 8
 86  6 19 23 27 11.0800000  0  4G 6G 8G 9G11
  20624739.715    20624740.335    -3520646.689 9    154219.370 8
  21902340.756    21902342.599     3670330.622 9   5577412.854 8
  22304900.320    22304902.286    -7111994.678 9  -2693449.420 8
  20638689.775    20638693.152    -3965810.146 8    161751.817 7
 86  6 19 23 27 17.0800000  0  4G 6G 8G 9G11
  20623856.265    20623855.886    -3525292.762 9    150599.049 8
  21905606.053    21905607.244     3687491.048 8   5590784.614 8
  22301737.769    22301740.532    -7128611.373 9  -2706397.508 8
  20637952.528    20637954.745    -3969682.170 8    158734.657 8
 86  6 19 23 27 23.0800000  0  4G 6G 8G 9G11
  20622974.190    20622976.360    -3529925.116 9    146989.423 8
  21908874.500    21908876.633     3704667.864 9   5604169.138 8
  22298577.190    22298578.940    -7145224.493 9  -2719342.788 9
  20637221.393    20637223.109    -3973530.344 8    155736.091 8
 86  6 19 23 27 29.0800000  0  4G 6G 8G 9G11
  20622095.204    20622097.083    -3534543.714 9    143390.516 9
  21912147.012    21912147.719     3721860.952 8   5617566.359 8
  22295416.731    22295418.335    -7161834.078 8  -2732285.309 8
  20636492.972    20636495.155    -3977354.724 8    152756.059 8
 86  6 19 23 27 35.0800000  0  4G 6G 8G 9G11
  20621217.885    20621220.450    -3539148.537 8    139802.336 9
  21915420.588    21915424.234     3739070.383 9   5630976.293 9
  22292255.999    22292259.053    -7178440.015 9  -2745225.006 7
  20635769.620    20635770.480    -3981155.245 9    149794.612 8
 86  6 19 23 27 41.0800000  0  4G 6G 8G 9G11
  20620345.070    20620347.418    -3543739.595 8    136224.894 9
  21918698.762    21918701.894     3756296.031 9   5644398.875 8
  22289096.253    22289098.709    -7195042.437 9  -2758161.952 9
  20635051.816    20635051.835    -3984931.987 8    146851.700 7
 86  6 19 23 27 47.0800000  0  4G 6G 8G 9G11
  20619473.371    20619476.295    -3548316.878 8    132658.178 8
  21921980.245    21921982.475     3773537.998 8   5657834.170 8
  22285937.588    22285940.703    -7211641.250 9  -2771096.081 9
  20634337.558    20634337.806    -3988684.912 8    143927.343 7
 86  6 19 23 27 53.0800000  0  4G 6G 8G 9G11
  20618605.450    20618607.775    -3552880.332 9    129102.244 9
  21925263.804    21925266.569     3790796.123 8   5671282.046 7
  22282780.452    22282782.058    -7228236.436 8  -2784027.404 9
  20633627.317    20633628.448    -3992414.065 8    141021.525 7
 86  6 19 23 27 59.0800000  0  4G 6G 8G 9G11
  20617739.377    20617741.485    -3557429.973 9    125557.059 8
  21928552.285    21928553.626     3808070.462 9   5684742.576 9
  22279623.387    22279625.386    -7244828.081 8  -2796955.943 8
  20632922.515    20632923.756    -3996119.401 9    138134.235 7
 86  6 19 23 28  5.0800000  0  4G 6G 8G 9G11
  20616877.678    20616877.690    -3561965.784 9    122022.670 9
  21931842.612    21931845.030     3825360.911 9   5698215.653 8
  22276468.400    22276467.681    -7261416.056 9  -2809881.632 9
  20632222.947    20632222.432    -3999800.992 9    135265.461 8
 86  6 19 23 28 11.0800000  0  4G 6G 8G 9G11
  20616014.833    20616018.415    -3566487.736 9    118499.065 9
  21935135.714    21935137.230     3842667.533 9   5711701.327 9
  22273311.586    22273311.623    -7278000.342 9  -2822804.451 9
  20631524.895    20631528.066    -4003458.832 7    132415.195 8
 86  6 19 23 28 17.0800000  0  4G 6G 8G 9G11
  20615157.781    20615159.769    -3570995.761 9    114986.315 9
  21938432.207    21938433.350     3859990.269 9   5725199.549 9
  22270155.458    22270155.162    -7294580.909 9  -2835724.375 7
  20630834.251    20630836.331    -4007092.798 7    129583.533 7
 86  6 19 23 28 23.0800000  0  4G 6G 8G 9G11
  20614302.642    20614305.011    -3575489.959 9    111484.345 8
  21941731.292    21941733.738     3877329.094 9   5738710.326 9
  22267001.805    22267001.807    -7311157.752 9  -2848641.395 8
  20630145.919    20630148.125    -4010702.964 8    126770.423 7
 86  6 19 23 28 29.0800000  0  4G 6G 8G 9G11
  20613450.649    20613452.865    -3579970.230 9    107993.216 9
  21945033.670    21945036.469     3894683.948 9   5752233.577 9
  22263848.360    22263848.484    -7327730.903 9  -2861555.513 9
  20629464.117    20629463.712    -4014289.335 8    123975.853 7
 86  6 19 23 28 35.0800000  0  4G 6G 8G 9G11
  20612600.986    20612602.186    -3584436.587 9    104512.948 8
  21948339.934    21948341.917     3912054.845 9   5765769.333 8
  22260694.084    22260694.484    -7344300.323 9  -2874466.767 9
  20628785.403    20628788.137    -4017851.950 9    121199.790 7
 86  6 19 23 28 41.0800000  0  4G 6G 8G 9G11
  20611752.520    20611755.995    -3588889.022 9    101043.504 9
  21951648.574    21951650.627     3929441.720 9   5779317.556 8
  22257542.379    22257541.760    -7360866.046 9  -2887375.125 9
  20628112.138    20628115.821    -4021390.755 8    118442.283 7
 86  6 19 23 28 47.0800000  0  4G 6G 8G 9G11
  20610908.883    20610909.979    -3593327.470 9     97584.975 8
  21954959.950    21954961.467     3946844.618 9   5792878.242 9
  22254390.061    22254392.307    -7377427.943 8  -2900280.497 8
  20627444.283    20627446.422    -4024905.753 8    115703.333 7
 86  6 19 23 28 53.0800000  0  4G 6G 8G 9G11
  20610066.598    20610068.114    -3597751.947 8     94137.341 8
  21958274.760    21958276.815     3964263.451 9   5806451.369 8
  22251239.418    22251241.787    -7393986.056 8  -2913182.904 9
  20626780.210    20626781.660    -4028396.983 9    112982.897 9
 86  6 19 23 28 59.0800000  0  4G 6G 8G 9G11
  20609226.483    20609228.336    -3602162.458 9     90700.575 9
  21961591.719    21961592.546     3981698.218 9   5820036.891 9
  22248088.321    22248090.281    -7410540.327 7  -2926082.327 9
  20626121.482    20626122.742    -4031864.374 9    110281.034 7
 86  6 19 23 29  5.0800000  0  4G 6G 8G 9G11
  20608389.682    20608391.683    -3606558.962 9     87274.726 8
  21964912.222    21964913.309     3999148.841 9   5833634.775 8
  22244940.311    22244941.548    -7427090.814 9  -2938978.802 8
  20625465.768    20625466.694    -4035307.970 9    107597.720 7
 86  6 19 23 29 11.0800000  0  4G 6G 8G 9G11
  20607556.463    20607557.944    -3610941.419 9     83859.842 8
  21968236.232    21968237.155     4016615.350 9   5847245.031 9
  22241790.480    22241791.976    -7443637.431 8  -2951872.265 9
  20624813.861    20624816.498    -4038727.742 8    104932.969 7
 86  6 19 23 29 17.0800000  0  4G 6G 8G 9G11
  20606725.070    20606727.481    -3615309.849 8     80455.862 8
  21971562.078    21971565.217     4034097.725 9   5860867.662 9
  22238644.060    22238643.713    -7460180.327 9  -2964762.834 9
  20624168.240    20624169.410    -4042123.717 8    102286.760 8
 86  6 19 23 29 23.0800000  0  4G 6G 8G 9G11
  20605897.610    20605898.864    -3619664.230 9     77062.827 7
  21974892.407    21974894.508     4051595.921 9   5874502.612 9
  22235495.535    22235496.994    -7476719.271 9  -2977650.307 8
  20623525.280    20623527.992    -4045495.927 9     99659.075 7
 86  6 19 23 29 29.0800000  0  4G 6G 8G 9G11
  20605071.550    20605072.766    -3624004.527 9     73680.777 8
  21978224.948    21978227.467     4069109.876 8   5888149.845 9
  22232349.459    22232350.338    -7493254.307 8  -2990534.748 8
  20622888.761    20622890.392    -4048844.330 7     97049.917 7
 86  6 19 23 29 35.0800000  0  4G 6G 8G 9G11
  20604247.782    20604249.544    -3628330.737 9     70309.698 8
  21981560.577    21981563.220     4086639.616 9   5901809.371 9
  22229202.318    22229205.206    -7509785.372 8  -3003416.112 9
  20622255.664    20622257.362    -4052168.932 8     94459.313 6
 86  6 19 23 29 41.0800000  0  4G 6G 8G 9G11
  20603425.473    20603429.633    -3632642.817 9     66949.640 8
  21984901.716    21984901.158     4104185.072 9   5915481.146 9
  22226058.496    22226061.027    -7526312.553 9  -3016294.405 9
  20621625.946    20621628.810    -4055469.779 7     91887.240 7
 86  6 19 23 29 47.0800000  0  4G 6G 8G 9G11
  20602608.871    20602610.881    -3636940.807 9     63600.551 9
  21988243.343    21988243.186     4121746.263 9   5929165.195 8
  22222914.824    22222916.504    -7542835.777 9  -3029169.633 9
  20621003.591    20621005.334    -4058746.816 8     89333.697 8
 86  6 19 23 29 53.0800000  0  4G 6G 8G 9G11
  20601794.151    20601795.514    -3641224.651 9     60262.493 8
  21991587.312    21991588.609     4139323.122 9   5942861.446 8
  22219770.191    22219773.560    -7559355.135 9  -3042041.865 9
  20620384.784    20620386.056    -4062000.047 8     86798.704 7
 86  6 19 23 29 59.0800000  0  4G 6G 8G 9G11
  20600983.421    20600984.552    -3645494.322 9     56935.465 8
  21994934.862    21994937.107     4156915.652 8   5956569.902 9
  22216627.380    22216629.356    -7575870.492 9  -3054910.971 8
  20619769.100    20619772.566    -4065229.501 8     84282.260 7
 86  6 19 23 30  5.0800000  0  4G 6G 8G 9G11
  20600173.554    20600174.059    -3649749.783 9     53619.523 9
  21998286.472    21998287.346     4174523.826 9   5970290.555 9
  22213485.683    22213487.903    -7592381.829 9  -3067776.941 9
  20619159.169    20619162.086    -4068435.114 8     81784.353 8
 86  6 19 23 30 11.0800000  0  4G 6G 8G 9G11
  20599365.182    20599367.215    -3653991.056 8     50314.638 8
  22001638.501    22001641.251     4192147.640 9   5984023.394 9
  22210345.595    22210345.826    -7608889.157 9  -3080639.787 9
  20618554.088    20618556.503    -4071616.952 8     79305.022 8
 86  6 19 23 30 17.0800000  0  4G 6G 8G 9G11
  20598561.355    20598563.221    -3658218.110 9     47020.825 8
  22004995.525    22004998.758     4209787.020 9   5997768.360 9
  22207204.898    22207205.489    -7625392.478 9  -3093499.511 9
  20617952.598    20617955.847    -4074774.987 8     76844.200 8
 86  6 19 23 30 23.0800000  0  4G 6G 8G 9G11
  20597758.999    20597761.270    -3662430.978 9     43738.069 8
  22008354.664    22008358.582     4227441.939 9   6011525.430 9
  22204065.630    22204065.149    -7641891.749 9  -3106356.093 8
  20617357.012    20617359.376    -4077909.236 8     74401.946 8
 86  6 19 23 30 29.0800000  0  4G 6G 8G 9G11
  20596961.214    20596962.309    -3666629.589 9     40466.432 8
  22011718.312    22011722.045     4245112.407 9   6025294.615 8
  22200925.656    22200927.161    -7658386.930 9  -3119209.485 8
  20616765.986    20616768.895    -4081019.690 9     71978.211 7
 86  6 19 23 30 35.0800000  0  4G 6G 8G 9G11
  20596163.517    20596166.280    -3670813.966 9     37205.881 8
  22015083.630    22015085.504     4262798.326 9   6039075.850 9
  22197787.329    22197788.957    -7674878.112 9  -3132059.742 8
  20616178.317    20616181.388    -4084106.361 9     69573.011 7
 86  6 19 23 30 41.0800000  0  4G 6G 8G 9G11
  20595371.011    20595371.462    -3674984.022 9     33956.491 8
  22018451.669    22018455.089     4280499.725 9   6052869.137 9
  22194649.142    22194651.929    -7691365.227 9  -3144906.851 9
  20615595.380    20615599.046    -4087169.290 8     67186.338 7
 86  6 19 23 30 47.0800000  0  4G 6G 8G 9G11
  20594578.716    20594581.251    -3679139.811 9     30718.204 8
  22021823.632    22021825.508     4298216.573 9   6066674.477 9
  22191513.441    22191514.965    -7707848.208 8  -3157750.731 8
  20615017.260    20615019.517    -4090208.421 8     64818.175 7
 86  6 19 23 30 53.0800000  0  4G 6G 8G 9G11
  20593791.877    20593791.769    -3683281.261 9     27491.116 8
  22025197.167    22025200.842     4315948.900 9   6080491.864 8
  22188377.575    22188379.457    -7724327.012 8  -3170591.351 9
  20614443.928    20614446.266    -4093223.736 8     62468.578 7
 86  6 19 23 30 59.0800000  0  4G 6G 8G 9G11
  20593006.016    20593007.635    -3687408.367 8     24275.180 8
  22028574.269    22028577.436     4333696.601 9   6094321.240 8
  22185241.576    22185244.432    -7740801.633 9  -3183428.707 9
  20613874.083    20613876.466    -4096215.237 8     60137.548 8
 86  6 19 23 31  5.0800000  0  4G 6G 8G 9G11
  20592223.406    20592225.483    -3691521.144 9     21070.425 8
  22031954.996    22031957.211     4351459.648 8   6108162.577 9
  22182108.667    22182111.080    -7757272.083 8  -3196262.830 8
  20613310.471    20613312.076    -4099182.988 8     57825.027 7
 86  6 19 23 31 11.0800000  0  4G 6G 8G 9G11
  20591443.458    20591444.490    -3695619.607 9     17876.821 9
  22035337.716    22035340.651     4369238.002 9   6122015.835 8
  22178974.287    22178976.237    -7773738.398 8  -3209093.715 8
  20612749.912    20612751.781    -4102126.972 8     55531.024 8
 86  6 19 23 31 17.0800000  0  4G 6G 8G 9G11
  20590665.902    20590668.385    -3699703.654 8     14694.441 8
  22038725.057    22038726.401     4387031.695 9   6135881.064 9
  22175841.085    22175844.053    -7790200.612 9  -3221921.414 9
  20612194.982    20612195.803    -4105047.164 8     53255.542 8
 86  6 19 23 31 23.0800000  0  4G 6G 8G 9G11
  20589891.707    20589893.462    -3703773.381 9     11523.234 8
  22042114.019    22042116.307     4404840.650 9   6149758.169 8
  22172710.053    22172712.344    -7806658.585 8  -3234745.792 8
  20611641.941    20611643.569    -4107943.594 8     50998.598 8
 86  6 19 23 31 29.0800000  0  4G 6G 8G 9G11
  20589119.416    20589121.546    -3707828.690 9      8363.254 7
  22045505.301    22045507.843     4422664.873 9   6163647.166 8
  22169578.985    22169581.596    -7823112.301 9  -3247566.848 8
  20611096.202    20611097.614    -4110816.273 8     48760.140 7
 86  6 19 23 31 35.0800000  0  4G 6G 8G 9G11
  20588349.896    20588352.388    -3711869.583 9      5214.498 8
  22048899.740    22048902.812     4440504.320 9   6177548.019 9
  22166448.751    22166450.695    -7839561.785 9  -3260384.635 8
  20610553.939    20610555.520    -4113665.190 8     46540.197 7
 86  6 19 23 31 41.0800000  0  4G 6G 8G 9G11
  20587585.230    20587587.002    -3715896.019 9      2077.021 9
  22052297.957    22052299.388     4458358.961 9   6191460.724 9
  22163319.416    22163321.054    -7856007.030 9  -3273199.087 8
  20610015.848    20610017.173    -4116490.276 8     44338.849 7
 86  6 19 23 31 47.0800000  0  4G 6G 8G 9G11
  20586821.456    20586824.460    -3719908.035 9     -1049.225 8
  22055697.981    22055699.621     4476228.782 9   6205385.260 8
  22160190.260    22160193.007    -7872448.079 9  -3286010.282 8
  20609483.908    20609483.861    -4119291.576 8     42156.018 7
 86  6 19 23 31 53.0800000  0  4G 6G 8G 9G11
  20586060.453    20586063.045    -3723905.561 9     -4164.184 9
  22059101.409    22059102.577     4494113.725 9   6219321.571 8
  22157062.751    22157065.124    -7888884.768 8  -3298818.098 8
  20608953.944    20608955.626    -4122069.135 9     39991.679 6
 86  6 19 23 31 59.0800000  0  4G 6G 8G 9G11
  20585303.766    20585304.787    -3727888.559 9     -7267.816 9
  22062508.535    22062509.138     4512013.808 9   6233269.696 9
  22153935.859    22153937.608    -7905317.202 9  -3311622.586 9
  20608430.608    20608432.150    -4124822.977 8     37845.827 8
 86  6 19 23 32  5.0800000  0  4G 6G 8G 9G11
  20584547.085    20584549.923    -3731857.080 9    -10360.177 9
  22065916.401    22065919.590     4529929.021 8   6247229.594 8
  22150809.361    22150811.811    -7921745.215 8  -3324423.619 8
  20607910.081    20607912.264    -4127553.016 8     35718.533 8
 86  6 19 23 32 11.0800000  0  4G 6G 8G 9G11
  20583793.999    20583796.661    -3735811.059 8    -13441.193 9
  22069329.025    22069330.264     4547859.277 9   6261201.224 9
  22147683.985    22147685.096    -7938168.851 9  -3337221.258 8
  20607395.243    20607396.834    -4130259.353 8     33609.704 8
 86  6 19 23 32 17.0800000  0  4G 6G 8G 9G11
  20583044.110    20583047.944    -3739750.540 9    -16510.925 8
  22072743.970    22072746.215     4565804.537 9   6275184.536 8
  22144559.369    22144561.003    -7954588.171 9  -3350015.531 8
  20606885.512    20606887.120    -4132941.901 8     31519.398 7
 86  6 19 23 32 23.0800000  0  4G 6G 8G 9G11
  20582297.662    20582300.801    -3743675.482 8    -19569.318 9
  22076161.723    22076162.388     4583764.831 9   6289179.580 8
  22141437.043    22141437.426    -7971003.123 9  -3362806.382 7
  20606378.387    20606380.163    -4135600.730 8     29447.583 6
 86  6 19 23 32 29.0800000  0  4G 6G 8G 9G11
  20581554.512    20581555.487    -3747585.781 9    -22616.302 9
  22079581.217    22079584.661     4601740.136 9   6303186.288 8
  22138314.402    22138314.836    -7987413.620 9  -3375593.764 9
  20605877.335    20605880.004    -4138235.791 8     27394.291 8
 86  6 19 23 32 35.0800000  0  4G 6G 8G 9G11
  20580813.541    20580814.230    -3751481.500 9    -25651.919 7
  22083005.879    22083007.797     4619730.381 9   6317204.673 8
  22135191.497    22135193.274    -8003819.725 8  -3388377.751 8
  20605379.584    20605382.711    -4140847.103 7     25359.519 8
 86  6 19 23 32 41.0800000  0  4G 6G 8G 9G11
  20580074.946    20580075.827    -3755362.633 9    -28676.177 9
  22086431.513    22086433.301     4637735.596 9   6331234.713 8
  22132069.871    22132070.870    -8020221.418 8  -3401158.278 9
  20604888.513    20604891.757    -4143434.665 7     23343.220 8
 86  6 19 23 32 47.0800000  0  4G 6G 8G 9G11
  20579339.471    20579339.101    -3759229.108 9    -31689.017 8
  22089860.723    22089863.615     4655755.719 9   6345276.367 8
  22128949.799    22128950.754    -8036618.708 8  -3413935.390 9
  20604400.847    20604403.362    -4145998.416 8     21345.503 8
 86  6 19 23 32 53.0800000  0  4G 6G 8G 9G11
  20578606.405    20578606.559    -3763080.955 9    -34690.454 8
  22093292.788    22093294.498     4673790.710 9   6359329.602 8
  22125829.269    22125830.681    -8053011.519 9  -3426709.012 8
  20603916.587    20603919.702    -4148538.446 8     19366.272 7
 86  6 19 23 32 59.0800000  0  4G 6G 8G 9G11
  20577876.511    20577877.657    -3766918.169 9    -37680.487 8
  22096726.819    22096729.848     4691840.573 9   6373394.416 9
  22122711.811    22122713.419    -8069399.797 8  -3439479.098 8
  20603437.936    20603441.053    -4151054.715 8     17405.543 8
 86  6 19 23 33  5.0800000  0  4G 6G 8G 9G11
  20577147.572    20577150.063    -3770740.694 9    -40659.076 8
  22100164.786    22100167.632     4709905.270 8   6387470.793 9
  22119594.481    22119595.994    -8085783.526 9  -3452245.617 8
  20602963.997    20602967.835    -4153547.207 8     15463.345 7
 86  6 19 23 33 11.0800000  0  4G 6G 8G 9G11
  20576422.839    20576425.096    -3774548.557 8    -43626.241 9
  22103605.500    22103608.709     4727984.753 9   6401558.701 8
  22116477.446    22116478.503    -8102162.691 9  -3465008.606 8
  20602494.769    20602497.690    -4156016.006 8     13539.615 7
 86  6 19 23 33 17.0800000  0  4G 6G 8G 9G11
  20575701.628    20575704.242    -3778341.700 9    -46581.925 8
  22107049.653    22107050.612     4746079.015 9   6415658.116 8
  22113360.208    22113362.387    -8118537.414 9  -3477768.115 8
  20602031.305    20602032.064    -4158461.042 8     11634.393 8
 86  6 19 23 33 23.0800000  0  4G 6G 8G 9G11
  20574983.123    20574983.785    -3782120.127 9    -49526.150 9
  22110495.305    22110496.430     4764188.042 8   6429769.047 9
  22110245.885    22110246.900    -8134907.550 9  -3490524.061 8
  20601569.281    20601570.879    -4160882.311 8      9747.682 8
 86  6 19 23 33 29.0800000  0  4G 6G 8G 9G11
  20574266.278    20574268.606    -3785883.811 9    -52458.886 9
  22113944.065    22113944.920     4782311.770 9   6443891.435 9
  22107131.473    22107133.562    -8151273.124 9  -3503276.457 9
  20601113.237    20601113.313    -4163279.871 8      7879.458 7
 86  6 19 23 33 35.0800000  0  4G 6G 8G 9G11
  20573553.108    20573555.243    -3789632.716 9    -55380.107 9
  22117397.048    22117396.586     4800450.204 9   6458025.284 9
  22104018.680    22104019.853    -8167634.108 9  -3516025.266 9
  20600661.392    20600663.465    -4165653.671 9      6029.742 7
 86  6 19 23 33 41.0800000  0  4G 6G 8G 9G11
  20572842.880    20572844.003    -3793366.861 8    -58289.837 8
  22120849.652    22120851.335     4818603.319 9   6472170.568 8
  22100906.192    22100907.874    -8183990.428 9  -3528770.451 8
  20600214.372    20600216.609    -4168003.713 8      4198.546 7
 86  6 19 23 33 47.0800000  0  4G 6G 8G 9G11
  20572135.335    20572135.815    -3797086.267 8    -61188.064 8
  22124307.219    22124309.265     4836771.067 9   6486327.251 9
  22097793.272    22097796.024    -8200342.109 9  -3541512.009 9
  20599771.428    20599772.396    -4170330.010 8      2385.836 8
 86  6 19 23 33 53.0800000  0  4G 6G 8G 9G11
  20571430.150    20571431.682    -3800790.823 9    -64074.739 8
  22127766.914    22127768.884     4854953.444 9   6500495.334 8
  22094683.210    22094685.218    -8216689.280 9  -3554250.036 8
  20599332.166    20599334.696    -4172632.596 8       591.620 7
 86  6 19 23 33 59.0800000  0  4G 6G 8G 9G11
  20570728.547    20570729.110    -3804480.588 9    -66949.879 8
  22131229.577    22131231.162     4873150.375 9   6514674.753 9
  22091573.868    22091574.691    -8233031.728 9  -3566984.411 9
  20598898.979    20598900.431    -4174911.502 8     -1184.153 7
 86  6 19 23 34  5.0800000  0  4G 6G 8G 9G11
  20570028.667    20570029.974    -3808155.486 9    -69813.437 7
  22134695.324    22134696.740     4891361.895 9   6528865.529 8
  22088464.664    22088466.428    -8249369.459 9  -3579715.112 9
  20598469.913    20598471.138    -4177166.699 8     -2941.427 7
 86  6 19 23 34 11.0800000  0  4G 6G 8G 9G11
  20569331.506    20569333.113    -3811815.542 9    -72665.411 9
  22138163.685    22138166.145     4909587.947 9   6543067.651 9
  22085356.466    22085358.815    -8265702.510 9  -3592442.161 8
  20598044.671    20598045.706    -4179398.172 8     -4680.238 7
 86  6 19 23 34 17.0800000  0  4G 6G 8G 9G11
  20568638.237    20568639.247    -3815460.735 9    -75505.818 9
  22141634.552    22141636.806     4927828.494 9   6557281.054 9
  22082249.947    22082250.891    -8282030.863 9  -3605165.544 8
  20597625.546    20597626.532    -4181605.920 8     -6400.556 8
 86  6 19 23 34 23.0800000  0  4G 6G 8G 9G11
  20567947.373    20567949.025    -3819091.062 9    -78334.647 8
  22145109.236    22145110.162     4946083.523 9   6571505.751 9
  22079143.489    22079145.224    -8298354.452 8  -3617885.218 9
  20597208.660    20597210.672    -4183789.975 9     -8102.403 7
 86  6 19 23 34 29.0800000  0  4G 6G 8G 9G11
  20567260.468    20567260.716    -3822706.516 9    -81151.874 8
  22148585.095    22148587.183     4964352.978 9   6585741.684 9
  22076038.683    22076039.083    -8314673.266 9  -3630601.172 8
  20596796.872    20596799.520    -4185950.363 8     -9785.813 7
 86  6 19 23 34 35.0800000  0  4G 6G 8G 9G11
  20566575.962    20566575.296    -3826307.017 9    -83957.460 8
  22152064.791    22152065.488     4982636.872 9   6599988.868 9
  22072933.868    22072933.661    -8330987.443 9  -3643313.488 8
  20596390.694    20596392.129    -4188087.011 8    -11450.733 9
 86  6 19 23 34 41.0800000  0  4G 6G 8G 9G11
  20565893.259    20565892.986    -3829892.606 9    -86751.414 9
  22155545.802    22155548.403     5000935.182 9   6614247.279 9
  22069829.129    22069830.496    -8347296.786 9  -3656022.084 8
  20595988.665    20595991.011    -4190199.988 9    -13097.193 8
 86  6 19 23 34 47.0800000  0  4G 6G 8G 9G11
  20565213.303    20565214.390    -3833463.233 9    -89533.734 8
  22159032.193    22159033.379     5019247.862 9   6628516.893 9
  22066726.565    22066728.918    -8363601.310 9  -3668726.901 8
  20595592.841    20595591.703    -4192289.255 8    -14725.190 7
 86  6 19 23 34 53.0800000  0  4G 6G 8G 9G11
  20564535.539    20564538.048    -3837018.888 9    -92304.378 9
  22162518.509    22162521.240     5037574.858 9   6642797.669 9
  22063624.619    22063626.337    -8379900.988 9  -3681427.929 9
  20595199.330    20595199.072    -4194354.850 8    -16334.750 7
 86  6 19 23 34 59.0800000  0  4G 6G 8G 9G11
  20563861.256    20563862.744    -3840559.617 9    -95063.381 8
  22166008.633    22166012.170     5055916.190 8   6657089.607 9
  22060523.379    22060525.633    -8396195.885 9  -3694125.239 8
  20594812.056    20594811.141    -4196396.707 8    -17925.793 8
 86  6 19 23 35  5.0800000  0  4G 6G 8G 9G11
  20563191.059    20563192.116    -3844085.334 8    -97810.689 8
  22169502.501    22169502.954     5074271.829 9   6671392.700 9
  22057422.990    22057426.900    -8412485.915 8  -3706818.758 9
  20594426.807    20594427.307    -4198414.853 8    -19498.392 7
 86  6 19 23 35 11.0800000  0  4G 6G 8G 9G11
  20562522.580    20562523.900    -3847596.011 9   -100546.284 9
  22172997.875    22173000.460     5092641.717 9   6685706.900 8
  22054324.620    22054327.153    -8428771.075 9  -3719508.481 8
  20594047.145    20594047.819    -4200409.326 8    -21052.530 7
 86  6 19 23 35 17.0800000  0  4G 6G 8G 9G11
  20561857.454    20561858.417    -3851091.694 8   -103270.179 8
  22176495.026    22176497.516     5111025.883 9   6700032.212 9
  22051226.728    22051228.971    -8445051.360 9  -3732194.417 7
  20593671.511    20593674.239    -4202380.121 7    -22588.205 7
 86  6 19 23 35 23.0800000  0  4G 6G 8G 9G11
  20561195.562    20561196.445    -3854572.255 9   -105982.318 9
  22179996.114    22179999.030     5129424.247 9   6714368.590 9
  22048129.589    22048132.168    -8461326.695 9  -3744876.492 9
  20593301.234    20593302.600    -4204327.183 8    -24105.394 7
 86  6 19 23 35 29.0800000  0  4G 6G 8G 9G11
  20560536.960    20560537.134    -3858037.766 9   -108682.712 8
  22183499.691    22183504.154     5147836.804 9   6728716.023 8
  22045033.859    22045035.744    -8477597.136 8  -3757554.741 8
  20592934.731    20592937.714    -4206250.526 9    -25604.107 6
 86  6 19 23 35 35.0800000  0  4G 6G 8G 9G11
  20559880.226    20559880.672    -3861488.224 9   -111371.366 9
  22187006.788    22187010.188     5166263.541 9   6743074.534 9
  22041939.528    22041941.309    -8493862.614 9  -3770229.131 9
  20592573.787    20592576.422    -4208150.149 8    -27084.340 7
 86  6 19 23 35 41.0800000  0  4G 6G 8G 9G11
  20559226.634    20559226.842    -3864923.572 9   -114048.259 9
  22190516.321    22190518.176     5184704.390 9   6757444.015 8
  22038846.212    22038846.950    -8510123.025 9  -3782899.586 9
  20592216.705    20592219.020    -4210026.111 8    -28546.129 6
 86  6 19 23 35 47.0800000  0  4G 6G 8G 9G11
  20558574.535    20558575.413    -3868343.845 9   -116713.404 8
  22194029.046    22194031.429     5203159.371 9   6771824.511 8
  22035754.046    22035753.757    -8526378.424 9  -3795566.116 8
  20591864.146    20591865.695    -4211878.308 8    -29989.390 8
 86  6 19 23 35 53.0800000  0  4G 6G 8G 9G11
  20557927.760    20557927.930    -3871748.894 9   -119366.684 8
  22197542.424    22197544.932     5221628.464 9   6786216.020 9
  22032661.231    22032661.549    -8542628.898 9  -3808228.816 9
  20591516.920    20591518.288    -4213706.858 7    -31414.226 7
 86  6 19 23 35 59.0800000  0  4G 6G 8G 9G11
  20557282.375    20557283.207    -3875138.874 9   -122008.225 8
  22201059.142    22201063.047     5240111.617 9   6800618.458 8
  22029568.881    22029568.824    -8558874.311 9  -3820887.578 8
  20591171.623    20591175.173    -4215511.752 7    -32820.648 7
 86  6 19 23 36  5.0800000  0  4G 6G 8G 9G11
  20556640.475    20556640.191    -3878513.666 9   -124637.919 8
  22204579.516    22204581.906     5258608.763 8   6815031.815 8
  22026478.328    22026479.479    -8575114.763 9  -3833542.470 8
  20590833.140    20590836.263    -4217293.011 8    -34208.631 7
 86  6 19 23 36 11.0800000  0  4G 6G 8G 9G11
  20556000.506    20556001.958    -3881873.291 9   -127255.819 8
  22208100.179    22208105.030     5277119.903 9   6829456.085 8
  22023389.295    22023389.653    -8591350.102 9  -3846193.386 9
  20590499.147    20590502.054    -4219050.630 8    -35578.208 8
 86  6 19 23 36 17.0800000  0  4G 6G 8G 9G11
  20555362.259    20555365.903    -3885217.679 9   -129861.829 9
  22211627.852    22211629.467     5295645.046 9   6843891.255 8
  22020299.196    22020300.609    -8607580.397 9  -3858840.346 9
  20590168.433    20590173.527    -4220784.637 8    -36929.374 7
 86  6 19 23 36 23.0800000  0  4G 6G 8G 9G11
  20554729.047    20554733.093    -3888546.847 9   -132455.996 8
  22215154.397    22215158.256     5314184.177 8   6858337.327 9
  22017212.185    22017213.938    -8623805.522 8  -3871483.303 8
  20589844.120    20589846.965    -4222494.930 8    -38262.063 8
 86  6 19 23 36 29.0800000  0  4G 6G 8G 9G11
  20554099.134    20554100.522    -3891860.825 8   -135038.295 9
  22218685.658    22218689.082     5332737.182 9   6872794.215 9
  22014125.167    22014125.751    -8640025.679 9  -3884122.375 9
  20589523.882    20589525.612    -4224181.561 8    -39576.295 7
 86  6 19 23 36 35.0800000  0  4G 6G 8G 9G11
  20553471.716    20553472.025    -3895159.554 8   -137608.747 7
  22222217.468    22222221.185     5351304.078 8   6887261.912 8
  22011039.956    22011041.173    -8656240.622 9  -3896757.394 9
  20589207.953    20589208.330    -4225844.591 8    -40872.168 8
 86  6 19 23 36 41.0800000  0  4G 6G 8G 9G11
  20552847.371    20552847.542    -3898442.995 9   -140167.270 7
  22225754.427    22225757.132     5369884.823 8   6901740.425 8
  22007954.433    22007956.221    -8672450.437 9  -3909388.418 8
  20588894.421    20588896.599    -4227483.953 8    -42149.599 8
 86  6 19 23 36 47.0800000  0  4G 6G 8G 9G11
  20552225.981    20552226.328    -3901711.161 9   -142713.885 8
  22229292.531    22229296.024     5388479.437 9   6916229.725 9
  22004871.168    22004872.150    -8688655.079 8  -3922015.402 9
  20588587.955    20588587.882    -4229099.667 8    -43408.590 8
 86  6 19 23 36 53.0800000  0  4G 6G 8G 9G11
  20551606.593    20551607.869    -3904964.094 9   -145248.642 8
  22232833.627    22232837.348     5407087.856 9   6930729.774 9
  22001788.707    22001790.463    -8704854.548 9  -3934638.352 8
  20588283.313    20588286.464    -4230691.860 8    -44649.260 8
 86  6 19 23 36 59.0800000  0  4G 6G 8G 9G11
  20550990.393    20550991.658    -3908201.707 8   -147771.457 9
  22236378.191    22236380.875     5425710.085 9   6945240.604 8
  21998706.084    21998709.571    -8721048.752 9  -3947257.221 8
  20587984.185    20587986.451    -4232260.334 9    -45871.448 7
 86  6 19 23 37  5.0800000  0  4G 6G 8G 9G11
  20550377.496    20550379.579    -3911424.019 8   -150282.357 8
  22239923.319    22239927.979     5444346.036 8   6959762.114 9
  21995626.886    21995628.080    -8737237.835 9  -3959872.076 8
  20587690.922    20587694.294    -4233805.188 7    -47075.220 7
 86  6 19 23 37 11.0800000  0  4G 6G 8G 9G11
  20549767.226    20549768.862    -3914631.016 8   -152781.311 8
  22243474.002    22243477.805     5462995.707 8   6974294.314 8
  21992545.707    21992547.719    -8753421.593 8  -3972482.799 9
  20587401.839    20587404.238    -4235326.380 8    -48260.556 7
 86  6 19 23 37 17.0800000  0  4G 6G 8G 9G11
  20549159.182    20549161.390    -3917822.597 9   -155268.247 9
  22247023.939    22247028.512     5481659.054 7   6988837.173 8
  21989467.154    21989469.554    -8769600.130 8  -3985089.441 9
  20587116.134    20587119.899    -4236823.965 8    -49427.510 6
 86  6 19 23 37 23.0800000  0  4G 6G 8G 9G11
  20548554.768    20548557.735    -3920998.883 9   -157743.279 8
  22250578.827    22250581.773     5500336.068 9   7003390.685 8
  21986389.943    21986392.011    -8785773.452 9  -3997692.023 8
  20586836.034    20586838.505    -4238297.923 9    -50576.058 7
 86  6 19 23 37 29.0800000  0  4G 6G 8G 9G11
  20547953.742    20547956.620    -3924159.776 9   -160206.319 8
  22254135.591    22254138.378     5519026.701 9   7017954.813 8
  21983313.537    21983315.743    -8801941.514 9  -4010290.509 9
  20586559.908    20586562.693    -4239748.315 9    -51706.229 8
 86  6 19 23 37 35.0800000  0  4G 6G 8G 9G11
  20547354.925    20547356.263    -3927305.244 9   -162657.320 9
  22257695.329    22257697.704     5537731.019 9   7032529.607 8
  21980236.981    21980239.186    -8818104.282 9  -4022884.884 9
  20586288.480    20586290.446    -4241175.071 8    -52817.974 8
 86  6 19 23 37 41.0800000  0  4G 6G 8G 9G11
  20546759.177    20546760.563    -3930435.270 9   -165096.304 8
  22261257.316    22261259.378     5556448.924 8   7047114.993 9
  21977162.918    21977165.326    -8834261.672 9  -4035475.035 9
  20586021.529    20586025.107    -4242578.197 9    -53911.324 7
 86  6 19 23 37 47.0800000  0  4G 6G 8G 9G11
  20546166.827    20546167.112    -3933549.884 9   -167523.264 8
  22264820.537    22264822.971     5575180.409 8   7061710.953 8
  21974089.049    21974091.391    -8850413.693 9  -4048061.026 9
  20585760.139    20585762.619    -4243957.680 8    -54986.239 7
 86  6 19 23 37 53.0800000  0  4G 6G 8G 9G11
  20545577.529    20545577.376    -3936649.043 8   -169938.198 8
  22268389.015    22268391.245     5593925.468 9   7076317.487 8
  21971016.652    21971019.102    -8866560.315 9  -4060642.808 9
  20585502.020    20585504.066    -4245313.551 9    -56042.748 7
 86  6 19 23 37 59.0800000  0  4G 6G 8G 9G11
  20544990.525    20544990.449    -3939732.732 8   -172341.062 9
  22271957.659    22271961.220     5612684.067 9   7090934.574 9
  21967945.655    21967947.148    -8882701.584 9  -4073220.413 9
  20585248.613    20585251.114    -4246645.833 9    -57080.901 8
 86  6 19 23 38  5.0800000  0  4G 6G 8G 9G11
  20544405.125    20544407.675    -3942800.939 8   -174731.871 8
  22275530.147    22275531.480     5631456.095 9   7105562.123 8
  21964875.008    21964877.099    -8898837.434 9  -4085793.802 8
  20585000.057    20585001.441    -4247954.545 9    -58100.671 7
 86  6 19 23 38 11.0800000  0  4G 6G 8G 9G11
  20543825.178    20543826.396    -3945853.638 8   -177110.591 8
  22279104.171    22279107.457     5650241.627 8   7120200.198 8
  21961804.719    21961806.922    -8914967.873 8  -4098362.966 8
  20584754.289    20584757.095    -4249239.674 9    -59102.069 7
 86  6 19 23 38 17.0800000  0  4G 6G 8G 9G11
  20543247.877    20543249.041    -3948890.817 8   -179477.230 8
  22282682.525    22282684.701     5669040.593 8   7134848.746 8
  21958736.532    21958739.588    -8931092.803 9  -4110927.841 9
  20584515.745    20584517.088    -4250501.204 8    -60085.071 7
 86  6 19 23 38 23.0800000  0  4G 6G 8G 9G11
  20542673.071    20542675.594    -3951912.465 8   -181831.763 8
  22286261.925    22286264.511     5687853.038 9   7149507.797 9
  21955668.823    21955670.650    -8947212.286 9  -4123488.468 9
  20584278.625    20584281.558    -4251739.197 9    -61049.736 7
 86  6 19 23 38 29.0800000  0  4G 6G 8G 9G11
  20542101.384    20542103.710    -3954918.561 8   -184174.172 9
  22289845.403    22289847.275     5706678.792 9   7164177.195 8
  21952603.612    21952604.370    -8963326.386 9  -4136044.908 8
  20584046.356    20584049.774    -4252953.600 8    -61996.026 7
 86  6 19 23 38 35.0800000  0  4G 6G 8G 9G11
  20541531.615    20541533.786    -3957909.078 8   -186504.449 8
  22293430.329    22293432.850     5725517.897 9   7178857.025 9
  21949538.685    21949539.693    -8979434.935 9  -4148597.016 9
  20583819.549    20583823.477    -4254144.374 9    -62923.896 7
 86  6 19 23 38 41.0800000  0  4G 6G 8G 9G11
  20540964.542    20540966.400    -3960884.049 9   -188822.608 8
  22297018.743    22297019.361     5744370.349 9   7193547.248 9
  21946474.858    21946475.225    -8995538.036 9  -4161144.886 8
  20583597.984    20583600.630    -4255311.608 7    -63833.426 7
 86  6 19 23 38 47.0800000  0  4G 6G 8G 9G11
  20540402.562    20540403.357    -3963843.461 8   -191128.638 8
  22300608.821    22300609.851     5763236.085 9   7208247.821 8
  21943410.335    21943412.280    -9011635.563 9  -4173688.413 9
  20583381.257    20583382.530    -4256455.307 8    -64724.616 7
 86  6 19 23 38 53.0800000  0  4G 6G 8G 9G11
  20539841.705    20539843.501    -3966787.266 9   -193422.512 8
  22304200.243    22304202.427     5782115.110 9   7222958.748 9
  21940347.408    21940350.481    -9027727.577 9  -4186227.648 9
  20583168.223    20583170.379    -4257575.474 9    -65597.455 7
 86  6 19 23 38 59.0800000  0  4G 6G 8G 9G11
  20539284.660    20539285.185    -3969715.418 8   -195704.185 8
  22307795.470    22307796.760     5801007.398 9   7237680.000 8
  21937287.066    21937287.635    -9043814.028 9  -4198762.529 8
  20582959.301    20582960.641    -4258672.118 8    -66451.987 7
 86  6 19 23 39  5.0800000  0  4G 6G 8G 9G11
  20538730.464    20538731.113    -3972627.976 9   -197973.697 8
  22311391.112    22311395.093     5819912.857 9   7252411.512 8
  21934227.611    21934228.281    -9059894.820 8  -4211293.018 9
  20582756.186    20582756.738    -4259745.234 8    -67288.187 8
 86  6 19 23 39 11.0800000  0  4G 6G 8G 9G11
  20538179.360    20538181.541    -3975524.794 9   -200230.953 8
  22314991.389    22314994.190     5838831.566 9   7267153.362 8
  21931167.733    21931169.716    -9075969.968 9  -4223819.103 9
  20582555.779    20582558.186    -4260794.783 8    -68106.010 7
 86  6 19 23 39 17.0800000  0  4G 6G 8G 9G11
  20537632.319    20537631.935    -3978405.999 9   -202476.049 8
  22318594.845    22318598.133     5857763.393 9   7281905.434 8
  21928107.694    21928111.445    -9092039.605 9  -4236340.887 8
  20582360.107    20582364.474    -4261820.760 9    -68905.476 7
 86  6 19 23 39 23.0800000  0  4G 6G 8G 9G11
  20537086.150    20537087.244    -3981271.498 9   -204708.902 8
  22322200.246    22322201.989     5876708.397 9   7296667.762 8
  21925053.094    21925054.536    -9108103.550 9  -4248858.253 8
  20582168.947    20582173.607    -4262823.230 8    -69686.612 8
 86  6 19 23 39 29.0800000  0  4G 6G 8G 9G11
  20536542.411    20536544.926    -3984121.364 9   -206929.578 8
  22325808.563    22325809.850     5895666.475 9   7311440.292 8
  21921996.962    21921999.363    -9124161.857 8  -4261371.211 9
  20581983.232    20581985.564    -4263802.204 8    -70449.458 8
 86  6 19 23 39 35.0800000  0  4G 6G 8G 9G11
  20536003.858    20536005.506    -3986955.423 9   -209137.946 9
  22329417.917    22329420.374     5914637.652 8   7326223.029 9
  21918942.154    21918944.371    -9140214.448 8  -4273879.729 8
  20581801.678    20581803.155    -4264757.660 8    -71193.965 8
 86  6 19 23 39 41.0800000  0  4G 6G 8G 9G11
  20535467.996    20535468.916    -3989773.807 8   -211334.081 8
  22333029.226    22333033.476     5933621.925 8   7341015.963 9
  21915889.431    21915891.486    -9156261.379 9  -4286383.820 9
  20581625.122    20581626.804    -4265689.516 7    -71920.079 7
 86  6 19 23 39 47.0800000  0  4G 6G 8G 9G11
  20534933.634    20534936.578    -3992576.388 9   -213517.914 8
  22336645.361    22336647.801     5952619.191 9   7355819.011 8
  21912836.638    21912838.631    -9172302.572 9  -4298883.449 9
  20581451.733    20581454.053    -4266597.892 8    -72627.896 7
 86  6 19 23 39 53.0800000  0  4G 6G 8G 9G11
  20534403.324    20534405.988    -3995363.235 8   -215689.470 9
  22340263.650    22340265.338     5971629.492 9   7370632.236 8
  21909786.099    21909787.453    -9188338.095 9  -4311378.649 8
  20581282.999    20581284.623    -4267482.794 8    -73317.434 7
 86  6 19 23 39 59.0800000  0  4G 6G 8G 9G11
  20533875.818    20533877.513    -3998134.317 9   -217848.763 8
  22343883.471    22343885.420     5990652.741 9   7385455.540 9
  21906735.532    21906736.799    -9204367.844 9  -4323869.380 9
  20581119.084    20581121.234    -4268344.187 8    -73988.647 7
 86  6 19 23 40  5.0800000  0  4G 6G 8G 9G11
  20533352.474    20533353.961    -4000889.557 9   -219995.692 9
  22347506.389    22347508.076     6009688.947 9   7400288.955 9
  21903685.820    21903687.576    -9220391.810 9  -4336355.583 9
  20580959.927    20580961.988    -4269182.066 8    -74641.542 7
 86  6 19 23 40 11.0800000  0  4G 6G 8G 9G11
  20532830.955    20532831.290    -4003629.041 8   -222130.352 8
  22351131.571    22351132.706     6028738.074 9   7415132.428 8
  21900638.929    21900639.677    -9236410.078 9  -4348837.344 9
  20580804.033    20580806.901    -4269996.451 8    -75276.117 6
 86  6 19 23 40 17.0800000  0  4G 6G 8G 9G11
  20532313.129    20532313.264    -4006352.663 8   -224252.653 9
  22354757.471    22354759.689     6047800.106 8   7429985.931 9
  21897590.409    21897592.776    -9252422.464 9  -4361314.526 9
  20580654.456    20580655.423    -4270787.375 8    -75892.418 7
 86  6 19 23 40 23.0800000  0  4G 6G 8G 9G11
  20531798.753    20531799.158    -4009060.504 8   -226362.665 8
  22358387.843    22358390.672     6066874.993 9   7444849.470 9
  21894544.491    21894546.570    -9268429.038 9  -4373787.181 9
  20580508.253    20580510.178    -4271554.860 8    -76490.466 7
 86  6 19 23 40 29.0800000  0  4G 6G 8G 9G11
  20531284.602    20531286.972    -4011752.461 8   -228460.277 9
  22362019.657    22362022.345     6085962.683 8   7459722.987 9
  21891499.826    21891500.833    -9284429.731 9  -4386255.255 8
  20580367.320    20580368.881    -4272298.835 8    -77070.195 7
 86  6 19 23 40 35.0800000  0  4G 6G 8G 9G11
  20530777.065    20530776.376    -4014428.503 9   -230545.520 9
  22365654.748    22365657.259     6105063.265 9   7474606.558 9
  21888456.823    21888458.355    -9300424.552 9  -4398718.749 9
  20580229.607    20580229.925    -4273019.381 8    -77631.622 7
 86  6 19 23 40 41.0800000  0  4G 6G 8G 9G11
  20530270.278    20530271.643    -4017088.649 9   -232618.357 8
  22369291.718    22369293.914     6124176.621 8   7489500.086 9
  21885413.309    21885415.289    -9316413.508 9  -4411177.679 9
  20580096.589    20580098.355    -4273716.382 8    -78174.749 7
 86  6 19 23 40 47.0800000  0  4G 6G 8G 9G11
  20529765.960    20529768.269    -4019732.913 9   -234678.821 8
  22372931.760    22372933.249     6143302.789 8   7504403.581 8
  21882371.919    21882374.349    -9332396.534 9  -4423631.980 9
  20579967.721    20579970.383    -4274389.908 7    -78699.585 8
 86  6 19 23 40 53.0800000  0  4G 6G 8G 9G11
  20529267.123    20529267.337    -4022361.318 9   -236726.930 8
  22376572.823    22376575.139     6162441.650 9   7519316.983 9
  21879331.651    21879333.973    -9348373.686 9  -4436081.694 9
  20579843.984    20579846.747    -4275039.988 9    -79206.131 7
 86  6 19 23 40 59.0800000  0  4G 6G 8G 9G11
  20528768.729    20528770.975    -4024973.740 9   -238762.575 8
  22380217.549    22380219.801     6181593.259 8   7534240.306 9
  21876292.105    21876294.807    -9364344.929 9  -4448526.823 9
  20579725.313    20579727.426    -4275666.617 8    -79694.417 8
 86  6 19 23 41  5.0800000  0  4G 6G 8G 9G11
  20528277.168    20528276.945    -4027570.229 9   -240785.806 8
  22383865.269    22383867.041     6200757.456 9   7549173.441 9
  21873253.841    21873256.181    -9380310.227 9  -4460967.299 9
  20579611.014    20579613.530    -4276269.850 7    -80164.451 8
 86  6 19 23 41 11.0800000  0  4G 6G 8G 9G11
  20527785.590    20527785.612    -4030150.734 9   -242796.594 8
  22387515.158    22387515.860     6219934.372 9   7564116.502 9
  21870216.845    21870218.031    -9396269.473 9  -4473403.066 9
  20579499.848    20579502.930    -4276849.620 8    -80616.228 7
 86  6 19 23 41 17.0800000  0  4G 6G 8G 9G11
  20527298.213    20527296.948    -4032715.243 9   -244794.912 8
  22391166.761    22391167.826     6239123.896 9   7579069.372 9
  21867180.676    21867183.054    -9412222.730 9  -4485834.175 8
  20579394.479    20579397.264    -4277405.943 8    -81049.719 7
 86  6 19 23 41 23.0800000  0  4G 6G 8G 9G11
  20526812.411    20526812.714    -4035263.768 9   -246780.779 7
  22394820.851    22394822.187     6258326.033 8   7594032.078 9
  21864146.304    21864147.256    -9428169.915 9  -4498260.546 7
  20579293.236    20579296.105    -4277938.846 8    -81464.964 7
 86  6 19 23 41 29.0800000  0  4G 6G 8G 9G11
  20526329.613    20526329.709    -4037796.277 9   -248754.158 8
  22398476.752    22398478.154     6277540.765 9   7609004.587 9
  21861112.889    21861114.155    -9444111.186 9  -4510682.322 9
  20579195.963    20579198.107    -4278448.342 8    -81861.974 8
 86  6 19 23 41 35.0800000  0  4G 6G 8G 9G11
  20525850.484    20525850.992    -4040312.767 8   -250715.066 8
  22402135.703    22402138.389     6296768.047 9   7623986.882 9
  21858081.356    21858080.796    -9460046.364 9  -4523099.336 8
  20579102.713    20579105.157    -4278934.471 8    -82240.760 8
 86  6 19 23 41 41.0800000  0  4G 6G 8G 9G11
  20525374.004    20525376.090    -4042813.141 9   -252663.401 8
  22405795.876    22405799.367     6316007.908 8   7638978.974 8
  21855049.642    21855051.107    -9475975.457 9  -4535511.617 8
  20579015.189    20579018.791    -4279397.096 9    -82601.251 7
 86  6 19 23 41 47.0800000  0  4G 6G 8G 9G11
  20524902.945    20524901.722    -4045297.486 8   -254599.249 8
  22409460.550    22409462.923     6335260.244 9   7653980.778 8
  21852019.394    21852020.402    -9491898.455 9  -4547919.144 8
  20578932.053    20578934.311    -4279836.282 8    -82943.474 8
 86  6 19 23 41 53.0800000  0  4G 6G 8G 9G11
  20524432.397    20524432.141    -4047765.728 9   -256522.556 9
  22413125.073    22413129.164     6354525.062 9   7668992.323 9
  21848991.019    21848991.301    -9507815.344 9  -4560321.912 8
  20578853.143    20578854.299    -4280252.038 8    -83267.443 9
 86  6 19 23 41 59.0800000  0  4G 6G 8G 9G11
  20523965.293    20523966.671    -4050217.888 9   -258433.335 8
  22416795.057    22416796.780     6373802.337 8   7684013.567 9
  21845962.939    21845965.636    -9523726.063 9  -4572719.878 8
  20578778.135    20578780.400    -4280644.457 8    -83573.224 7
 86  6 19 23 42  5.0800000  0  4G 6G 8G 9G11
  20523502.762    20523502.641    -4052653.933 9   -260331.558 7
  22420464.893    22420467.433     6393092.013 9   7699044.482 9
  21842936.351    21842936.772    -9539630.642 9  -4585113.053 8
  20578709.585    20578709.105    -4281013.471 8    -83860.752 7
 86  6 19 23 42 11.0800000  0  4G 6G 8G 9G11
  20523040.232    20523042.098    -4055073.859 9   -262217.212 8
  22424139.604    22424141.347     6412394.068 8   7714085.057 9
  21839910.688    21839912.358    -9555529.097 8  -4597501.455 9
  20578643.697    20578642.661    -4281359.108 8    -84130.093 7
 86  6 19 23 42 17.0800000  0  4G 6G 8G 9G11
  20522584.730    20522585.739    -4057477.685 9   -264090.322 8
  22427814.217    22427816.829     6431708.468 9   7729135.234 9
  21836886.971    21836888.457    -9571421.332 9  -4609885.020 8
  20578581.670    20578582.584    -4281681.345 8    -84381.176 7
 86  6 19 23 42 23.0800000  0  4G 6G 8G 9G11
  20522129.348    20522130.386    -4059865.246 9   -265950.753 8
  22431492.740    22431494.497     6451035.239 9   7744195.061 9
  21833864.011    21833865.133    -9587307.327 8  -4622263.715 9
  20578525.427    20578526.202    -4281980.230 9    -84614.076 7
 86  6 19 23 42 29.0800000  0  4G 6G 8G 9G11
  20521678.477    20521680.001    -4062236.692 9   -267798.637 8
  22435171.862    22435174.276     6470374.308 9   7759264.458 9
  21830841.347    21830842.574    -9603187.139 9  -4634637.581 9
  20578472.206    20578472.655    -4282255.797 9    -84828.799 7
 86  6 19 23 42 35.0800000  0  4G 6G 8G 9G11
  20521230.599    20521233.194    -4064591.952 8   -269633.898 8
  22438854.487    22438857.692     6489725.692 9   7774343.446 9
  21827821.287    21827822.668    -9619060.768 9  -4647006.640 9
  20578423.096    20578424.957    -4282508.011 8    -85025.319 8
 86  6 19 23 42 41.0800000  0  4G 6G 8G 9G11
  20520784.650    20520788.169    -4066931.058 9   -271456.582 7
  22442538.931    22442540.593     6509089.312 9   7789431.974 9
  21824802.219    21824803.699    -9634928.064 9  -4659370.758 8
  20578379.561    20578381.710    -4282736.893 9    -85203.664 8
 86  6 19 23 42 47.0800000  0  4G 6G 8G 9G11
  20520343.406    20520345.146    -4069253.908 8   -273266.592 8
  22446224.994    22446228.471     6528465.184 9   7804530.051 9
  21821783.826    21821784.189    -9650789.079 9  -4671730.000 9
  20578340.906    20578341.591    -4282942.375 8    -85363.783 8
 86  6 19 23 42 53.0800000  0  4G 6G 8G 9G11
  20519904.040    20519906.588    -4071560.519 9   -275063.948 9
  22449915.247    22449918.409     6547853.257 9   7819637.633 9
  21818766.099    21818767.164    -9666643.729 9  -4684084.270 8
  20578306.651    20578308.372    -4283124.488 9    -85505.677 8
 86  6 19 23 42 59.0800000  0  4G 6G 8G 9G11
  20519468.015    20519470.135    -4073850.871 9   -276848.630 9
  22453607.172    22453609.299     6567253.484 9   7834754.698 9
  21815750.533    21815751.507    -9682492.142 9  -4696433.675 8
  20578276.973    20578277.645    -4283283.289 8    -85629.419 7
 86  6 19 23 43  5.0800000  0  4G 6G 8G 9G11
  20519034.304    20519037.359    -4076125.000 8   -278620.677 8
  22457301.314    22457302.756     6586665.925 9   7849881.261 9
  21812736.594    21812736.986    -9698334.270 9  -4708778.186 8
  20578250.321    20578251.690    -4283418.809 8    -85735.025 8
 86  6 19 23 43 11.0800000  0  4G 6G 8G 9G11
  20518604.507    20518607.703    -4078382.872 9   -280380.063 8
  22460998.232    22460999.390     6606090.390 9   7865017.219 9
  21809722.124    21809723.572    -9714170.057 9  -4721117.761 9
  20578228.275    20578230.477    -4283530.964 8    -85822.418 7
 86  6 19 23 43 17.0800000  0  4G 6G 8G 9G11
  20518179.878    20518180.736    -4080624.403 9   -282126.711 8
  22464696.315    22464698.857     6625526.973 9   7880162.603 8
  21806710.220    21806711.618    -9729999.434 9  -4733452.334 8
  20578213.021    20578213.227    -4283619.726 9    -85891.579 8
 86  6 19 23 43 23.0800000  0  4G 6G 8G 9G11
  20517756.939    20517757.378    -4082849.657 9   -283860.662 8
  22468397.343    22468400.307     6644975.669 9   7895317.439 9
  21803699.382    21803700.302    -9745822.377 9  -4745781.893 8
  20578199.152    20578201.181    -4283685.178 8    -85942.579 7
 86  6 19 23 43 29.0800000  0  4G 6G 8G 9G11
  20517336.449    20517336.420    -4085058.508 9   -285581.843 8
  22472100.835    22472103.115     6664436.485 9   7910481.715 8
  21800688.248    21800691.451    -9761638.856 9  -4758106.420 9
  20578190.615    20578193.984    -4283727.238 8    -85975.342 7
 86  6 19 23 43 35.0800000  0  4G 6G 8G 9G11
  20516918.420    20516919.873    -4087251.077 9   -287290.341 9
  22475805.357    22475808.139     6683909.270 9   7925655.306 9
  21797680.029    21797682.684    -9777448.917 9  -4770425.954 8
  20578188.211    20578190.988    -4283746.055 8    -85990.010 8
 86  6 19 23 43 41.0800000  0  4G 6G 8G 9G11
  20516504.919    20516506.211    -4089427.278 9   -288986.088 8
  22479513.995    22479514.626     6703394.040 9   7940838.240 9
  21794672.794    21794675.086    -9793252.548 9  -4782740.459 8
  20578188.347    20578191.217    -4283741.608 8    -85986.550 7
 86  6 19 23 43 47.0800000  0  4G 6G 8G 9G11
  20516092.425    20516095.070    -4091587.113 9   -290669.070 9
  22483223.441    22483225.743     6722890.810 9   7956030.518 9
  21791666.181    21791668.601    -9809049.665 9  -4795049.889 8
  20578194.440    20578196.989    -4283713.874 8    -85964.942 8
 86  6 19 23 43 53.0800000  0  4G 6G 8G 9G11
  20515684.516    20515687.081    -4093730.499 9   -292339.238 8
  22486935.619    22486938.633     6742399.564 9   7971232.146 9
  21788662.147    21788663.532    -9824840.247 9  -4807354.227 8
  20578203.217    20578206.752    -4283662.868 8    -85925.180 7
 86  6 19 23 43 59.0800000  0  4G 6G 8G 9G11
  20515280.024    20515281.548    -4095857.617 9   -293996.737 9
  22490651.671    22490652.495     6761920.083 9   7986442.949 8
  21785658.934    21785660.016    -9840624.404 9  -4819653.563 8
  20578217.412    20578220.456    -4283588.714 8    -85867.411 8
 86  6 19 23 44  5.0800000  0  4G 6G 8G 9G11
  20514878.324    20514880.604    -4097968.217 8   -295641.353 8
  22494367.524    22494370.078     6781452.602 9   8001663.089 8
  21782656.901    21782657.498    -9856401.951 9  -4831947.747 9
  20578236.655    20578239.538    -4283491.207 8    -85791.413 8
 86  6 19 23 44 11.0800000  0  4G 6G 8G 9G11
  20514480.151    20514480.602    -4100062.431 8   -297273.220 8
  22498086.681    22498089.897     6800996.907 9   8016892.404 8
  21779655.290    21779655.920    -9872172.993 9  -4844236.867 9
  20578258.949    20578261.673    -4283370.428 8    -85697.298 8
 86  6 19 23 44 17.0800000  0  4G 6G 8G 9G11
  20514085.503    20514085.408    -4102140.211 8   -298892.249 7
  22501807.011    22501810.744     6820553.032 9   8032130.936 9
  21776655.889    21776656.133    -9887937.414 8  -4856520.823 8
  20578287.547    20578288.041    -4283226.395 8    -85585.061 7
 86  6 19 23 44 23.0800000  0  4G 6G 8G 9G11
  20513694.358    20513693.413    -4104201.541 9   -300498.484 8
  22505530.800    22505534.027     6840120.992 9   8047378.698 9
  21773657.299    21773657.434    -9903695.329 9  -4868799.707 8
  20578318.818    20578320.339    -4283059.132 9    -85454.719 8
 86  6 19 23 44 29.0800000  0  4G 6G 8G 9G11
  20513303.786    20513303.745    -4106246.355 8   -302091.850 8
  22509256.881    22509260.826     6859700.741 9   8062635.633 9
  21770660.153    21770661.506    -9919446.614 9  -4881073.434 8
  20578354.630    20578356.713    -4282868.634 9    -85306.276 7
 86  6 19 23 44 35.0800000  0  4G 6G 8G 9G11
  20512917.953    20512917.576    -4108274.739 8   -303672.415 7
  22512984.939    22512988.540     6879292.182 9   8077901.682 8
  21767662.584    21767664.949    -9935191.267 9  -4893341.993 9
  20578395.450    20578397.500    -4282654.965 9    -85139.791 8
 86  6 19 23 44 41.0800000  0  4G 6G 8G 9G11
  20512535.559    20512535.864    -4110286.560 8   -305240.067 7
  22516717.804    22516718.206     6898895.403 9   8093176.920 9
  21764668.401    21764670.551    -9950929.240 9  -4905605.338 9
  20578441.441    20578442.129    -4282418.048 8    -84955.163 7
 86  6 19 23 44 47.0800000  0  4G 6G 8G 9G11
  20512155.439    20512154.667    -4112281.887 9   -306794.872 8
  22520447.498    22520450.838     6918510.292 9   8108461.245 9
  21761675.319    21761676.068    -9966660.611 9  -4917863.536 9
  20578490.702    20578492.229    -4282157.957 8    -84752.492 7
 86  6 19 23 44 53.0800000  0  4G 6G 8G 9G11
  20511778.243    20511780.763    -4114260.656 8   -308336.774 9
  22524184.298    22524185.310     6938136.855 9   8123754.658 8
  21758683.293    21758682.986    -9982385.222 9  -4930116.490 9
  20578544.067    20578545.827    -4281874.587 9    -84531.689 7
 86  6 19 23 44 59.0800000  0  4G 6G 8G 9G11
  20511405.539    20511405.956    -4116222.905 8   -309865.803 8
  22527921.015    22527923.676     6957775.081 9   8139057.185 9
  21755691.435    21755692.275    -9998103.160 9  -4942364.216 8
  20578601.743    20578604.609    -4281568.054 9    -84292.814 7
 86  6 19 23 45  5.0800000  0  4G 6G 8G 9G11
  20511033.912    20511035.030    -4118168.599 8   -311381.931 9
  22531659.962    22531663.611     6977424.895 9   8154368.709 8
  21752702.445    21752702.326   -10013814.461 9  -4954606.786 8
  20578665.570    20578665.910    -4281238.315 9    -84035.881 8
 86  6 19 23 45 11.0800000  0  4G 6G 8G 9G11
  20510667.196    20510667.155    -4120097.681 9   -312885.108 8
  22535401.518    22535404.831     6997086.308 9   8169689.289 9
  21749713.989    21749714.027   -10029519.005 9  -4966844.083 9
  20578731.653    20578732.657    -4280885.358 8    -83760.848 8
 86  6 19 23 45 17.0800000  0  4G 6G 8G 9G11
  20510303.955    20510304.105    -4122010.263 8   -314375.427 8
  22539144.890    22539147.717     7016759.251 9   8185018.850 9
  21746726.223    21746727.755   -10045216.767 8  -4979076.099 8
  20578804.630    20578805.939    -4280509.240 9    -83467.777 7
 86  6 19 23 45 23.0800000  0  4G 6G 8G 9G11
  20509942.435    20509943.315    -4123906.244 9   -315852.806 8
  22542892.619    22542893.689     7036443.740 9   8200357.405 8
  21743740.937    21743740.923   -10060907.780 8  -4991302.868 8
  20578880.621    20578880.992    -4280109.983 8    -83156.664 8
 86  6 19 23 45 29.0800000  0  4G 6G 8G 9G11
  20509584.866    20509586.613    -4125785.603 9   -317317.244 8
  22546639.153    22546641.987     7056139.690 9   8215704.895 8
  21740755.716    21740756.746   -10076592.029 8  -5003524.347 9
  20578959.293    20578962.618    -4279687.565 9    -82827.502 8
 86  6 19 23 45 35.0800000  0  4G 6G 8G 9G11
  20509230.146    20509232.222    -4127648.268 8   -318768.681 8
  22550390.664    22550391.508     7075847.124 9   8231061.352 8
  21737772.497    21737774.335   -10092269.391 9  -5015740.465 8
  20579044.871    20579047.939    -4279241.969 9    -82480.288 7
 86  6 19 23 45 41.0800000  0  4G 6G 8G 9G11
  20508879.474    20508880.892    -4129494.316 9   -320207.162 8
  22554142.306    22554144.662     7095566.047 9   8246426.729 8
  21734791.320    21734791.620   -10107939.930 9  -5027951.268 8
  20579133.875    20579137.549    -4278773.297 8    -82115.080 8
 86  6 19 23 45 47.0800000  0  4G 6G 8G 9G11
  20508531.760    20508532.604    -4131323.627 7   -321632.594 8
  22557897.140    22557899.307     7115296.397 9   8261801.033 9
  21731809.663    21731811.343   -10123603.622 9  -5040156.728 8
  20579228.144    20579230.828    -4278281.472 9    -81731.843 8
 86  6 19 23 45 53.0800000  0  4G 6G 8G 9G11
  20508186.004    20508188.198    -4133136.316 9   -323045.074 8
  22561654.731    22561655.760     7135038.162 9   8277184.242 8
  21728829.891    21728831.082   -10139260.457 9  -5052356.860 8
  20579325.103    20579329.515    -4277766.523 9    -81330.576 8
 86  6 19 23 45 59.0800000  0  4G 6G 8G 9G11
  20507844.954    20507845.398    -4134932.264 7   -324444.522 9
  22565412.653    22565413.748     7154791.334 8   8292576.316 8
  21725852.390    21725853.997   -10154910.299 9  -5064551.527 8
  20579427.863    20579432.360    -4277228.439 9    -80911.293 8
 86  6 19 23 46  5.0800000  0  4G 6G 8G 9G11
  20507506.415    20507506.439    -4136711.489 8   -325830.932 8
  22569173.619    22569174.297     7174555.872 8   8307977.248 9
  21722875.576    21722876.859   -10170553.210 9  -5076740.809 9
  20579534.887    20579538.790    -4276667.161 8    -80473.934 8
 86  6 19 23 46 11.0800000  0  4G 6G 8G 9G11
  20507172.158    20507172.091    -4138473.973 9   -327204.289 8
  22572935.635    22572939.272     7194331.744 8   8323387.003 8
  21719900.373    21719902.121   -10186189.180 9  -5088924.671 9
  20579646.938    20579649.393    -4276082.720 9    -80018.507 8
 86  6 19 23 46 17.0800000  0  4G 6G 8G 9G11
  20506839.091    20506839.614    -4140219.687 9   -328564.584 8
  22576699.940    22576703.018     7214118.939 8   8338805.597 9
  21716925.540    21716928.422   -10201818.154 9  -5101103.084 7
  20579762.727    20579764.334    -4275475.152 8    -79545.082 8
 86  6 19 23 46 23.0800000  0  4G 6G 8G 9G11
  20506509.631    20506510.522    -4141948.678 9   -329911.853 8
  22580469.355    22580471.485     7233917.312 8   8354232.891 7
  21713952.672    21713955.499   -10217440.176 9  -5113276.081 9
  20579882.830    20579884.414    -4274844.458 8    -79053.618 9
 86  6 19 23 46 29.0800000  0  4G 6G 8G 9G11
  20506183.174    20506183.795    -4143660.931 9   -331246.071 8
  22584238.836    22584241.555     7253727.005 8   8369669.013 9
  21710981.101    21710984.714   -10233055.170 9  -5125443.606 9
  20580006.845    20580009.516    -4274190.693 8    -78544.184 8
 86  6 19 23 46 35.0800000  0  4G 6G 8G 9G11
  20505860.944    20505861.640    -4145356.305 8   -332567.145 7
  22588010.655    22588013.520     7273547.907 9   8385113.861 8
  21708010.512    21708012.924   -10248663.172 9  -5137605.665 9
  20580136.925    20580136.751    -4273513.757 8    -78016.706 7
 86  6 19 23 46 41.0800000  0  4G 6G 8G 9G11
  20505541.935    20505543.269    -4147034.905 8   -333875.149 8
  22591783.570    22591786.535     7293380.066 8   8400567.483 8
  21705042.099    21705045.113   -10264264.110 8  -5149762.238 8
  20580269.341    20580270.877    -4272813.748 9    -77471.227 7
 86  6 19 23 46 47.0800000  0  4G 6G 8G 9G11
  20505227.401    20505226.166    -4148696.687 9   -335170.040 8
  22595560.040    22595562.417     7313223.400 8   8416029.799 9
  21702074.205    21702076.437   -10279858.006 8  -5161913.310 8
  20580407.006    20580406.590    -4272090.668 8    -76907.794 7
 86  6 19 23 46 53.0800000  0  4G 6G 8G 9G11
  20504913.400    20504913.232    -4150341.633 9   -336451.818 8
  22599339.227    22599340.759     7333077.832 9   8431500.793 8
  21699109.089    21699110.288   -10295444.796 9  -5174058.860 8
  20580547.809    20580549.800    -4271344.541 8    -76326.389 7
 86  6 19 23 46 59.0800000  0  4G 6G 8G 9G11
  20504603.663    20504604.242    -4151969.716 9   -337720.460 8
  22603119.517    22603120.985     7352943.407 9   8446980.454 7
  21696144.386    21696145.203   -10311024.504 9  -5186198.871 8
  20580693.687    20580694.735    -4270575.313 8    -75727.011 8
 86  6 19 23 47  5.0800000  0  4G 6G 8G 9G11
  20504295.334    20504296.787    -4153580.934 9   -338975.954 8
  22606902.181    22606904.996     7372820.005 9   8462468.708 8
  21693180.660    21693181.365   -10326597.099 9  -5198333.363 8
  20580844.810    20580847.053    -4269782.980 9    -75109.596 7
 86  6 19 23 47 11.0800000  0  4G 6G 8G 9G11
  20503991.945    20503994.179    -4155175.295 9   -340218.310 8
  22610686.935    22610687.345     7392707.692 8   8477965.616 9
  21690219.725    21690219.877   -10342162.541 9  -5210462.269 9
  20581000.894    20581001.015    -4268967.657 8    -74474.286 7
 86  6 19 23 47 17.0800000  0  4G 6G 8G 9G11
  20503691.595    20503694.014    -4156752.730 8   -341447.484 9
  22614473.514    22614472.931     7412606.441 8   8493471.142 7
  21687259.283    21687259.379   -10357720.820 9  -5222585.598 8
  20581159.747    20581160.877    -4268129.227 8    -73820.967 7
 86  6 19 23 47 23.0800000  0  4G 6G 8G 9G11
  20503394.524    20503395.946    -4158313.259 8   -342663.483 7
  22618260.745    22618263.031     7432516.209 9   8508985.241 8
  21684299.389    21684300.614   -10373271.937 9  -5234703.340 8
  20581323.321    20581324.306    -4267267.809 9    -73149.718 7
 86  6 19 23 47 29.0800000  0  4G 6G 8G 9G11
  20503100.425    20503103.523    -4159856.838 9   -343866.265 8
  22622051.752    22622054.419     7452436.976 8   8524507.904 8
  21681342.413    21681341.224   -10388815.798 9  -5246815.440 9
  20581491.102    20581492.470    -4266383.347 9    -72460.534 8
 86  6 19 23 47 35.0800000  0  4G 6G 8G 9G11
  20502809.730    20502813.266    -4161383.528 8   -345055.893 7
  22625843.768    22625845.529     7472368.628 8   8540039.052 9
  21678385.305    21678387.250   -10404352.467 9  -5258921.931 8
  20581665.390    20581666.758    -4265475.931 9    -71753.467 8
 86  6 19 23 47 41.0800000  0  4G 6G 8G 9G11
  20502523.546    20502525.380    -4162893.302 9   -346232.352 8
  22629637.785    22629642.128     7492311.252 8   8555578.748 8
  21675429.439    21675430.383   -10419881.911 9  -5271022.788 9
  20581841.096    20581843.008    -4264545.572 9    -71028.505 8
 86  6 19 23 47 47.0800000  0  4G 6G 8G 9G11
  20502240.372    20502240.698    -4164386.075 9   -347395.547 8
  22633437.093    22633438.843     7512264.751 8   8571126.923 9
  21672475.589    21672477.309   -10435404.078 9  -5283117.981 8
  20582023.175    20582024.743    -4263592.269 9    -70285.664 8
 86  6 19 23 47 53.0800000  0  4G 6G 8G 9G11
  20501959.757    20501958.876    -4165861.869 9   -348545.514 7
  22637235.030    22637238.418     7532229.154 9   8586683.586 9
  21669522.856    21669523.875   -10450918.984 8  -5295207.498 8
  20582208.671    20582210.697    -4262615.982 9    -69524.930 8
 86  6 19 23 47 59.0800000  0  4G 6G 8G 9G11
  20501680.969    20501682.356    -4167320.718 9   -349682.265 8
  22641037.051    22641038.659     7552204.351 9   8602248.681 9
  21666571.867    21666574.539   -10466426.607 9  -5307291.354 9
  20582400.539    20582402.189    -4261616.687 8    -68746.254 8
 86  6 19 23 48  5.0800000  0  4G 6G 8G 9G11
  20501406.495    20501407.582    -4168762.483 8   -350805.718 8
  22644840.150    22644841.837     7572190.411 9   8617822.231 9
  21663622.441    21663624.409   -10481926.856 9  -5319369.453 9
  20582594.352    20582596.794    -4260594.383 9    -67949.645 8
 86  6 19 23 48 11.0800000  0  4G 6G 8G 9G11
  20501135.686    20501136.583    -4170187.204 9   -351915.901 8
  22648645.337    22648649.167     7592187.306 9   8633404.224 8
  21660675.211    21660677.009   -10497419.838 9  -5331441.901 9
  20582793.803    20582795.850    -4259549.063 8    -67135.109 8
 86  6 19 23 48 17.0800000  0  4G 6G 8G 9G11
  20500867.634    20500868.694    -4171594.942 9   -353012.830 8
  22652452.082    22652454.098     7612194.947 8   8648994.598 7
  21657728.218    21657729.381   -10512905.364 9  -5343508.532 8
  20582996.498    20582999.093    -4258480.771 9    -66302.670 8
 86  6 19 23 48 23.0800000  0  4G 6G 8G 9G11
  20500602.330    20500604.442    -4172985.589 9   -354096.452 8
  22656261.815    22656265.696     7632213.354 9   8664593.361 9
  21654782.537    21654785.155   -10528383.488 9  -5355569.398 9
  20583203.924    20583206.343    -4257389.513 9    -65452.330 8
 86  6 19 23 48 29.0800000  0  4G 6G 8G 9G11
  20500342.184    20500343.161    -4174359.165 8   -355166.773 8
  22660075.287    22660075.832     7652242.438 9   8680200.424 8
  21651838.493    21651840.961   -10543854.280 9  -5367624.558 9
  20583415.654    20583419.383    -4256275.371 9    -64584.178 8
 86  6 19 23 48 35.0800000  0  4G 6G 8G 9G11
  20500084.343    20500084.433    -4175715.686 8   -356223.804 8
  22663886.628    22663889.461     7672282.239 8   8695815.849 8
  21648896.651    21648898.598   -10559317.610 9  -5379673.892 9
  20583633.086    20583633.228    -4255138.326 9    -63698.155 9
 86  6 19 23 48 41.0800000  0  4G 6G 8G 9G11
  20499829.348    20499830.377    -4177055.112 9   -357267.517 8
  22667702.585    22667704.863     7692332.698 8   8711439.581 9
  21645955.234    21645957.552   -10574773.471 9  -5391717.416 9
  20583853.076    20583855.047    -4253978.367 8    -62794.285 7
 86  6 19 23 48 47.0800000  0  4G 6G 8G 9G11
  20499577.832    20499578.369    -4178377.450 8   -358297.908 8
  22671521.412    22671522.499     7712393.826 8   8727071.614 9
  21643014.400    21643017.905   -10590221.877 9  -5403755.129 8
  20584078.342    20584080.067    -4252795.442 9    -61872.517 7
 86  6 19 23 48 53.0800000  0  4G 6G 8G 9G11
  20499330.111    20499330.422    -4179682.652 9   -359314.944 7
  22675338.803    22675342.309     7732465.490 9   8742711.864 8
  21640076.013    21640077.358   -10605662.969 9  -5415787.137 8
  20584307.098    20584309.846    -4251589.676 9    -60932.972 8
 86  6 19 23 48 59.0800000  0  4G 6G 8G 9G11
  20499084.679    20499084.575    -4180970.723 9   -360318.630 8
  22679162.075    22679162.747     7752547.755 9   8758360.383 8
  21637138.867    21637140.654   -10621096.469 9  -5427813.233 9
  20584540.987    20584542.403    -4250361.024 9    -59975.561 8
 86  6 19 23 49  5.0800000  0  4G 6G 8G 9G11
  20498843.060    20498842.417    -4182241.619 9   -361308.961 8
  22682984.719    22682986.763     7772640.606 9   8774017.149 9
  21634203.746    21634205.201   -10636522.472 9  -5439833.495 8
  20584779.558    20584781.290    -4249109.440 9    -59000.312 7
 86  6 19 23 49 11.0800000  0  4G 6G 8G 9G11
  20498603.290    20498603.999    -4183495.356 8   -362285.891 8
  22686811.440    22686813.212     7792744.000 9   8789682.124 8
  21631270.302    21631271.743   -10651940.932 9  -5451847.876 8
  20585022.036    20585023.221    -4247835.009 9    -58007.243 7
 86  6 19 23 49 17.0800000  0  4G 6G 8G 9G11
  20498368.305    20498369.475    -4184731.916 9   -363249.436 9
  22690638.789    22690639.948     7812857.823 9   8805355.238 9
  21628336.609    21628338.850   -10667351.896 9  -5463856.413 8
  20585269.075    20585269.363    -4246537.721 9    -56996.374 8
 86  6 19 23 49 23.0800000  0  4G 6G 8G 9G11
  20498136.123    20498137.278    -4185951.292 9   -364199.604 8
  22694467.356    22694469.316     7832982.191 9   8821036.559 8
  21625405.618    21625407.427   -10682755.254 8  -5475859.016 9
  20585520.185    20585521.654    -4245217.565 9    -55967.679 8
 86  6 19 23 49 29.0800000  0  4G 6G 8G 9G11
  20497906.604    20497908.716    -4187153.471 8   -365136.354 9
  22698298.772    22698300.634     7853116.957 9   8836725.992 9
  21622476.552    21622477.935   -10698151.031 9  -5487855.733 8
  20585775.575    20585776.655    -4243874.536 9    -54921.170 8
 86  6 19 23 49 35.0800000  0  4G 6G 8G 9G11
  20497682.590    20497681.753    -4188338.460 9   -366059.724 8
  22702134.097    22702133.950     7873262.188 9   8852423.566 9
  21619549.506    21619548.556   -10713539.174 9  -5499846.480 8
  20586035.697    20586036.968    -4242508.698 8    -53856.863 8
 86  6 19 23 49 41.0800000  0  4G 6G 8G 9G11
  20497459.384    20497460.435    -4189506.140 9   -366969.596 7
  22705967.026    22705970.239     7893417.808 9   8868129.239 8
  21616622.051    21616622.760   -10728919.648 9  -5511831.262 8
  20586299.980    20586302.097    -4241120.035 9    -52774.802 6
 86  6 19 23 49 47.0800000  0  4G 6G 8G 9G11
  20497240.608    20497242.626    -4190656.643 9   -367866.099 8
  22709805.479    22709806.875     7913583.811 9   8883843.000 8
  21613696.041    21613698.044   -10744292.472 9  -5523810.080 8
  20586568.803    20586570.192    -4239708.557 8    -51674.945 8
 86  6 19 23 49 53.0800000  0  4G 6G 8G 9G11
  20497025.734    20497026.188    -4191789.857 9   -368749.121 8
  22713644.479    22713646.608     7933760.124 9   8899564.799 8
  21610772.205    21610773.453   -10759657.667 9  -5535782.951 9
  20586841.804    20586844.083    -4238274.273 9    -50557.314 7
 86  6 19 23 49 59.0800000  0  4G 6G 8G 9G11
  20496813.209    20496814.401    -4192905.754 9   -369618.641 8
  22717485.825    22717487.456     7953946.802 9   8915294.663 9
  21607850.685    21607851.279   -10775015.207 8  -5547749.860 8
  20587118.733    20587120.781    -4236817.181 9    -49421.918 8
 86  6 19 23 50  5.0800000  0  4G 6G 8G 9G11
  20496603.825    20496605.776    -4194004.388 8   -370474.728 9
  22721329.240    22721331.162     7974143.748 9   8931032.540 9
  21604929.511    21604929.930   -10790365.011 9  -5559710.730 8
  20587399.996    20587401.364    -4235337.296 9    -48268.751 8
 86  6 19 23 50 11.0800000  0  4G 6G 8G 9G11
  20496398.117    20496398.925    -4195085.709 9   -371317.315 9
  22725175.182    22725176.380     7994350.996 9   8946778.447 9
  21602008.792    21602010.860   -10805706.962 9  -5571665.493 8
  20587685.790    20587688.044    -4233834.611 8    -47097.830 7
 86  6 19 23 50 17.0800000  0  4G 6G 8G 9G11
  20496194.480    20496197.769    -4196149.691 8   -372146.395 8
  22729022.520    22729023.781     8014568.450 9   8962532.296 8
  21599090.909    21599092.622   -10821041.225 9  -5583614.265 8
  20587976.953    20587979.118    -4232309.145 9    -45909.157 7
 86  6 19 23 50 23.0800000  0  4G 6G 8G 9G11
  20495996.222    20495998.502    -4197196.283 9   -372961.922 8
  22732871.647    22732872.662     8034796.163 9   8978294.148 8
  21596174.447    21596176.278   -10836367.735 9  -5595556.985 9
  20588270.759    20588272.972    -4230760.914 8    -44702.733 9
 86  6 19 23 50 29.0800000  0  4G 6G 8G 9G11
  20495800.352    20495802.580    -4198225.519 9   -373763.921 8
  22736722.727    22736724.295     8055034.088 9   8994063.948 8
  21593259.125    21593260.960   -10851686.412 9  -5607493.617 8
  20588569.324    20588570.865    -4229189.902 9    -43478.574 8
 86  6 19 23 50 35.0800000  0  4G 6G 8G 9G11
  20495608.128    20495610.088    -4199237.384 9   -374552.377 8
  22740574.888    22740576.415     8075282.160 9   9009841.672 8
  21590344.972    21590347.126   -10866997.220 9  -5619424.118 9
  20588873.502    20588875.977    -4227596.112 9    -42236.650 8
 86  6 19 23 50 41.0800000  0  4G 6G 8G 9G11
  20495419.424    20495419.798    -4200231.895 9   -375327.322 8
  22744430.860    22744432.091     8095540.386 9   9025627.293 8
  21587434.164    21587435.623   -10882300.165 9  -5631348.483 8
  20589181.988    20589183.510    -4225979.567 8    -40977.009 9
 86  6 19 23 50 47.0800000  0  4G 6G 8G 9G11
  20495233.353    20495233.647    -4201208.995 8   -376088.701 9
  22748287.688    22748289.788     8115808.696 9   9041420.774 8
  21584522.994    21584524.446   -10897595.272 9  -5643266.734 8
  20589494.464    20589494.554    -4224340.235 9    -39699.614 7
 86  6 19 23 50 53.0800000  0  4G 6G 8G 9G11
  20495050.223    20495051.697    -4202168.725 9   -376836.542 9
  22752146.688    22752149.663     8136087.095 9   9057222.124 8
  21581614.164    21581615.081   -10912882.479 9  -5655178.844 8
  20589809.201    20589811.703    -4222678.146 8    -38404.470 7
 86  6 19 23 50 59.0800000  0  4G 6G 8G 9G11
  20494870.701    20494870.871    -4203110.986 9   -377570.771 8
  22756006.660    22756009.594     8156375.561 9   9073031.314 9
  21578706.161    21578708.017   -10928161.696 9  -5667084.720 9
  20590129.812    20590132.701    -4220993.295 9    -37091.604 7
 86  6 19 23 51  5.0800000  0  4G 6G 8G 9G11
  20494695.389    20494694.803    -4204035.784 8   -378291.389 8
  22759869.211    22759872.706     8176674.069 9   9088848.321 8
  21575800.762    21575802.278   -10943433.024 9  -5678984.454 8
  20590455.604    20590456.396    -4219285.697 8    -35760.997 9
 86  6 19 23 51 11.0800000  0  4G 6G 8G 9G11
  20494523.261    20494522.281    -4204943.184 8   -378998.463 7
  22763734.932    22763735.759     8196982.608 9   9104673.156 8
  21572895.398    21572897.174   -10958696.533 9  -5690878.094 9
  20590783.103    20590786.285    -4217555.402 8    -34412.731 8
 86  6 19 23 51 17.0800000  0  4G 6G 8G 9G11
  20494353.772    20494352.116    -4205833.144 9   -379691.922 8
  22767601.646    22767603.849     8217301.082 9   9120505.729 8
  21569992.864    21569993.839   -10973952.077 9  -5702765.519 9
  20591117.310    20591119.750    -4215802.448 8    -33046.791 8
 86  6 19 23 51 23.0800000  0  4G 6G 8G 9G11
  20494187.791    20494187.054    -4206705.551 9   -380371.718 7
  22771469.448    22771471.365     8237629.531 9   9136346.080 9
  21567092.515    21567092.829   -10989199.588 9  -5714646.684 8
  20591454.986    20591458.482    -4214026.804 9    -31663.171 8
 86  6 19 23 51 29.0800000  0  4G 6G 8G 9G11
  20494024.512    20494024.184    -4207560.482 9   -381037.900 8
  22775339.801    22775342.288     8257967.902 9   9152194.151 8
  21564192.109    21564193.510   -11004439.177 9  -5726521.683 8
  20591797.493    20591799.723    -4212228.524 9    -30261.910 8
 86  6 19 23 51 35.0800000  0  4G 6G 8G 9G11
  20493864.815    20493865.936    -4208397.878 9   -381690.399 9
  22779212.914    22779213.666     8278316.211 8   9168049.992 9
  21561294.866    21561295.056   -11019670.603 9  -5738390.324 9
  20592144.764    20592146.922    -4210407.552 8    -28842.967 7
 86  6 19 23 51 41.0800000  0  4G 6G 8G 9G11
  20493709.108    20493708.448    -4209217.753 9   -382329.279 8
  22783084.592    22783090.026     8298674.420 9   9183913.514 9
  21558397.710    21558398.343   -11034894.035 9  -5750252.731 8
  20592495.399    20592496.755    -4208563.922 8    -27406.363 8
 86  6 19 23 51 47.0800000  0  4G 6G 8G 9G11
  20493556.395    20493557.157    -4210020.100 8   -382954.493 8
  22786962.308    22786965.181     8319042.447 8   9199784.708 9
  21555501.007    21555503.296   -11050109.406 9  -5762108.860 9
  20592850.297    20592852.429    -4206697.654 9    -25952.133 8
 86  6 19 23 51 53.0800000  0  4G 6G 8G 9G11
  20493406.560    20493408.891    -4210804.881 9   -383566.011 8
  22790840.044    22790841.776     8339420.334 9   9215663.583 9
  21552606.843    21552608.051   -11065316.672 9  -5773958.672 9
  20593210.154    20593212.181    -4204808.743 9    -24480.252 9
 86  6 19 23 51 59.0800000  0  4G 6G 8G 9G11
  20493261.820    20493261.462    -4211572.125 9   -384163.862 8
  22794717.994    22794722.540     8359808.046 9   9231550.099 9
  21549715.108    21549715.861   -11080515.811 9  -5785802.150 8
  20593572.995    20593575.358    -4202897.245 8    -22990.788 8
 86  6 19 23 52  5.0800000  0  4G 6G 8G 9G11
  20493119.186    20493119.479    -4212321.798 8   -384748.022 8
  22798601.506    22798603.966     8380205.446 9   9247444.161 9
  21546824.514    21546825.433   -11095706.883 9  -5797639.349 9
  20593942.098    20593943.363    -4200963.131 9    -21483.670 8
 86  6 19 23 52 11.0800000  0  4G 6G 8G 9G11
  20492978.767    20492980.336    -4213053.910 9   -385318.490 9
  22802484.222    22802486.648     8400612.602 9   9263345.843 9
  21543935.386    21543935.807   -11110889.723 9  -5809470.127 9
  20594313.433    20594315.019    -4199006.423 9    -19958.953 8
 86  6 19 23 52 17.0800000  0  4G 6G 8G 9G11
  20492843.881    20492844.992    -4213768.433 8   -385875.261 9
  22806369.009    22806372.167     8421029.473 9   9279255.079 8
  21541047.728    21541048.988   -11126064.394 9  -5821294.556 8
  20594689.716    20594691.085    -4197027.095 8    -18416.625 8
 86  6 19 23 52 23.0800000  0  4G 6G 8G 9G11
  20492711.202    20492712.417    -4214465.308 9   -386418.281 8
  22810256.971    22810259.290     8441455.988 9   9295171.843 9
  21538162.091    21538162.598   -11141230.944 9  -5833112.655 9
  20595070.590    20595074.238    -4195025.204 8    -16856.709 7
 86  6 19 23 52 29.0800000  0  4G 6G 8G 9G11
  20492580.702    20492581.951    -4215144.556 9   -386947.565 8
  22814144.216    22814147.670     8461892.218 9   9311096.162 8
  21535276.064    21535278.639   -11156389.350 9  -5844924.394 8
  20595456.079    20595457.106    -4193000.771 8    -15279.230 8
 86  6 19 23 52 35.0800000  0  4G 6G 8G 9G11
  20492455.610    20492456.815    -4215806.184 9   -387463.108 9
  22818037.323    22818038.368     8482338.056 9   9327027.989 9
  21532394.040    21532394.953   -11171539.488 9  -5856729.688 9
  20595845.843    20595847.241    -4190953.790 8    -13684.176 8
 86  6 19 23 52 41.0800000  0  4G 6G 8G 9G11
  20492332.477    20492334.032    -4216450.170 9   -387964.919 8
  22821927.905    22821929.722     8502793.496 9   9342967.287 8
  21529512.350    21529514.574   -11186681.425 9  -5868528.606 7
  20596240.166    20596242.346    -4188884.269 8    -12071.568 8
 86  6 19 23 52 47.0800000  0  4G 6G 8G 9G11
  20492213.430    20492213.890    -4217076.494 9   -388452.968 8
  22825822.321    22825824.914     8523258.557 8   9358914.099 8
  21526631.818    21526634.493   -11201815.040 9  -5880321.032 9
  20596638.897    20596639.208    -4186792.224 8    -10441.397 8
 86  6 19 23 52 53.0800000  0  4G 6G 8G 9G11
  20492097.463    20492098.142    -4217685.127 9   -388927.216 9
  22829718.817    22829721.585     8543733.183 8   9374868.347 9
  21523754.239    21523756.105   -11216940.426 9  -5892107.046 9
  20597039.384    20597041.865    -4184677.668 8     -8793.701 8
 86  6 19 23 52 59.0800000  0  4G 6G 8G 9G11
  20491986.452    20491985.330    -4218276.054 9   -389387.675 8
  22833617.553    22833618.614     8564217.314 9   9390829.998 9
  21520877.996    21520879.630   -11232057.462 9  -5903886.539 9
  20597446.022    20597449.399    -4182540.583 8     -7128.437 7
 86  6 19 23 53  5.0800000  0  4G 6G 8G 9G11
  20491877.610    20491875.732    -4218849.211 9   -389834.285 8
  22837516.766    22837517.151     8584710.987 9   9406799.099 9
  21518002.306    21518003.761   -11247166.132 9  -5915659.523 8
  20597858.642    20597860.121    -4180380.937 9     -5445.585 8
 86  6 19 23 53 11.0800000  0  4G 6G 8G 9G11
  20491770.811    20491770.848    -4219404.697 8   -390267.140 8
  22841417.627    22841419.669     8605214.144 9   9422775.571 8
  21515129.030    21515130.761   -11262266.494 9  -5927426.032 9
  20598273.266    20598275.097    -4178198.771 8     -3745.205 9
 86  6 19 23 53 17.0800000  0  4G 6G 8G 9G11
  20491668.691    20491668.572    -4219942.400 8   -390686.121 9
  22845321.347    22845322.190     8625726.763 9   9438759.421 8
  21512257.524    21512258.690   -11277358.459 9  -5939185.990 9
  20598692.945    20598694.501    -4175994.140 8     -2027.310 8
 86  6 19 23 53 23.0800000  0  4G 6G 8G 9G11
  20491568.343    20491569.141    -4220462.316 9   -391091.261 9
  22849227.087    22849227.813     8646248.769 9   9454750.607 9
  21509387.255    21509388.793   -11292442.019 9  -5950939.416 8
  20599115.629    20599118.452    -4173766.985 8      -291.866 8
 86  6 19 23 53 29.0800000  0  4G 6G 8G 9G11
  20491472.917    20491476.164    -4220964.515 9   -391482.580 8
  22853133.705    22853136.291     8666780.268 8   9470749.163 9
  21506517.778    21506520.086   -11307517.115 8  -5962686.242 9
  20599543.951    20599547.219    -4171517.362 8      1461.082 9
 86  6 19 23 53 35.0800000  0  4G 6G 8G 9G11
  20491380.364    20491382.903    -4221448.926 9   -391860.042 8
  22857042.916    22857044.081     8687321.126 8   9486755.024 8
  21503650.531    21503652.837   -11322583.804 9  -5974426.521 9
  20599975.415    20599979.630    -4169245.259 8      3231.567 8
 86  6 19 23 53 41.0800000  0  4G 6G 8G 9G11
  20491292.450    20491293.813    -4221915.536 9   -392223.642 9
  22860953.585    22860955.893     8707871.321 8   9502768.160 9
  21500784.484    21500787.796   -11337642.096 8  -5986160.246 8
  20600412.617    20600415.184    -4166950.668 8      5019.547 8
 86  6 19 23 53 47.0800000  0  4G 6G 8G 9G11
  20491208.118    20491209.947    -4222364.331 9   -392573.360 7
  22864866.446    22864866.354     8728430.878 8   9518788.584 8
  21497920.555    21497923.223   -11352691.859 9  -5997887.330 9
  20600852.452    20600857.393    -4164633.675 8      6825.008 7
 86  6 19 23 53 53.0800000  0  4G 6G 8G 9G11
  20491126.142    20491126.476    -4222795.342 9   -392909.212 9
  22868779.463    22868781.225     8748999.740 8   9534816.239 9
  21495058.460    21495060.724   -11367733.066 9  -6009607.743 8
  20601299.349    20601302.266    -4162294.251 8      8647.942 8
 86  6 19 23 53 59.0800000  0  4G 6G 8G 9G11
  20491047.070    20491047.088    -4223208.533 8   -393231.172 9
  22872696.077    22872697.129     8769577.809 8   9550851.095 8
  21492197.596    21492199.045   -11382765.871 9  -6021321.616 8
  20601748.903    20601751.154    -4159932.417 8     10488.332 7
 86  6 19 23 54  5.0800000  0  4G 6G 8G 9G11
  20490972.358    20490971.431    -4223603.836 9   -393539.207 8
  22876613.434    22876615.355     8790165.156 8   9566893.179 9
  21489339.220    21489341.527   -11397790.101 9  -6033028.797 9
  20602203.097    20602204.934    -4157548.148 8     12346.208 8
 86  6 19 23 54 11.0800000  0  4G 6G 8G 9G11
  20490899.301    20490899.644    -4223981.260 8   -393833.294 8
  22880533.563    22880534.057     8810761.742 8   9582942.460 8
  21486481.645    21486483.665   -11412805.802 9  -6044729.344 8
  20602661.774    20602662.997    -4155141.460 8     14221.545 8
 86  6 19 23 54 17.0800000  0  4G 6G 8G 9G11
  20490831.115    20490832.115    -4224340.816 9   -394113.463 9
  22884454.192    22884455.155     8831367.515 8   9598998.906 9
  21483626.731    21483627.170   -11427812.900 9  -6056423.181 8
  20603124.028    20603125.224    -4152712.342 8     16114.374 7
 86  6 19 23 54 23.0800000  0  4G 6G 8G 9G11
  20490765.991    20490767.094    -4224682.499 8   -394379.711 9
  22888376.228    22888378.522     8851982.451 8   9615062.490 8
  21480773.017    21480773.540   -11442811.404 9  -6068110.327 9
  20603590.891    20603590.503    -4150260.844 9     18024.615 7
 86  6 19 23 54 29.0800000  0  4G 6G 8G 9G11
  20490704.026    20490703.739    -4225006.296 9   -394632.025 8
  22892302.226    22892303.565     8872606.523 9   9631133.179 9
  21477921.082    21477920.945   -11457801.318 9  -6079790.781 9
  20604059.675    20604062.716    -4147786.995 9     19952.297 8
 86  6 19 23 54 35.0800000  0  4G 6G 8G 9G11
  20490646.114    20490647.014    -4225312.136 8   -394870.345 8
  22896228.427    22896230.259     8893239.760 9   9647211.036 9
  21475069.654    21475070.167   -11472782.515 9  -6091464.444 8
  20604535.089    20604537.109    -4145290.754 9     21897.413 7
 86  6 19 23 54 41.0800000  0  4G 6G 8G 9G11
  20490590.983    20490592.325    -4225600.045 8   -395094.682 7
  22900156.181    22900158.768     8913882.116 8   9663295.961 9
  21472220.759    21472220.821   -11487754.993 9  -6103131.303 9
  20605014.235    20605015.508    -4142772.119 8     23859.987 7
 86  6 19 23 54 47.0800000  0  4G 6G 8G 9G11
  20490539.253    20490540.268    -4225870.004 9   -395305.040 8
  22904086.369    22904088.152     8934533.564 8   9679387.983 9
  21469373.514    21469374.162   -11502718.807 9  -6114791.412 8
  20605497.362    20605500.473    -4140231.200 8     25839.920 8
 86  6 19 23 54 53.0800000  0  4G 6G 8G 9G11
  20490492.216    20490493.576    -4226122.041 8   -395501.430 9
  22908015.170    22908020.283     8955194.036 9   9695487.041 8
  21466526.673    21466527.835   -11517673.937 8  -6126444.773 9
  20605985.248    20605987.434    -4137667.896 9     27837.302 8
 86  6 19 23 54 59.0800000  0  4G 6G 8G 9G11
  20490446.884    20490448.138    -4226356.100 8   -395683.813 8
  22911949.850    22911952.703     8975863.518 9   9711593.122 8
  21463682.434    21463683.957   -11532620.376 9  -6138091.338 9
  20606477.753    20606479.642    -4135082.227 8     29852.120 7
 86  6 19 23 55  5.0800000  0  4G 6G 8G 9G11
  20490406.589    20490407.437    -4226572.204 9   -395852.215 8
  22915886.096    22915888.039     8996541.982 8   9727706.197 8
  21460840.108    21460842.062   -11547558.099 9  -6149731.112 9
  20606972.583    20606976.357    -4132474.307 8     31884.256 8
 86  6 19 23 55 11.0800000  0  4G 6G 8G 9G11
  20490369.098    20490369.638    -4226770.259 9   -396006.534 9
  22919821.999    22919825.185     9017229.414 8   9743826.277 9
  21457998.847    21458000.371   -11562487.003 9  -6161364.025 9
  20607474.359    20607476.363    -4129844.100 8     33933.773 8
 86  6 19 23 55 17.0800000  0  4G 6G 8G 9G11
  20490335.409    20490336.440    -4226950.309 9   -396146.842 8
  22923759.991    22923763.774     9037925.769 9   9759953.304 9
  21455158.792    21455161.274   -11577407.132 9  -6172990.088 8
  20607979.247    20607981.068    -4127191.604 8     36000.659 9
 86  6 19 23 55 23.0800000  0  4G 6G 8G 9G11
  20490303.763    20490304.211    -4227112.363 7   -396273.121 8
  22927701.684    22927702.798     9058631.042 9   9776087.277 8
  21452321.221    21452323.472   -11592318.393 9  -6184609.252 9
  20608488.376    20608490.523    -4124516.866 8     38084.872 8
 86  6 19 23 55 29.0800000  0  4G 6G 8G 9G11
  20490276.004    20490276.963    -4227256.373 9   -396385.338 9
  22931644.004    22931644.670     9079345.210 9   9792228.192 8
  21449486.825    21449487.718   -11607220.898 9  -6196221.587 9
  20609000.607    20609003.527    -4121819.870 8     40186.428 8
 86  6 19 23 55 35.0800000  0  4G 6G 8G 9G11
  20490251.369    20490253.161    -4227382.372 9   -396483.518 8
  22935585.271    22935588.426     9100068.201 9   9808375.964 9
  21446652.457    21446653.727   -11622114.553 9  -6207827.030 8
  20609518.543    20609520.994    -4119100.625 9     42305.325 8
 86  6 19 23 55 41.0800000  0  4G 6G 8G 9G11
  20490231.340    20490232.519    -4227490.333 9   -396567.638 8
  22939531.182    22939532.726     9120800.013 9   9824530.612 9
  21443818.784    21443820.631   -11636999.326 9  -6219425.548 9
  20610040.639    20610042.042    -4116359.123 8     44441.579 8
 86  6 19 23 55 47.0800000  0  4G 6G 8G 9G11
  20490214.507    20490214.852    -4227580.178 9   -396637.648 8
  22943478.818    22943479.208     9141540.706 9   9840692.200 9
  21440988.995    21440990.032   -11651875.217 8  -6231017.148 8
  20610566.606    20610568.988    -4113595.297 7     46595.189 8
 86  6 19 23 55 53.0800000  0  4G 6G 8G 9G11
  20490199.889    20490200.932    -4227651.992 8   -396693.607 8
  22947426.382    22947428.821     9162290.131 9   9856860.557 8
  21438159.294    21438160.533   -11666742.255 9  -6242601.855 9
  20611097.010    20611098.928    -4110809.383 8     48766.039 8
 86  6 19 23 55 59.0800000  0  4G 6G 8G 9G11
  20490190.565    20490190.138    -4227705.642 9   -396735.408 8
  22951376.594    22951379.405     9183048.368 9   9873035.806 9
  21435333.144    21435333.565   -11681600.229 9  -6254179.485 8
  20611631.775    20611633.262    -4108001.131 8     50954.295 8
 86  6 19 23 56  5.0800000  0  4G 6G 8G 9G11
  20490184.108    20490183.687    -4227741.201 9   -396763.124 8
  22955328.376    22955331.251     9203815.300 9   9889217.828 9
  21432507.278    21432508.328   -11696449.355 9  -6265750.224 9
  20612169.724    20612172.516    -4105170.777 9     53159.747 8
 86  6 19 23 56 11.0800000  0  4G 6G 8G 9G11
  20490181.441    20490180.874    -4227758.696 8   -396776.758 7
  22959280.529    22959285.065     9224590.845 9   9905406.551 9
  21429683.101    21429683.422   -11711289.500 9  -6277313.967 9
  20612713.283    20612716.395    -4102318.270 9     55382.495 7
 86  6 19 23 56 17.0800000  0  4G 6G 8G 9G11
  20490180.382    20490181.978    -4227758.062 8   -396776.256 8
  22963237.970    22963239.573     9245375.116 9   9921602.075 9
  21426860.551    21426861.880   -11726120.709 8  -6288870.765 9
  20613259.876    20613260.900    -4099443.618 8     57622.477 9
 86  6 19 23 56 23.0800000  0  4G 6G 8G 9G11
  20490183.817    20490185.172    -4227739.256 9   -396761.616 8
  22967194.306    22967196.290     9266168.009 9   9937804.340 8
  21424040.755    21424041.424   -11740942.889 9  -6300420.497 8
  20613811.485    20613813.285    -4096546.767 9     59879.760 8
 86  6 19 23 56 29.0800000  0  4G 6G 8G 9G11
  20490191.189    20490191.528    -4227702.253 9   -396732.770 8
  22971153.473    22971155.344     9286969.632 9   9954013.391 9
  21421221.990    21421221.907   -11755755.929 9  -6311963.123 8
  20614366.692    20614367.854    -4093627.687 8     62154.382 8
 86  6 19 23 56 35.0800000  0  4G 6G 8G 9G11
  20490202.407    20490203.049    -4227646.970 8   -396689.704 8
  22975113.009    22975115.156     9307779.921 9   9970229.203 9
  21418404.023    21418405.723   -11770559.806 9  -6323498.612 9
  20614927.527    20614928.603    -4090686.352 8     64446.328 8
 86  6 19 23 56 41.0800000  0  4G 6G 8G 9G11
  20490215.571    20490215.819    -4227573.638 9   -396632.558 7
  22979074.865    22979075.619     9328598.648 9   9986451.578 9
  21415589.408    21415589.927   -11785354.776 9  -6335027.151 8
  20615491.213    20615493.083    -4087723.023 9     66755.417 8
 86  6 19 23 56 47.0800000  0  4G 6G 8G 9G11
  20490232.582    20490233.145    -4227481.967 9   -396561.135 8
  22983038.012    22983040.525     9349426.062 9  10002680.729 9
  21412775.699    21412776.733   -11800140.459 9  -6346548.453 7
  20616058.775    20616060.600    -4084737.471 8     69081.812 7
 86  6 19 23 56 53.0800000  0  4G 6G 8G 9G11
  20490253.587    20490254.968    -4227372.156 9   -396475.562 8
  22987002.407    22987004.988     9370261.939 9  10018916.472 9
  21409963.400    21409963.869   -11814917.085 9  -6358062.714 9
  20616629.643    20616632.244    -4081729.868 9     71425.403 8
 86  6 19 23 56 59.0800000  0  4G 6G 8G 9G11
  20490278.599    20490278.999    -4227244.089 8   -396375.767 8
  22990969.017    22990970.450     9391106.346 9  10035158.862 8
  21407152.162    21407153.409   -11829684.578 9  -6369569.848 9
  20617206.983    20617209.010    -4078700.143 9     73786.223 7
 86  6 19 23 57  5.0800000  0  4G 6G 8G 9G11
  20490306.807    20490307.280    -4227097.744 8   -396261.731 9
  22994936.939    22994940.382     9411959.256 9  10051407.874 9
  21404343.923    21404345.006   -11844442.910 9  -6381069.844 9
  20617786.687    20617790.265    -4075648.279 8     76164.307 8
 86  6 19 23 57 11.0800000  0  4G 6G 8G 9G11
  20490337.600    20490339.478    -4226933.169 8   -396133.498 8
  22998907.398    22998910.407     9432820.631 9  10067663.484 9
  21401536.628    21401538.452   -11859192.056 9  -6392562.674 9
  20618371.788    20618374.923    -4072574.302 9     78559.611 8
 86  6 19 23 57 17.0800000  0  4G 6G 8G 9G11
  20490372.239    20490374.430    -4226750.313 8   -395991.011 9
  23002879.396    23002880.976     9453690.420 9  10083925.651 9
  21398731.801    21398733.986   -11873931.959 9  -6404048.309 8
  20618961.901    20618964.176    -4069478.266 8     80972.114 9
 86  6 19 23 57 23.0800000  0  4G 6G 8G 9G11
  20490411.120    20490413.683    -4226549.144 9   -395834.259 8
  23006851.435    23006854.190     9474568.666 9  10100194.409 8
  21395927.969    21395929.477   -11888662.612 8  -6415526.733 9
  20619555.437    20619556.099    -4066360.141 8     83401.823 8
 86  6 19 23 57 29.0800000  0  4G 6G 8G 9G11
  20490452.010    20490455.128    -4226329.739 9   -395663.294 8
  23010826.910    23010829.796     9495455.263 9  10116469.673 9
  21393128.206    21393128.413   -11903384.073 9  -6426997.986 9
  20620151.405    20620155.127    -4063219.990 9     85848.700 7
 86  6 19 23 57 35.0800000  0  4G 6G 8G 9G11
  20490497.261    20490500.002    -4226091.950 8   -395477.999 7
  23014803.279    23014805.156     9516350.236 9  10132751.472 9
  21390327.838    21390329.890   -11918096.178 9  -6438461.966 9
  20620755.007    20620757.342    -4060057.761 9     88312.774 7
 86  6 19 23 57 41.0800000  0  4G 6G 8G 9G11
  20490546.319    20490548.418    -4225835.886 8   -395278.473 7
  23018779.230    23018783.099     9537253.490 9  10149039.716 8
  21387530.333    21387531.256   -11932799.050 9  -6449918.747 8
  20621360.131    20621362.610    -4056873.554 7     90793.974 8
 86  6 19 23 57 47.0800000  0  4G 6G 8G 9G11
  20490597.580    20490599.529    -4225561.499 8   -395064.661 8
  23022760.207    23022761.837     9558165.059 8  10165334.438 8
  21384734.090    21384735.106   -11947492.647 8  -6461368.284 8
  20621970.254    20621972.846    -4053667.335 9     93292.333 8
 86  6 19 23 57 53.0800000  0  4G 6G 8G 9G11
  20490653.357    20490654.238    -4225268.742 9   -394836.549 8
  23026741.851    23026742.655     9579084.896 9  10181635.614 8
  21381938.814    21381941.330   -11962176.808 9  -6472810.477 8
  20622585.952    20622588.018    -4050439.110 8     95807.828 8
 86  6 19 23 57 59.0800000  0  4G 6G 8G 9G11
  20490712.769    20490713.350    -4224957.654 9   -394594.134 8
  23030721.805    23030725.100     9600012.970 9  10197943.182 8
  21379146.514    21379148.557   -11976851.700 9  -6484245.455 9
  20623203.157    20623206.023    -4047188.945 9     98340.434 7
 86  6 19 23 58  5.0800000  0  4G 6G 8G 9G11
  20490776.129    20490776.182    -4224628.207 8   -394337.427 8
  23034707.930    23034710.543     9620949.269 8  10214257.175 9
  21376355.849    21376357.795   -11991517.181 9  -6495673.089 9
  20623826.305    20623827.802    -4043916.820 9    100890.138 8
 86  6 19 23 58 11.0800000  0  4G 6G 8G 9G11
  20490841.774    20490842.743    -4224280.356 9   -394066.363 8
  23038693.645    23038694.610     9641893.750 9  10230577.556 8
  21373568.282    21373569.792   -12006173.214 9  -6507093.369 8
  20624454.631    20624455.475    -4040622.731 9    103456.969 8
 86  6 19 23 58 17.0800000  0  4G 6G 8G 9G11
  20490912.312    20490913.465    -4223914.101 9   -393780.978 9
  23042679.274    23042683.428     9662846.409 9  10246904.293 8
  21370781.706    21370781.846   -12020819.893 8  -6518506.366 9
  20625084.589    20625086.251    -4037306.685 8    106040.903 8
 86  6 19 23 58 23.0800000  0  4G 6G 8G 9G11
  20490984.379    20490985.966    -4223529.490 9   -393481.276 9
  23046668.751    23046671.718     9683807.212 8  10263237.371 9
  21367995.849    21367995.757   -12035457.127 9  -6529911.991 8
  20625718.829    20625721.660    -4033968.654 9    108641.959 8
 86  6 19 23 58 29.0800000  0  4G 6G 8G 9G11
  20491062.518    20491063.204    -4223126.445 9   -393167.211 8
  23050658.456    23050661.143     9704776.164 9  10279576.806 9
  21365211.825    21365212.974   -12050084.848 9  -6541310.223 8
  20626357.410    20626360.667    -4030608.666 9    111260.124 8
 86  6 19 23 58 35.0800000  0  4G 6G 8G 9G11
  20491142.661    20491143.112    -4222704.973 9   -392838.789 8
  23054651.167    23054652.966     9725753.166 9  10295922.526 9
  21362430.345    21362430.795   -12064703.081 9  -6552701.052 8
  20627001.099    20627003.857    -4027226.758 9    113895.372 8
 86  6 19 23 58 41.0800000  0  4G 6G 8G 9G11
  20491226.444    20491226.715    -4222265.000 8   -392495.973 7
  23058643.750    23058646.648     9746738.277 7  10312274.559 8
  21359650.185    21359650.995   -12079311.818 9  -6564084.483 9
  20627648.931    20627650.832    -4023822.951 9    116547.698 8
 86  6 19 23 58 47.0800000  0  4G 6G 8G 9G11
  20491314.228    20491314.573    -4221806.600 9   -392138.783 7
  23062637.547    23062640.503     9767731.437 8  10328632.842 8
  21356872.028    21356873.453   -12093911.083 9  -6575460.518 8
  20628300.446    20628304.256    -4020397.320 8    119217.024 7
 86  6 19 23 58 53.0800000  0  4G 6G 8G 9G11
  20491404.730    20491405.283    -4221329.779 9   -391767.224 8
  23066634.322    23066636.275     9788732.578 8  10344997.372 8
  21354095.270    21354096.640   -12108500.746 9  -6586829.077 8
  20628956.991    20628959.524    -4016949.819 8    121903.390 8
 86  6 19 23 58 59.0800000  0  4G 6G 8G 9G11
  20491497.271    20491499.591    -4220834.468 9   -391381.279 9
  23070631.856    23070634.870     9809741.671 9  10361368.095 8
  21351321.260    21351322.180   -12123080.879 9  -6598190.216 8
  20629617.037    20629618.828    -4013480.447 8    124606.797 7
 86  6 19 23 59  5.0800000  0  4G 6G 8G 9G11
  20491595.815    20491596.907    -4220320.622 8   -390980.874 8
  23074630.727    23074634.563     9830758.795 8  10377745.057 8
  21348548.139    21348549.094   -12137651.402 9  -6609543.869 8
  20630281.835    20630283.851    -4009989.171 8    127327.260 8
 86  6 19 23 59 11.0800000  0  4G 6G 8G 9G11
  20491697.280    20491698.086    -4219788.280 8   -390566.057 8
  23078632.866    23078634.256     9851783.856 8  10394128.221 9
  21345777.532    21345777.932   -12152212.271 8  -6620889.993 8
  20630949.937    20630951.688    -4006476.059 8    130064.760 7
 86  6 19 23 59 17.0800000  0  4G 6G 8G 9G11
  20491802.069    20491802.814    -4219237.434 9   -390136.832 8
  23082635.111    23082638.301     9872816.831 9  10410517.543 8
  21343007.966    21343009.229   -12166763.524 8  -6632228.631 8
  20631623.644    20631625.534    -4002941.096 8    132819.279 8
 86  6 19 23 59 23.0800000  0  4G 6G 8G 9G11
  20491911.574    20491912.084    -4218668.018 8   -389693.129 8
  23086637.657    23086641.928     9893857.700 9  10426913.019 8
  21340241.766    21340242.575   -12181305.153 9  -6643559.749 8
  20632300.289    20632302.220    -3999384.302 8    135590.811 7
 86  6 19 23 59 29.0800000  0  4G 6G 8G 9G11
  20492023.723    20492023.456    -4218080.113 8   -389235.013 8
  23090643.670    23090646.397     9914906.457 9  10443314.644 9
  21337476.482    21337476.654   -12195837.100 9  -6654883.356 9
  20632980.663    20632983.919    -3995805.715 8    138379.306 8
 86  6 19 23 59 35.0800000  0  4G 6G 8G 9G11
  20492137.430    20492138.539    -4217473.636 8   -388762.429 7
  23094651.512    23094654.484     9935963.037 9  10459722.370 8
  21334711.920    21334713.615   -12210359.285 9  -6666199.326 7
  20633666.729    20633668.501    -3992205.338 8    141184.810 7
 86  6 19 23 59 41.0800000  0  4G 6G 8G 9G11
  20492255.578    20492256.293    -4216848.616 8   -388275.408 8
  23098658.716    23098661.853     9957027.455 8  10476136.184 8
  21331951.223    21331951.914   -12224871.825 9  -6677507.805 8
  20634355.469    20634358.147    -3988583.176 8    144007.275 7
 86  6 19 23 59 47.0800000  0  4G 6G 8G 9G11
  20492379.094    20492379.417    -4216205.007 8   -387773.896 8
  23102669.197    23102672.646     9978099.623 9  10492556.051 8
  21329191.006    21329191.755   -12239374.582 9  -6688808.636 8
  20635049.333    20635052.347    -3984939.279 9    146846.675 8
 86  6 19 23 59 53.0800000  0  4G 6G 8G 9G11
  20492504.100    20492506.411    -4215542.739 8   -387257.846 7
  23106681.756    23106682.202     9999179.635 9  10508982.034 7
  21326432.965    21326433.946   -12253867.470 9  -6700101.793 8
  20635747.181    20635749.000    -3981273.572 8    149703.078 8
 86  6 19 23 59 59.0800000  0  4G 6G 8G 9G11
  20492633.764    20492635.191    -4214861.901 9   -386727.327 8
  23110693.204    23110696.293    10020267.347 9  10525414.007 8
  21323676.700    21323678.251   -12268350.733 8  -6711387.455 8
  20636447.761    20636450.060    -3977586.131 9    152576.405 7
 86  6 20  0  0  5.0800000  0  4G 6G 8G 9G11
  20492766.106    20492768.260    -4214162.461 8   -386182.298 8
  23114708.150    23114710.190    10041362.787 8  10541852.004 8
  21320922.379    21320923.778   -12282824.178 9  -6722665.444 9
  20637154.244    20637155.999    -3973877.018 8    155466.625 8
 86  6 20  0  0 11.0800000  0  4G 6G 8G 9G11
  20492903.593    20492905.208    -4213444.379 8   -385622.762 8
  23118724.594    23118725.814    10062465.879 9  10558295.976 8
  21318170.952    21318171.086   -12297287.818 9  -6733935.818 9
  20637864.030    20637866.069    -3970146.165 8    158373.796 8
 86  6 20  0  0 17.0800000  0  4G 6G 8G 9G11
  20493044.146    20493046.065    -4212707.648 9   -385048.691 8
  23122741.921    23122743.940    10083576.624 8  10574745.925 8
  21315420.839    21315420.231   -12311741.505 9  -6745198.426 9
  20638578.306    20638581.769    -3966393.554 8    161297.906 7
 86  6 20  0  0 23.0800000  0  4G 6G 8G 9G11
  20493188.760    20493189.048    -4211952.326 8   -384460.122 8
  23126760.519    23126761.039    10104694.998 9  10591201.806 8
  21312671.812    21312671.623   -12326185.426 9  -6756453.416 9
  20639296.046    20639298.526    -3962619.274 9    164238.902 8
 86  6 20  0  0 29.0800000  0  4G 6G 8G 9G11
  20493335.239    20493336.003    -4211178.331 8   -383857.018 8
  23130782.219    23130782.202    10125820.962 8  10607663.595 9
  21309925.049    21309924.941   -12340619.493 9  -6767700.729 8
  20640018.862    20640021.133    -3958823.247 8    167196.841 7
 86  6 20  0  0 35.0800000  0  4G 6G 8G 9G11
  20493486.940    20493486.770    -4210385.640 9   -383239.332 7
  23134802.738    23134803.698    10146954.559 9  10624131.335 8
  21307179.773    21307180.431   -12355043.608 9  -6778940.306 9
  20640743.670    20640746.367    -3955005.519 7    170171.703 7
 86  6 20  0  0 41.0800000  0  4G 6G 8G 9G11
  20493641.336    20493642.336    -4209574.247 9   -382607.079 8
  23138826.095    23138827.005    10168095.695 9  10640604.948 8
  21304436.933    21304437.152   -12369457.774 9  -6790172.104 8
  20641475.144    20641477.593    -3951166.140 8    173163.420 7
 86  6 20  0  0 47.0800000  0  4G 6G 8G 9G11
  20493799.595    20493800.295    -4208744.181 8   -381960.269 7
  23142850.824    23142851.665    10189244.366 9  10657084.434 8
  21301696.546    21301696.129   -12383862.031 9  -6801396.194 8
  20642210.629    20642212.460    -3947305.105 8    176172.035 8
 86  6 20  0  0 53.0800000  0  4G 6G 8G 9G11
  20493960.785    20493961.571    -4207895.400 9   -381298.894 9
  23146875.500    23146876.567    10210400.556 9  10673569.772 8
  21298957.222    21298957.849   -12398256.336 9  -6812612.530 8
  20642948.659    20642951.059    -3943422.436 9    179197.485 7
 86  6 20  0  0 59.0800000  0  4G 6G 8G 9G11
  20494126.577    20494127.226    -4207027.893 8   -380622.904 7
  23150904.582    23150905.168    10231564.264 9  10690060.980 7
  21296220.073    21296220.393   -12412640.550 9  -6823821.009 8
  20643693.427    20643695.218    -3939518.108 8    182239.820 8
 86  6 20  0  1  5.0800000  0  4G 6G 8G 9G11
  20494293.972    20494295.167    -4206141.579 9   -379932.273 8
  23154933.000    23154933.046    10252735.425 9  10706557.969 7
  21293485.356    21293485.647   -12427014.739 9  -6835021.672 8
  20644437.732    20644441.621    -3935592.172 8    185298.984 9
 86  6 20  0  1 11.0800000  0  4G 6G 8G 9G11
  20494466.586    20494467.361    -4205236.561 8   -379227.058 8
  23158962.366    23158962.785    10273914.025 9  10723060.794 8
  21290750.127    21290750.953   -12441378.879 9  -6846214.514 9
  20645190.168    20645191.291    -3931644.637 8    188374.993 7
 86  6 20  0  1 17.0800000  0  4G 6G 8G 9G11
  20494641.697    20494642.630    -4204312.835 8   -378507.278 8
  23162993.748    23162994.378    10295100.020 9  10739569.357 8
  21288018.870    21288020.729   -12455733.025 9  -6857399.547 8
  20645945.195    20645947.742    -3927675.493 8    191467.823 7
 86  6 20  0  1 23.0800000  0  4G 6G 8G 9G11
  20494820.991    20494822.698    -4203370.267 9   -377772.811 7
  23167027.096    23167029.122    10316293.394 9  10756083.676 8
  21285289.623    21285290.017   -12470077.090 9  -6868576.736 9
  20646704.548    20646707.015    -3923684.765 8    194577.483 8
 86  6 20  0  1 29.0800000  0  4G 6G 8G 9G11
  20495003.816    20495006.311    -4202408.961 8   -377023.746 8
  23171060.424    23171062.488    10337494.125 9  10772603.725 8
  21282562.982    21282563.387   -12484410.963 8  -6879745.991 8
  20647467.562    20647471.345    -3919672.476 8    197703.947 7
 86  6 20  0  1 35.0800000  0  4G 6G 8G 9G11
  20495190.156    20495190.739    -4201428.877 8   -376260.039 7
  23175097.334    23175098.021    10358702.225 9  10789129.526 8
  21279836.590    21279836.225   -12498734.784 9  -6890907.400 8
  20648237.168    20648239.351    -3915638.646 8    200847.186 7
 86  6 20  0  1 41.0800000  0  4G 6G 8G 9G11
  20495380.732    20495382.288    -4200429.959 9   -375481.675 7
  23179134.063    23179135.041    10379917.621 9  10805661.001 7
  21277112.236    21277112.658   -12513048.466 8  -6902060.901 9
  20649007.403    20649010.444    -3911583.333 9    204007.175 7
 86  6 20  0  1 47.0800000  0  4G 6G 8G 9G11
  20495574.197    20495574.800    -4199412.228 8   -374688.624 9
  23183172.436    23183173.855    10401140.299 9  10822198.143 8
  21274390.369    21274392.225   -12527351.935 9  -6913206.462 9
  20649782.589    20649785.868    -3907506.533 8    207183.897 9
 86  6 20  0  1 53.0800000  0  4G 6G 8G 9G11
  20495771.097    20495772.341    -4198375.631 8   -373880.892 8
  23187213.262    23187213.788    10422370.249 9  10838740.957 8
  21271671.933    21271672.531   -12541645.221 9  -6924344.091 9
  20650564.063    20650566.133    -3903408.283 8    210377.338 8
 86  6 20  0  1 59.0800000  0  4G 6G 8G 9G11
  20495971.478    20495973.706    -4197320.252 9   -373058.512 8
  23191253.430    23191254.314    10443607.396 9  10855289.385 8
  21268952.876    21268954.067   -12555928.341 9  -6935473.773 8
  20651347.644    20651349.909    -3899288.517 9    213587.541 8
 86  6 20  0  2  5.0800000  0  4G 6G 8G 9G11
  20496176.168    20496178.318    -4196245.980 9   -372221.423 8
  23195295.428    23195298.174    10464851.803 9  10871843.454 8
  21266237.395    21266238.830   -12570201.144 9  -6946595.440 8
  20652136.003    20652137.683    -3895147.167 9    216814.573 8
 86  6 20  0  2 11.0800000  0  4G 6G 8G 9G11
  20496383.948    20496386.978    -4195152.828 8   -371369.629 7
  23199340.490    23199342.855    10486103.368 9  10888403.114 9
  21263522.851    21263524.244   -12584463.725 9  -6957709.131 8
  20652929.146    20652930.225    -3890984.351 7    220058.328 8
 86  6 20  0  2 17.0800000  0  4G 6G 8G 9G11
  20496596.377    20496598.396    -4194040.867 9   -370503.158 7
  23203385.179    23203387.424    10507362.119 9  10904968.384 9
  21260811.027    21260811.093   -12598715.976 9  -6968814.771 9
  20653723.877    20653727.734    -3886800.108 9    223318.790 8
 86  6 20  0  2 23.0800000  0  4G 6G 8G 9G11
  20496810.981    20496814.040    -4192909.972 9   -369621.941 8
  23207431.750    23207436.213    10528628.031 9  10921539.224 8
  21258100.840    21258102.737   -12612958.032 9  -6979912.480 8
  20654524.218    20654527.829    -3882594.409 9    226595.956 7
 86  6 20  0  2 29.0800000  0  4G 6G 8G 9G11
  20497031.113    20497033.192    -4191760.129 8   -368725.976 7
  23211482.463    23211484.017    10549901.024 9  10938115.576 8
  21255394.170    21255392.648   -12627189.726 9  -6991002.098 9
  20655328.530    20655332.122    -3878367.286 8    229889.814 9
 86  6 20  0  2 35.0800000  0  4G 6G 8G 9G11
  20497252.837    20497254.278    -4190591.386 8   -367815.250 8
  23215530.327    23215532.291    10571181.112 8  10954697.462 9
  21252687.073    21252685.977   -12641411.064 9  -7002083.651 9
  20656136.367    20656140.286    -3874118.704 7    233200.403 8
 86  6 20  0  2 41.0800000  0  4G 6G 8G 9G11
  20497478.224    20497479.727    -4189403.751 8   -366889.827 8
  23219580.664    23219582.851    10592468.280 9  10971284.861 8
  21249981.859    21249982.412   -12655621.990 9  -7013157.097 8
  20656948.385    20656952.394    -3869848.658 8    236527.715 9
 86  6 20  0  2 47.0800000  0  4G 6G 8G 9G11
  20497708.110    20497709.925    -4188197.203 8   -365949.650 8
  23223633.999    23223635.068    10613762.438 8  10987877.713 8
  21247279.914    21247280.491   -12669822.545 9  -7024222.469 9
  20657765.977    20657768.524    -3865557.236 8    239871.670 8
 86  6 20  0  2 53.0800000  0  4G 6G 8G 9G11
  20497942.378    20497942.890    -4186971.648 8   -364994.674 8
  23227687.590    23227689.784    10635063.659 9  11004476.058 9
  21244578.451    21244580.133   -12684012.707 9  -7035279.734 8
  20658587.241    20658588.689    -3861244.421 8    243232.299 9
 86  6 20  0  2 59.0800000  0  4G 6G 8G 9G11
  20498178.429    20498180.651    -4185727.155 8   -364024.953 8
  23231741.858    23231744.163    10656371.866 9  11021079.862 9
  21241880.651    21241882.333   -12698192.477 9  -7046328.900 9
  20659411.364    20659413.342    -3856910.270 8    246609.567 8
 86  6 20  0  3  5.0800000  0  4G 6G 8G 9G11
  20498419.476    20498420.470    -4184463.721 8   -363040.469 8
  23235799.102    23235799.503    10677686.982 8  11037689.061 9
  21239184.026    21239185.436   -12712361.735 9  -7057369.868 8
  20660239.573    20660243.224    -3852554.756 9    250003.485 8
 86  6 20  0  3 11.0800000  0  4G 6G 8G 9G11
  20498663.642    20498664.367    -4183181.311 8   -362041.183 8
  23239857.035    23239857.405    10699009.074 9  11054303.661 9
  21236491.149    21236491.221   -12726520.519 9  -7068402.686 8
  20661073.503    20661075.642    -3848177.964 8    253413.974 8
 86  6 20  0  3 17.0800000  0  4G 6G 8G 9G11
  20498910.859    20498912.721    -4181879.937 8   -361027.131 8
  23243915.723    23243916.688    10720338.040 8  11070923.632 9
  21233796.622    21233798.609   -12740668.815 9  -7079427.323 9
  20661911.458    20661912.598    -3843779.837 8    256841.088 8
 86  6 20  0  3 23.0800000  0  4G 6G 8G 9G11
  20499162.512    20499162.665    -4180559.529 8   -359998.239 7
  23247975.805    23247976.822    10741673.953 7  11087549.006 9
  21231108.203    21231108.368   -12754806.655 9  -7090443.830 9
  20662751.434    20662752.788    -3839360.372 8    260284.819 7
 86  6 20  0  3 29.0800000  0  4G 6G 8G 9G11
  20499416.574    20499419.478    -4179220.037 8   -358954.486 8
  23252035.932    23252037.304    10763016.713 7  11104179.734 9
  21228419.104    21228421.057   -12768933.961 9  -7101452.118 8
  20663596.421    20663598.254    -3834919.600 8    263745.164 8
 86  6 20  0  3 35.0800000  0  4G 6G 8G 9G11
  20499676.212    20499676.780    -4177861.576 9   -357895.941 9
  23256096.443    23256099.591    10784366.312 7  11120815.764 9
  21225732.672    21225734.522   -12783050.679 9  -7112452.140 8
  20664446.066    20664446.840    -3830457.560 8    267222.073 7
 86  6 20  0  3 41.0800000  0  4G 6G 8G 9G11
  20499938.476    20499938.409    -4176484.061 8   -356822.559 8
  23260162.654    23260165.262    10805722.774 7  11137457.134 9
  21223049.124    21223050.502   -12797156.804 8  -7123443.914 9
  20665299.218    20665300.299    -3825974.230 9    270715.587 8
 86  6 20  0  3 47.0800000  0  4G 6G 8G 9G11
  20500203.716    20500205.710    -4175087.510 8   -355734.325 7
  23264227.907    23264229.222    10827085.964 7  11154103.780 8
  21220366.864    21220367.712   -12811252.310 9  -7134427.431 8
  20666156.834    20666156.795    -3821469.659 9    274225.636 8
 86  6 20  0  3 53.0800000  0  4G 6G 8G 9G11
  20500473.738    20500473.838    -4173671.904 9   -354631.260 9
  23268289.455    23268294.794    10848455.978 6  11170755.732 8
  21217686.209    21217688.149   -12825337.214 9  -7145402.683 8
  20667017.476    20667016.744    -3816943.871 9    277752.226 7
 86  6 20  0  3 59.0800000  0  4G 6G 8G 9G11
  20500746.264    20500746.866    -4172237.197 9   -353513.293 8
  23272362.837    23272363.931    10869832.709 7  11187412.914 9
  21215008.817    21215009.239   -12839411.445 9  -7156369.613 9
  20667883.782    20667884.803    -3812396.902 8    281295.311 8
 86  6 20  0  4  5.0800000  0  4G 6G 8G 9G11
  20501022.477    20501023.349    -4170783.404 9   -352380.481 8
  23276433.129    23276433.647    10891216.121 8  11204075.313 9
  21212331.340    21212333.604   -12853475.015 9  -7167328.242 9
  20668752.341    20668753.814    -3807828.735 8    284854.939 7
 86  6 20  0  4 11.0800000  0  4G 6G 8G 9G11
  20501303.223    20501303.417    -4169310.582 8   -351232.811 8
  23280498.865    23280502.262    10912606.226 7  11220742.903 9
  21209657.461    21209658.928   -12867527.948 9  -7178278.560 9
  20669625.755    20669627.238    -3803239.390 8    288431.042 8
 86  6 20  0  4 17.0800000  0  4G 6G 8G 9G11
  20501586.871    20501588.527    -4167818.651 8   -350070.266 8
  23284573.257    23284574.314    10934002.963 6  11237415.694 9
  21206984.821    21206987.272   -12881570.154 9  -7189220.536 8
  20670503.532    20670506.164    -3798628.864 8    292023.656 7
 86  6 20  0  4 23.0800000  0  4G 6G 8G 9G11
  20501873.914    20501875.718    -4166307.598 9   -348892.836 8
  23288645.783    23288647.900    10955406.346 6  11254093.639 8
  21204313.954    21204316.660   -12895601.683 9  -7200154.190 9
  20671383.640    20671386.320    -3793997.109 9    295632.833 8
 86  6 20  0  4 29.0800000  0  4G 6G 8G 9G11
  20502165.008    20502167.181    -4164777.453 8   -347700.519 8
  23292716.273    23292722.770    10976816.361 6  11270776.728 9
  21201646.204    21201649.228   -12909622.353 9  -7211079.373 8
  20672269.580    20672271.577    -3789344.179 8    299258.489 8
 86  6 20  0  4 35.0800000  0  4G 6G 8G 9G11
  20502461.139    20502461.141    -4163228.146 9   -346493.256 8
  23296795.894    23296796.584    10998232.970 7  11287464.984 9
  21198980.316    21198982.984   -12923632.291 9  -7221996.203 9
  20673158.554    20673160.822    -3784670.116 8    302900.615 8
 86  6 20  0  4 41.0800000  0  4G 6G 8G 9G11
  20502759.022    20502759.605    -4161659.698 9   -345271.099 8
  23300871.504    23300873.549    11019656.165 7  11304158.380 9
  21196316.260    21196318.944   -12937631.450 9  -7232904.640 9
  20674051.410    20674053.653    -3779974.916 7    306559.208 8
 86  6 20  0  4 47.0800000  0  4G 6G 8G 9G11
  20503062.108    20503063.707    -4160072.079 9   -344033.993 7
  23304948.589    23304952.391    11041085.915 6  11320856.860 9
  21193654.341    21193656.362   -12951619.786 9  -7243804.630 9
  20674948.879    20674952.412    -3775258.590 8    310234.268 7
 86  6 20  0  4 53.0800000  0  4G 6G 8G 9G11
  20503367.902    20503368.169    -4158465.322 9   -342781.980 8
  23309028.880    23309031.436    11062522.107 7  11337560.380 8
  21190994.841    21190997.063   -12965597.277 9  -7254696.181 9
  20675850.408    20675852.789    -3770521.195 8    313925.755 8
 86  6 20  0  4 59.0800000  0  4G 6G 8G 9G11
  20503677.140    20503677.914    -4156839.400 9   -341515.032 8
  23313108.502    23313110.275    11083964.758 7  11354268.937 9
  21188337.708    21188338.560   -12979563.888 9  -7265579.253 9
  20676755.876    20676759.659    -3765762.694 8    317633.692 8
 86  6 20  0  5  5.0800000  0  4G 6G 8G 9G11
  20503991.163    20503991.528    -4155194.221 9   -340233.070 8
  23317189.135    23317192.881    11105413.931 7  11370982.580 9
  21185681.953    21185682.789   -12993519.741 9  -7276453.935 8
  20677665.941    20677668.863    -3760983.123 8    321358.026 7
 86  6 20  0  5 11.0800000  0  4G 6G 8G 9G11
  20504307.511    20504306.296    -4153529.927 8   -338936.219 8
  23321275.881    23321275.592    11126869.520 8  11387701.208 9
  21183028.658    21183029.891   -13007464.586 9  -7287320.045 9
  20678579.429    20678583.689    -3756182.513 7    325098.762 8
 86  6 20  0  5 17.0800000  0  4G 6G 8G 9G11
  20504626.446    20504627.373    -4151846.428 8   -337624.410 8
  23325358.596    23325360.018    11148331.469 8  11404424.806 9
  21180376.791    21180378.610   -13021398.547 9  -7298177.661 9
  20679497.431    20679500.208    -3751360.846 9    328855.903 8
 86  6 20  0  5 23.0800000  0  4G 6G 8G 9G11
  20504950.749    20504951.126    -4150143.667 8   -336297.589 8
  23329442.985    23329445.006    11169799.873 9  11421153.424 9
  21177728.183    21177728.849   -13035321.567 9  -7309026.764 9
  20680418.278    20680421.533    -3746518.120 9    332629.449 8
 86  6 20  0  5 29.0800000  0  4G 6G 8G 9G11
  20505278.841    20505278.614    -4148421.713 9   -334955.815 8
  23333530.879    23333530.223    11191274.623 9  11437887.003 9
  21175080.552    21175081.660   -13049233.564 9  -7319867.287 9
  20681344.282    20681346.486    -3741654.391 8    336419.378 8
 86  6 20  0  5 35.0800000  0  4G 6G 8G 9G11
  20505610.230    20505610.616    -4146680.480 9   -333599.007 8
  23337616.774    23337619.326    11212755.700 9  11454625.510 8
  21172434.722    21172436.062   -13063134.608 9  -7330699.272 8
  20682273.673    20682276.682    -3736769.620 8    340225.694 8
 86  6 20  0  5 41.0800000  0  4G 6G 8G 9G11
  20505944.488    20505945.465    -4144920.001 9   -332227.205 8
  23341706.551    23341709.507    11234243.103 8  11471368.916 9
  21169790.645    21169792.983   -13077024.605 9  -7341522.652 8
  20683208.321    20683209.704    -3731863.846 8    344048.362 7
 86  6 20  0  5 47.0800000  0  4G 6G 8G 9G11
  20506282.402    20506283.317    -4143140.315 9   -330840.434 7
  23345796.980    23345798.489    11255736.748 9  11488117.213 9
  21167150.025    21167152.520   -13090903.550 9  -7352337.407 9
  20684144.535    20684147.052    -3726937.145 8    347887.358 8
 86  6 20  0  5 53.0800000  0  4G 6G 8G 9G11
  20506625.674    20506626.199    -4141341.325 9   -329438.623 8
  23349887.884    23349890.088    11277236.667 9  11504870.402 9
  21164510.579    21164512.948   -13104771.482 9  -7363143.584 8
  20685086.232    20685089.660    -3721989.490 7    351742.676 8
 86  6 20  0  5 59.0800000  0  4G 6G 8G 9G11
  20506971.098    20506971.915    -4139523.053 9   -328021.788 8
  23353979.626    23353982.046    11298742.880 9  11521628.483 9
  21161873.599    21161876.050   -13118628.356 9  -7373941.140 9
  20686030.571    20686033.935    -3717020.854 8    355614.344 7
 86  6 20  0  6  5.0800000  0  4G 6G 8G 9G11
  20507321.112    20507321.554    -4137685.466 9   -326589.899 8
  23358073.949    23358076.415    11320255.305 9  11538391.411 9
  21159239.044    21159240.651   -13132474.080 9  -7384730.016 9
  20686981.065    20686984.420    -3712031.283 8    359502.313 8
 86  6 20  0  6 11.0800000  0  4G 6G 8G 9G11
  20507674.366    20507674.795    -4135828.574 9   -325142.964 8
  23362168.371    23362172.971    11341773.922 9  11555159.149 9
  21156607.584    21156608.835   -13146308.628 8  -7395510.176 9
  20687935.109    20687936.631    -3707020.763 8    363406.617 8
 86  6 20  0  6 17.0800000  0  4G 6G 8G 9G11
  20508032.313    20508031.445    -4133952.356 9   -323680.976 8
  23366265.004    23366266.211    11363298.719 9  11571931.709 9
  21153975.863    21153977.203   -13160132.087 9  -7406281.692 8
  20688893.538    20688893.693    -3701989.321 8    367327.230 8
 86  6 20  0  6 23.0800000  0  4G 6G 8G 9G11
  20508392.510    20508393.237    -4132056.802 9   -322203.929 8
  23370361.913    23370363.918    11384829.689 9  11588709.098 8
  21151348.437    21151349.776   -13173944.388 9  -7417044.518 8
  20689853.406    20689855.295    -3696936.918 9    371264.158 7
 86  6 20  0  6 29.0800000  0  4G 6G 8G 9G11
  20508756.547    20508756.433    -4130141.926 9   -320711.822 9
  23374459.894    23374463.089    11406366.790 8  11605491.242 9
  21148721.586    21148722.763   -13187745.487 9  -7427798.629 8
  20690820.471    20690819.715    -3691863.635 8    375217.368 7
 86  6 20  0  6 35.0800000  0  4G 6G 8G 9G11
  20509124.006    20509125.363    -4128207.660 8   -319204.596 9
  23378560.898    23378563.461    11427909.930 8  11622278.092 8
  21146097.368    21146098.748   -13201535.378 8  -7438543.994 8
  20691789.347    20691789.805    -3686769.530 9    379186.797 8
 86  6 20  0  6 41.0800000  0  4G 6G 8G 9G11
  20509495.931    20509497.784    -4126254.072 8   -317682.328 9
  23382660.334    23382664.310    11449459.141 9  11639069.688 9
  21143476.004    21143477.545   -13215314.000 9  -7449280.582 9
  20692761.808    20692764.794    -3681654.552 8    383172.493 7
 86  6 20  0  6 47.0800000  0  4G 6G 8G 9G11
  20509870.649    20509874.762    -4124281.116 8   -316144.967 8
  23386762.055    23386764.501    11471014.425 9  11655866.010 8
  21140856.452    21140857.535   -13229081.419 9  -7460008.434 8
  20693739.737    20693741.513    -3676518.756 8    387174.421 9
 86  6 20  0  6 53.0800000  0  4G 6G 8G 9G11
  20510250.082    20510252.852    -4122288.746 9   -314592.487 8
  23390867.305    23390867.636    11492575.694 9  11672667.019 9
  21138237.331    21138240.238   -13242837.436 9  -7470727.415 9
  20694720.136    20694724.035    -3671362.103 9    391192.574 8
 86  6 20  0  6 59.0800000  0  4G 6G 8G 9G11
  20510634.068    20510635.896    -4120277.019 9   -313024.899 9
  23394969.436    23394972.838    11514143.033 9  11689472.734 9
  21135622.666    21135623.071   -13256582.228 9  -7481437.622 9
  20695706.385    20695709.179    -3666184.715 8    395226.907 8
 86  6 20  0  7  5.0800000  0  4G 6G 8G 9G11
  20511020.890    20511021.246    -4118245.865 8   -311442.178 9
  23399075.705    23399078.727    11535716.300 9  11706283.048 9
  21133009.516    21133010.514   -13270315.704 8  -7492139.025 8
  20696696.800    20696697.731    -3660986.537 8    399277.445 9
 86  6 20  0  7 11.0800000  0  4G 6G 8G 9G11
  20511410.832    20511411.117    -4116195.281 8   -309844.313 8
  23403182.115    23403183.167    11557295.547 9  11723098.063 9
  21130398.806    21130397.480   -13284037.776 9  -7502831.541 8
  20697688.104    20697691.246    -3655767.512 9    403344.221 8
 86  6 20  0  7 17.0800000  0  4G 6G 8G 9G11
  20511805.863    20511804.234    -4114125.300 9   -308231.335 9
  23407290.285    23407291.326    11578880.710 9  11739917.691 9
  21127787.979    21127789.491   -13297748.484 9  -7513515.211 8
  20698685.616    20698687.809    -3650527.692 8    407427.190 8
 86  6 20  0  7 23.0800000  0  4G 6G 8G 9G11
  20512202.365    20512202.535    -4112035.902 9   -306603.240 8
  23411398.768    23411400.898    11600471.809 9  11756741.919 8
  21125183.076    21125182.526   -13311447.916 9  -7524190.090 8
  20699684.970    20699689.961    -3645267.136 7    411526.327 8
 86  6 20  0  7 29.0800000  0  4G 6G 8G 9G11
  20512603.744    20512603.302    -4109927.052 9   -304959.980 8
  23415508.009    23415512.262    11622068.751 9  11773570.685 8
  21122578.091    21122578.017   -13325135.874 9  -7534856.034 8
  20700688.934    20700693.717    -3639985.843 8    415641.622 8
 86  6 20  0  7 35.0800000  0  4G 6G 8G 9G11
  20513007.629    20513009.110    -4107798.723 8   -303301.540 9
  23419619.878    23419620.870    11643671.515 9  11790404.016 9
  21119975.273    21119976.166   -13338812.417 8  -7545513.078 8
  20701699.667    20701702.181    -3634683.854 7    419773.051 8
 86  6 20  0  7 41.0800000  0  4G 6G 8G 9G11
  20513416.139    20513417.878    -4105650.942 8   -301627.949 8
  23423730.529    23423732.142    11665280.131 9  11807241.917 9
  21117373.234    21117375.728   -13352477.497 8  -7556161.193 8
  20702712.225    20702715.967    -3629361.211 8    423920.567 8
 86  6 20  0  7 47.0800000  0  4G 6G 8G 9G11
  20513828.289    20513831.330    -4103483.715 8   -299939.209 8
  23427843.542    23427846.350    11686894.574 9  11824084.331 8
  21114774.994    21114777.736   -13366131.148 9  -7566800.391 8
  20703730.896    20703731.947    -3624017.822 9    428084.248 8
 86  6 20  0  7 53.0800000  0  4G 6G 8G 9G11
  20514245.551    20514246.289    -4101296.998 9   -298235.272 8
  23431959.225    23431961.747    11708514.786 9  11840931.227 8
  21112178.651    21112180.732   -13379773.207 9  -7577430.557 8
  20704749.814    20704752.562    -3618653.743 8    432264.038 8
 86  6 20  0  7 59.0800000  0  4G 6G 8G 9G11
  20514665.680    20514666.753    -4099090.799 8   -296516.163 8
  23436074.316    23436076.251    11730140.719 9  11857782.608 8
  21109585.569    21109588.065   -13393403.854 8  -7588051.837 9
  20705774.641    20705776.514    -3613269.086 8    436459.886 8
 86  6 20  0  8  5.0800000  0  4G 6G 8G 9G11
  20515089.576    20515089.584    -4096865.044 8   -294781.808 8
  23440189.227    23440190.636    11751772.430 9  11874638.502 8
  21106994.429    21106994.596   -13407022.957 9  -7598664.112 9
  20706803.126    20706804.544    -3607863.689 9    440671.881 8
 86  6 20  0  8 11.0800000  0  4G 6G 8G 9G11
  20515515.378    20515518.255    -4094619.765 9   -293032.242 8
  23444307.413    23444309.273    11773409.845 9  11891498.815 8
  21104403.692    21104407.078   -13420630.353 9  -7609267.289 8
  20707836.014    20707837.062    -3602437.650 8    444899.956 7
 86  6 20  0  8 17.0800000  0  4G 6G 8G 9G11
  20515946.284    20515948.853    -4092354.993 8   -291267.497 9
  23448426.379    23448428.756    11795052.944 9  11908363.556 8
  21101816.369    21101819.830   -13434226.308 9  -7619861.534 8
  20708872.847    20708874.437    -3596990.986 8    449144.114 8
 86  6 20  0  8 23.0800000  0  4G 6G 8G 9G11
  20516380.585    20516383.657    -4090070.639 8   -289487.485 9
  23452545.808    23452546.219    11816701.728 9  11925232.747 8
  21099232.894    21099234.747   -13447810.625 9  -7630446.707 8
  20709912.679    20709914.074    -3591523.675 8    453404.342 8
 86  6 20  0  8 29.0800000  0  4G 6G 8G 9G11
  20516819.511    20516821.751    -4087766.813 8   -287692.296 9
  23456665.195    23456666.908    11838356.111 9  11942106.291 8
  21096650.571    21096650.850   -13461383.233 9  -7641022.754 8
  20710956.600    20710959.393    -3586035.860 8    457680.562 7
 86  6 20  0  8 35.0800000  0  4G 6G 8G 9G11
  20517262.186    20517263.976    -4085443.425 8   -285881.878 8
  23460787.861    23460789.526    11860016.115 9  11958984.213 9
  21094069.163    21094070.144   -13474944.252 9  -7651589.772 8
  20712006.333    20712007.425    -3580527.422 9    461972.850 8
 86  6 20  0  8 41.0800000  0  4G 6G 8G 9G11
  20517707.648    20517709.868    -4083100.502 8   -284056.218 8
  23464910.692    23464912.840    11881681.696 9  11975866.483 8
  21091492.480    21091491.827   -13488493.668 9  -7662147.754 8
  20713056.943    20713058.818    -3574998.447 8    466281.144 8
 86  6 20  0  8 47.0800000  0  4G 6G 8G 9G11
  20518158.599    20518160.122    -4080737.982 8   -282215.293 8
  23469034.379    23469036.422    11903352.829 9  11992753.067 8
  21088916.564    21088916.176   -13502031.307 9  -7672696.564 9
  20714113.697    20714116.149    -3569448.936 8    470605.451 8
 86  6 20  0  8 53.0800000  0  4G 6G 8G 9G11
  20518611.942    20518611.473    -4078355.922 9   -280359.134 7
  23473159.760    23473160.203    11925029.485 9  12009643.985 8
  21086342.144    21086342.144   -13515557.244 9  -7683236.249 9
  20715173.235    20715174.474    -3563878.931 9    474945.715 8
 86  6 20  0  8 59.0800000  0  4G 6G 8G 9G11
  20519069.115    20519069.109    -4075954.266 8   -278487.719 8
  23477283.813    23477286.657    11946711.664 9  12026539.188 9
  21083770.808    21083770.626   -13529071.436 9  -7693766.792 9
  20716238.232    20716238.057    -3558288.428 9    479301.941 8
 86  6 20  0  9  5.0800000  0  4G 6G 8G 9G11
  20519529.562    20519531.200    -4073533.019 9   -276601.028 8
  23481411.786    23481416.455    11968399.329 9  12043438.643 9
  21081200.218    21081200.985   -13542573.866 9  -7704288.162 8
  20717304.696    20717308.437    -3552677.433 9    483674.154 8
 86  6 20  0  9 11.0800000  0  4G 6G 8G 9G11
  20519993.925    20519994.982    -4071092.137 9   -274699.044 8
  23485540.221    23485542.304    11990092.475 9  12060342.411 8
  21078633.117    21078634.509   -13556064.531 9  -7714800.367 9
  20718377.972    20718378.963    -3547045.940 8    488062.322 8
 86  6 20  0  9 17.0800000  0  4G 6G 8G 9G11
  20520460.667    20520463.725    -4068631.605 8   -272781.740 8
  23489669.510    23489671.759    12011791.069 8  12077250.407 8
  21076067.165    21076069.225   -13569543.351 9  -7725303.336 9
  20719452.322    20719455.774    -3541393.911 9    492466.497 8
 86  6 20  0  9 23.0800000  0  4G 6G 8G 9G11
  20520934.020    20520935.859    -4066151.493 8   -270849.186 8
  23493797.847    23493801.856    12033495.091 9  12094162.616 9
  21073505.279    21073507.203   -13583010.346 9  -7735797.098 9
  20720530.722    20720534.777    -3535721.467 8    496886.578 8
 86  6 20  0  9 29.0800000  0  4G 6G 8G 9G11
  20521407.436    20521410.656    -4063651.784 9   -268901.363 8
  23497930.118    23497933.924    12055204.431 9  12111078.975 8
  21070944.017    21070946.197   -13596465.622 9  -7746281.718 9
  20721614.537    20721617.897    -3530028.646 9    501322.556 8
 86  6 20  0  9 35.0800000  0  4G 6G 8G 9G11
  20521887.334    20521889.879    -4061132.420 8   -266938.227 8
  23502062.567    23502063.383    12076919.081 9  12127999.496 8
  21068386.192    21068387.416   -13609909.004 9  -7756757.068 8
  20722701.409    20722704.390    -3524315.382 9    505774.446 8
 86  6 20  0  9 41.0800000  0  4G 6G 8G 9G11
  20522370.664    20522372.281    -4058593.378 8   -264959.764 8
  23506195.603    23506197.677    12098639.144 9  12144924.210 9
  21065829.823    21065832.107   -13623340.433 9  -7767223.110 9
  20723792.618    20723794.759    -3518581.631 8    510242.311 8
 86  6 20  0  9 47.0800000  0  4G 6G 8G 9G11
  20522857.365    20522858.772    -4056034.707 8   -262965.988 8
  23510329.183    23510331.958    12120364.544 9  12161853.089 8
  21063277.639    21063279.302   -13636760.004 9  -7777679.919 9
  20724889.113    20724891.083    -3512827.535 8    514726.021 8
 86  6 20  0  9 53.0800000  0  4G 6G 8G 9G11
  20523349.383    20523350.100    -4053456.269 9   -260956.825 8
  23514463.784    23514466.797    12142095.257 8  12178786.122 8
  21060725.535    21060726.633   -13650167.580 9  -7788127.368 8
  20725986.858    20725990.249    -3507053.033 8    519225.642 8
 86  6 20  0  9 59.0800000  0  4G 6G 8G 9G11
  20523844.699    20523844.818    -4050858.208 9   -258932.359 8
  23518601.057    23518603.225    12163831.256 8  12195723.248 9
  21058175.892    21058177.888   -13663563.190 9  -7798565.509 9
  20727089.876    20727093.120    -3501258.163 9    523741.115 8
 86  6 20  0 10  5.0800000  0  4G 6G 8G 9G11
  20524342.510    20524344.119    -4048240.448 8   -256892.534 8
  23522738.025    23522739.644    12185572.486 9  12212664.474 7
  21055629.690    21055630.981   -13676946.825 8  -7808994.319 9
  20728197.294    20728197.726    -3495442.978 8    528272.441 8
 86  6 20  0 10 11.0800000  0  4G 6G 8G 9G11
  20524845.648    20524844.444    -4045602.983 9   -254837.361 8
  23526876.441    23526877.798    12207318.935 8  12229609.756 7
  21053085.399    21053086.147   -13690318.429 9  -7819413.741 9
  20729304.328    20729309.645    -3489607.486 8    532819.568 8
 86  6 20  0 10 17.0800000  0  4G 6G 8G 9G11
  20525351.198    20525350.339    -4042945.798 9   -252766.827 8
  23531017.406    23531017.753    12229070.621 9  12246559.130 8
  21050543.570    21050543.733   -13703678.053 9  -7829823.840 8
  20730421.103    20730422.730    -3483751.629 8    537382.577 8
 86  6 20  0 10 23.0800000  0  4G 6G 8G 9G11
  20525859.781    20525859.632    -4040268.863 9   -250680.900 8
  23535156.155    23535158.483    12250827.475 9  12263512.523 7
  21048003.517    21048003.851   -13717025.578 9  -7840224.501 8
  20731539.226    20731542.099    -3477875.494 8    541961.381 8
 86  6 20  0 10 29.0800000  0  4G 6G 8G 9G11
  20526371.959    20526373.383    -4037572.189 9   -248579.622 8
  23539296.851    23539300.231    12272589.489 9  12280469.927 7
  21045465.434    21045466.992   -13730360.995 9  -7850615.728 8
  20732661.706    20732662.636    -3471979.025 9    546556.024 7
 86  6 20  0 10 35.0800000  0  4G 6G 8G 9G11
  20526889.310    20526889.790    -4034855.785 8   -246462.940 8
  23543440.124    23543442.119    12294356.524 8  12297431.254 8
  21042929.332    21042931.671   -13743684.428 9  -7860997.617 9
  20733786.989    20733788.835    -3466062.324 8    551166.448 7
 86  6 20  0 10 41.0800000  0  4G 6G 8G 9G11
  20527410.554    20527410.741    -4032119.648 9   -244330.875 8
  23547583.551    23547584.230    12316128.758 8  12314396.626 7
  21040397.804    21040399.203   -13756995.678 9  -7871370.015 9
  20734918.352    20734918.271    -3460125.378 7    555792.632 7
 86  6 20  0 10 47.0800000  0  4G 6G 8G 9G11
  20527933.287    20527935.777    -4029363.739 9   -242183.426 9
  23551727.170    23551727.943    12337906.047 8  12331365.943 8
  21037865.936    21037867.274   -13770294.876 9  -7881733.012 9
  20736050.946    20736052.085    -3454168.173 8    560434.613 8
 86  6 20  0 10 53.0800000  0  4G 6G 8G 9G11
  20528461.495    20528463.071    -4026588.070 8   -240020.578 9
  23555873.568    23555873.198    12359688.377 8  12348339.180 7
  21035337.018    21035339.111   -13783581.875 9  -7892086.518 8
  20737187.094    20737190.404    -3448190.721 8    565092.357 8
 86  6 20  0 10 59.0800000  0  4G 6G 8G 9G11
  20528993.837    20528995.754    -4023792.609 9   -237842.303 8
  23560017.797    23560019.964    12381475.778 8  12365316.377 8
  21032811.533    21032812.680   -13796856.735 9  -7902430.568 9
  20738329.303    20738332.211    -3442193.058 9    569765.874 9
 86  6 20  0 11  5.0800000  0  4G 6G 8G 9G11
  20529529.047    20529531.609    -4020977.345 9   -235648.595 9
  23564162.962    23564167.317    12403268.175 9  12382297.431 8
  21030286.609    21030288.670   -13810119.379 9  -7912765.082 9
  20739474.304    20739477.349    -3436175.241 9    574455.067 8
 86  6 20  0 11 11.0800000  0  4G 6G 8G 9G11
  20530068.023    20530071.200    -4018142.353 8   -233439.502 7
  23568311.355    23568313.302    12425065.566 6  12399282.404 7
  21027766.162    21027767.932   -13823369.839 8  -7923090.095 9
  20740623.678    20740626.353    -3430137.250 9    579159.989 8
 86  6 20  0 11 17.0800000  0  4G 6G 8G 9G11
  20530613.111    20530614.273    -4015287.521 9   -231214.973 8
  23572460.916    23572463.279    12446867.860 7  12416271.209 7
  21025246.462    21025248.523   -13836608.028 9  -7933405.567 9
  20741776.559    20741780.759    -3424079.091 9    583880.639 7
 86  6 20  0 11 23.0800000  0  4G 6G 8G 9G11
  20531159.127    20531160.663    -4012412.857 9   -228974.979 8
  23576609.162    23576613.135    12468675.128 7  12433263.889 7
  21022731.131    21022731.623   -13849833.944 9  -7943711.461 8
  20742933.679    20742937.428    -3418000.741 8    588617.023 8
 86  6 20  0 11 29.0800000  0  4G 6G 8G 9G11
  20531709.973    20531712.199    -4009518.393 9   -226719.545 8
  23580762.721    23580763.558    12490487.258 8  12450260.347 8
  21020216.144    21020216.736   -13863047.574 9  -7954007.807 8
  20744093.093    20744098.331    -3411902.265 9    593369.081 8
 86  6 20  0 11 35.0800000  0  4G 6G 8G 9G11
  20532265.072    20532265.663    -4006604.087 8   -224448.654 8
  23584911.899    23584914.937    12512304.274 8  12467260.617 7
  21017704.424    21017704.542   -13876248.893 9  -7964294.545 8
  20745257.279    20745262.161    -3405783.730 8    598136.764 9
 86  6 20  0 11 41.0800000  0  4G 6G 8G 9G11
  20532824.728    20532823.959    -4003669.963 9   -222162.333 9
  23589064.660    23589067.599    12534126.204 8  12484264.733 8
  21015193.535    21015194.611   -13889437.842 9  -7974571.645 9
  20746425.828    20746429.727    -3399645.105 9    602920.115 8
 86  6 20  0 11 47.0800000  0  4G 6G 8G 9G11
  20533385.460    20533385.433    -4000715.963 9   -219860.511 8
  23593218.942    23593220.402    12555952.988 6  12501272.614 7
  21012686.591    21012688.358   -13902614.430 9  -7984839.124 8
  20747598.656    20747602.278    -3393486.339 8    607719.140 8
 86  6 20  0 11 53.0800000  0  4G 6G 8G 9G11
  20533952.287    20533952.250    -3997742.092 8   -217543.209 9
  23597373.493    23597377.671    12577784.640 7  12518284.277 8
  21010180.080    21010182.718   -13915778.607 9  -7995096.921 8
  20748775.014    20748777.192    -3387307.442 8    612533.872 8
 86  6 20  0 11 59.0800000  0  4G 6G 8G 9G11
  20534520.601    20534522.200    -3994748.369 9   -215210.436 8
  23601528.857    23601531.961    12599621.019 7  12535299.626 7
  21007678.427    21007679.594   -13928930.370 9  -8005345.046 9
  20749953.320    20749956.708    -3381108.578 9    617364.155 8
 86  6 20  0 12  5.0800000  0  4G 6G 8G 9G11
  20535094.457    20535095.881    -3991734.803 9   -212862.209 8
  23605684.774    23605686.517    12621462.171 7  12552318.694 8
  21005178.071    21005179.851   -13942069.785 9  -8015583.549 9
  20751137.787    20751140.038    -3374889.688 9    622210.044 8
 86  6 20  0 12 11.0800000  0  4G 6G 8G 9G11
  20535671.861    20535673.383    -3988701.348 8   -210498.479 8
  23609843.398    23609843.706    12643308.076 7  12569341.492 8
  21002679.344    21002681.479   -13955196.761 9  -8025812.351 8
  20752325.069    20752327.338    -3368650.771 9    627071.539 8
 86  6 20  0 12 17.0800000  0  4G 6G 8G 9G11
  20536252.906    20536254.940    -3985647.988 9   -208119.249 9
  23613998.666    23614002.402    12665158.713 6  12586367.937 8
  21000185.164    21000186.628   -13968311.249 9  -8036031.415 9
  20753517.397    20753516.945    -3362391.907 9    631948.586 8
 86  6 20  0 12 23.0800000  0  4G 6G 8G 9G11
  20536836.744    20536841.021    -3982574.725 9   -205724.498 9
  23618158.441    23618161.907    12687014.063 7  12603398.057 8
  20997691.211    20997693.397   -13981413.330 9  -8046240.822 8
  20754710.613    20754713.074    -3356113.065 8    636841.182 8
 86  6 20  0 12 29.0800000  0  4G 6G 8G 9G11
  20537425.602    20537428.187    -3979481.537 9   -203314.217 8
  23622321.165    23622322.177    12708874.015 8  12620431.791 8
  20995200.756    20995202.106   -13994502.790 9  -8056440.402 9
  20755911.144    20755911.550    -3349814.245 9    641749.353 8
 86  6 20  0 12 35.0800000  0  4G 6G 8G 9G11
  20538018.260    20538019.515    -3976368.429 9   -200888.440 9
  23626477.821    23626481.643    12730738.720 7  12637469.208 9
  20992712.242    20992713.494   -14007579.664 9  -8066630.170 9
  20757110.923    20757113.564    -3343495.403 9    646673.126 8
 86  6 20  0 12 41.0800000  0  4G 6G 8G 9G11
  20538613.396    20538617.140    -3973235.388 9   -198447.101 8
  23630639.609    23630642.826    12752608.015 7  12654510.207 9
  20990227.310    20990226.660   -14020644.038 9  -8076810.198 8
  20758317.857    20758320.248    -3337156.634 9    651612.431 7
 86  6 20  0 12 47.0800000  0  4G 6G 8G 9G11
  20539214.084    20539215.892    -3970082.417 9   -195990.243 8
  23634802.918    23634805.755    12774481.897 7  12671554.780 8
  20987743.634    20987744.123   -14033695.793 9  -8086980.385 8
  20759529.435    20759530.572    -3330797.994 8    656567.204 7
 86  6 20  0 12 53.0800000  0  4G 6G 8G 9G11
  20539819.129    20539819.789    -3966909.517 9   -193517.861 8
  23638967.895    23638969.698    12796360.406 7  12688602.986 8
  20985261.357    20985262.510   -14046735.032 9  -8097140.821 9
  20760742.092    20760743.239    -3324419.457 9    661537.499 7
 86  6 20  0 12 59.0800000  0  4G 6G 8G 9G11
  20540425.935    20540426.985    -3963716.635 9   -191029.915 7
  23643128.025    23643132.458    12818243.456 7  12705654.705 7
  20982782.604    20982782.472   -14059761.662 9  -8107291.442 8
  20761960.262    20761961.373    -3318021.032 9    666523.279 8
 86  6 20  0 13  5.0800000  0  4G 6G 8G 9G11
  20541036.275    20541039.005    -3960503.812 9   -188526.405 8
  23647294.662    23647298.744    12840131.055 8  12722709.963 8
  20980306.770    20980306.123   -14072775.598 9  -8117432.162 9
  20763180.846    20763182.824    -3311602.703 9    671524.572 7
 86  6 20  0 13 11.0800000  0  4G 6G 8G 9G11
  20541652.713    20541653.825    -3957270.983 9   -186007.315 7
  23651464.051    23651464.491    12862023.123 7  12739768.720 9
  20977832.112    20977833.079   -14085776.886 9  -8127563.048 8
  20764405.397    20764408.080    -3305164.483 9    676541.362 8
 86  6 20  0 13 17.0800000  0  4G 6G 8G 9G11
  20542272.026    20542271.945    -3954018.207 9   -183472.683 8
  23655628.788    23655631.537    12883919.702 7  12756830.977 8
  20975359.538    20975360.733   -14098765.454 9  -8137684.005 8
  20765633.327    20765637.935    -3298706.405 8    681573.630 8
 86  6 20  0 13 23.0800000  0  4G 6G 8G 9G11
  20542895.048    20542895.694    -3950745.431 9   -180922.467 8
  23659795.681    23659799.328    12905820.747 7  12773896.727 8
  20972890.257    20972891.023   -14111741.305 9  -8147795.057 8
  20766866.962    20766869.145    -3292228.493 9    686621.349 8
 86  6 20  0 13 29.0800000  0  4G 6G 8G 9G11
  20543521.299    20543522.514    -3947452.606 9   -178356.629 9
  23663964.099    23663968.117    12927726.287 8  12790965.963 8
  20970422.985    20970423.905   -14124704.478 9  -8157896.224 9
  20768103.487    20768105.837    -3285730.772 9    691684.497 7
 86  6 20  0 13 35.0800000  0  4G 6G 8G 9G11
  20544151.384    20544152.491    -3944139.748 8   -175775.179 8
  23668135.531    23668138.296    12949636.212 8  12808038.645 8
  20967958.422    20967959.015   -14137654.876 9  -8167987.440 8
  20769342.625    20769345.938    -3279213.297 9    696763.068 8
 86  6 20  0 13 41.0800000  0  4G 6G 8G 9G11
  20544785.528    20544787.195    -3940806.889 8   -173178.161 9
  23672303.668    23672308.742    12971550.561 8  12825114.728 8
  20965496.642    20965498.507   -14150592.533 9  -8178068.737 9
  20770587.869    20770590.844    -3272676.061 9    701857.028 8
 86  6 20  0 13 47.0800000  0  4G 6G 8G 9G11
  20545423.488    20545425.213    -3937454.010 8   -170565.536 8
  23676475.055    23676478.615    12993469.287 7  12842194.249 8
  20963037.090    20963038.497   -14163517.336 9  -8188140.008 8
  20771835.354    20771837.153    -3266119.000 8    706966.399 8
 86  6 20  0 13 53.0800000  0  4G 6G 8G 9G11
  20546065.879    20546067.199    -3934081.091 8   -167937.291 9
  23680646.872    23680650.912    13015392.366 8  12859277.154 8
  20960581.006    20960581.379   -14176429.335 9  -8198201.300 8
  20773087.770    20773089.540    -3259542.196 8    712091.200 8
 86  6 20  0 13 59.0800000  0  4G 6G 8G 9G11
  20546712.522    20546713.262    -3930688.146 8   -165293.443 8
  23684819.334    23684822.614    13037319.775 8  12876363.453 9
  20958126.778    20958127.757   -14189328.461 9  -8208252.559 8
  20774344.137    20774344.766    -3252945.683 8    717231.346 8
 86  6 20  0 14  5.0800000  0  4G 6G 8G 9G11
  20547360.981    20547362.608    -3927275.119 9   -162633.956 8
  23688993.563    23688997.419    13059251.482 8  12893453.078 8
  20955674.497    20955674.833   -14202214.648 9  -8218293.743 8
  20775602.181    20775604.420    -3246329.465 9    722386.837 8
 86  6 20  0 14 11.0800000  0  4G 6G 8G 9G11
  20548014.853    20548016.686    -3923842.049 9   -159958.841 9
  23693166.740    23693171.413    13081187.519 8  12910546.096 9
  20953226.251    20953224.850   -14215088.023 9  -8228324.945 7
  20776865.321    20776866.607    -3239693.515 9    727557.698 8
 86  6 20  0 14 17.0800000  0  4G 6G 8G 9G11
  20548670.769    20548673.848    -3920388.861 9   -157268.055 9
  23697342.265    23697347.399    13103127.774 9  12927642.379 9
  20950779.378    20950777.096   -14227948.443 9  -8238346.042 8
  20778130.234    20778134.157    -3233037.905 9    732743.895 8
 86  6 20  0 14 23.0800000  0  4G 6G 8G 9G11
  20549333.217    20549333.676    -3916915.632 8   -154561.632 9
  23701518.660    23701522.290    13125072.255 9  12944741.979 9
  20948333.763    20948334.229   -14240795.894 9  -8248357.058 8
  20779401.426    20779403.677    -3226362.631 9    737945.400 8
 86  6 20  0 14 29.0800000  0  4G 6G 8G 9G11
  20549997.152    20549997.883    -3913422.328 9   -151839.578 8
  23705695.960    23705697.674    13147020.954 9  12961844.870 8
  20945891.929    20945891.702   -14253630.398 9  -8258357.969 9
  20780675.574    20780678.292    -3219667.675 8    743162.255 8
 86  6 20  0 14 35.0800000  0  4G 6G 8G 9G11
  20550664.584    20550668.019    -3909908.904 9   -149101.844 9
  23709872.769    23709875.669    13168973.845 9  12978951.006 8
  20943450.863    20943451.256   -14266451.994 9  -8268348.824 8
  20781952.220    20781956.481    -3212953.126 9    748394.377 9
 86  6 20  0 14 41.0800000  0  4G 6G 8G 9G11
  20551338.272    20551339.216    -3906375.412 9   -146348.479 7
  23714051.612    23714055.120    13190930.898 9  12996060.405 8
  20941013.009    20941013.088   -14279260.534 9  -8278329.498 9
  20783233.685    20783236.428    -3206218.966 9    753641.762 8
 86  6 20  0 14 47.0800000  0  4G 6G 8G 9G11
  20552014.970    20552014.724    -3902821.760 8   -143579.397 8
  23718231.192    23718233.007    13212892.097 9  13013173.023 8
  20938578.297    20938579.722   -14292056.007 9  -8288299.990 8
  20784519.043    20784521.426    -3199465.178 9    758904.456 7
 86  6 20  0 14 53.0800000  0  4G 6G 8G 9G11
  20552693.781    20552694.593    -3899248.017 9   -140794.665 8
  23722411.115    23722412.207    13234857.405 9  13030288.856 8
  20936145.768    20936146.816   -14304838.542 9  -8298260.404 7
  20785808.063    20785811.486    -3192691.781 9    764182.423 8
 86  6 20  0 14 59.0800000  0  4G 6G 8G 9G11
  20553378.367    20553379.195    -3895654.150 9   -137994.250 8
  23726591.772    23726592.341    13256826.837 9  13047407.897 8
  20933716.574    20933716.379   -14317608.029 9  -8308210.645 8
  20787101.062    20787103.537    -3185898.824 8    769475.644 7
 86  6 20  0 15  5.0800000  0  4G 6G 8G 9G11
  20554064.488    20554066.653    -3892040.176 9   -135178.169 9
  23730773.027    23730775.001    13278800.324 9  13064530.090 9
  20931287.877    20931289.727   -14330364.377 9  -8318150.661 8
  20788397.310    20788399.862    -3179086.349 9    774784.069 7
 86  6 20  0 15 11.0800000  0  4G 6G 8G 9G11
  20554757.738    20554758.362    -3888406.045 9   -132346.386 8
  23734954.798    23734957.396    13300777.852 9  13081655.434 8
  20928863.326    20928864.395   -14343107.585 9  -8328080.437 9
  20789697.177    20789697.664    -3172254.297 9    780107.735 8
 86  6 20  0 15 17.0800000  0  4G 6G 8G 9G11
  20555452.404    20555453.854    -3884751.758 9   -129498.888 7
  23739137.192    23739140.053    13322759.449 9  13098783.952 8
  20926441.414    20926441.847   -14355837.666 9  -8337999.974 8
  20791002.606    20791003.413    -3165402.722 9    785446.638 7
 86  6 20  0 15 23.0800000  0  4G 6G 8G 9G11
  20556151.316    20556152.764    -3881077.311 9   -126635.677 9
  23743320.149    23743323.603    13344745.062 9  13115915.590 9
  20924021.753    20924020.772   -14368554.560 9  -8347909.237 8
  20792309.035    20792309.932    -3158531.679 8    790800.707 7
 86  6 20  0 15 29.0800000  0  4G 6G 8G 9G11
  20556854.974    20556856.730    -3877382.682 8   -123756.766 8
  23747504.966    23747508.841    13366734.632 9  13133050.316 9
  20921604.443    20921604.522   -14381258.294 9  -8357808.252 8
  20793620.484    20793621.084    -3151641.093 8    796169.984 7
 86  6 20  0 15 35.0800000  0  4G 6G 8G 9G11
  20557560.897    20557563.701    -3873667.877 9   -120862.107 8
  23751691.271    23751694.359    13388728.164 9  13150188.131 9
  20919189.135    20919190.167   -14393948.843 9  -8367696.996 8
  20794935.050    20794937.463    -3144730.987 9    801554.474 7
 86  6 20  0 15 41.0800000  0  4G 6G 8G 9G11
  20558273.003    20558274.167    -3869932.915 9   -117951.750 7
  23755876.841    23755879.833    13410725.630 9  13167328.999 9
  20916776.551    20916776.920   -14406626.133 9  -8377575.410 8
  20796255.157    20796256.608    -3137801.433 9    806954.140 8
 86  6 20  0 15 47.0800000  0  4G 6G 8G 9G11
  20558988.554    20558989.409    -3866177.778 8   -115025.682 8
  23760063.224    23760066.865    13432726.995 9  13184472.917 9
  20914366.853    20914367.582   -14419290.132 9  -8387443.463 8
  20797576.355    20797578.205    -3130852.445 9    812368.933 8
 86  6 20  0 15 53.0800000  0  4G 6G 8G 9G11
  20559706.057    20559706.929    -3862402.404 8   -112083.831 8
  23764251.365    23764253.951    13454732.261 9  13201619.879 9
  20911959.530    20911960.295   -14431940.889 9  -8397301.193 8
  20798903.027    20798903.875    -3123884.061 9    817798.843 8
 86  6 20  0 15 59.0800000  0  4G 6G 8G 9G11
  20560429.752    20560428.034    -3858606.913 9   -109126.303 8
  23768440.570    23768442.541    13476741.385 9  13218769.834 9
  20909554.728    20909555.164   -14444578.365 9  -8407148.580 9
  20800232.161    20800234.671    -3116896.253 9    823243.890 8
 86  6 20  0 16  5.0800000  0  4G 6G 8G 9G11
  20561155.950    20561154.790    -3854791.158 9   -106152.994 8
  23772629.353    23772631.146    13498754.341 9  13235922.792 9
  20907151.442    20907153.352   -14457202.665 9  -8416985.699 8
  20801565.264    20801567.172    -3109889.063 9    828704.032 8
 86  6 20  0 16 11.0800000  0  4G 6G 8G 9G11
  20561884.877    20561885.881    -3850955.169 8   -103163.914 9
  23776818.928    23776821.402    13520771.160 9  13253078.738 9
  20904752.386    20904754.571   -14469813.469 9  -8426812.287 9
  20802901.254    20802903.848    -3102862.541 8    834179.244 7
 86  6 20  0 16 17.0800000  0  4G 6G 8G 9G11
  20562618.361    20562619.656    -3847098.934 8   -100159.064 7
  23781009.878    23781012.247    13542791.755 9  13270237.656 9
  20902355.600    20902357.825   -14482410.922 9  -8436628.489 9
  20804242.428    20804244.465    -3095816.632 8    839669.568 7
 86  6 20  0 16 23.0800000  0  4G 6G 8G 9G11
  20563357.092    20563357.160    -3843222.485 9    -97138.463 8
  23785200.191    23785203.088    13564816.138 9  13287399.503 9
  20899960.096    20899962.466   -14494994.967 9  -8446434.228 9
  20805587.205    20805589.417    -3088751.388 9    845174.947 7
 86  6 20  0 16 29.0800000  0  4G 6G 8G 9G11
  20564097.702    20564099.515    -3839325.819 9    -94102.095 8
  23789391.713    23789395.058    13586844.272 9  13304564.275 9
  20897567.598    20897570.831   -14507565.689 9  -8456229.590 9
  20806936.477    20806935.804    -3081666.851 8    850695.363 7
 86  6 20  0 16 35.0800000  0  4G 6G 8G 9G11
  20564841.974    20564843.024    -3835408.885 8    -91049.944 8
  23793585.075    23793587.711    13608876.124 9  13321731.960 9
  20895178.679    20895179.731   -14520122.954 9  -8466014.465 8
  20808288.401    20808289.414    -3074563.019 9    856230.813 8
 86  6 20  0 16 41.0800000  0  4G 6G 8G 9G11
  20565591.524    20565592.155    -3831471.648 9    -87981.971 7
  23797778.097    23797780.439    13630911.683 9  13338902.524 9
  20892791.365    20892792.716   -14532666.727 9  -8475788.828 8
  20809642.927    20809644.924    -3067439.856 9    861781.327 7
 86  6 20  0 16 47.0800000  0  4G 6G 8G 9G11
  20566344.347    20566346.465    -3827514.164 9    -84898.226 9
  23801971.235    23801975.461    13652950.964 9  13356075.976 9
  20890406.389    20890408.422   -14545197.075 9  -8485552.719 9
  20811003.112    20811004.301    -3060297.388 9    867346.883 7
 86  6 20  0 16 53.0800000  0  4G 6G 8G 9G11
  20567101.235    20567104.631    -3823536.466 9    -81798.719 8
  23806165.536    23806168.910    13674993.897 9  13373252.273 9
  20888026.203    20888025.454   -14557714.053 9  -8495306.220 9
  20812365.775    20812367.382    -3053135.717 9    872927.395 7
 86  6 20  0 16 59.0800000  0  4G 6G 8G 9G11
  20567862.198    20567863.544    -3819538.469 8    -78683.395 8
  23810361.990    23810364.143    13697040.410 9  13390431.374 8
  20885645.806    20885648.023   -14570217.409 9  -8505049.089 8
  20813732.717    20813733.091    -3045954.810 9    878522.922 7
 86  6 20  0 17  5.0800000  0  4G 6G 8G 9G11
  20568627.081    20568627.229    -3815520.180 8    -75552.269 9
  23814558.184    23814560.749    13719090.524 9  13407613.292 9
  20883270.028    20883270.458   -14582707.289 9  -8514781.455 9
  20815102.085    20815103.659    -3038754.727 9    884133.369 9
 86  6 20  0 17 11.0800000  0  4G 6G 8G 9G11
  20569396.223    20569396.529    -3811481.623 9    -72405.347 7
  23818755.455    23818757.317    13741144.262 9  13424798.016 7
  20880895.725    20880896.762   -14595183.462 9  -8524503.158 9
  20816474.947    20816478.155    -3031535.456 9    889758.772 7
 86  6 20  0 17 17.0800000  0  4G 6G 8G 9G11
  20570168.474    20570169.317    -3807422.792 9    -69242.614 8
  23822951.757    23822954.372    13763201.577 9  13441985.542 8
  20878523.807    20878524.714   -14607646.192 9  -8534214.374 8
  20817853.285    20817854.929    -3024297.042 9    895399.090 7
 86  6 20  0 17 23.0800000  0  4G 6G 8G 9G11
  20570944.752    20570946.291    -3803343.576 9    -66063.998 7
  23827150.537    23827152.415    13785262.448 9  13459175.811 9
  20876154.947    20876155.531   -14620095.206 8  -8543914.905 8
  20819234.296    20819236.780    -3017039.414 8    901054.387 7
 86  6 20  0 17 29.0800000  0  4G 6G 8G 9G11
  20571725.227    20571726.639    -3799244.047 9    -62869.560 8
  23831349.433    23831351.219    13807326.832 9  13476368.846 8
  20873788.581    20873789.390   -14632530.632 9  -8553604.849 9
  20820619.340    20820620.151    -3009762.626 9    906724.607 7
 86  6 20  0 17 35.0800000  0  4G 6G 8G 9G11
  20572508.271    20572510.328    -3795124.219 8    -59659.311 9
  23835549.561    23835549.962    13829394.726 9  13493564.618 9
  20871423.984    20871426.243   -14644952.402 9  -8563284.141 9
  20822007.283    20822008.852    -3002466.681 9    912409.755 7
 86  6 20  0 17 41.0800000  0  4G 6G 8G 9G11
  20573296.055    20573297.559    -3790984.067 9    -56433.217 8
  23839747.711    23839751.268    13851466.090 9  13510763.083 8
  20869062.053    20869064.245   -14657360.564 9  -8572952.841 8
  20823398.968    20823401.319    -2995151.641 9    918109.797 8
 86  6 20  0 17 47.0800000  0  4G 6G 8G 9G11
  20574087.972    20574089.175    -3786823.529 9    -53191.264 9
  23843949.331    23843951.518    13873540.919 8  13527964.241 8
  20866704.441    20866706.179   -14669754.973 9  -8582610.806 8
  20824795.278    20824797.997    -2987817.500 9    923824.705 8
 86  6 20  0 17 53.0800000  0  4G 6G 8G 9G11
  20574883.518    20574885.090    -3782642.680 8    -49933.459 8
  23848150.755    23848152.516    13895619.172 9  13545168.063 8
  20864348.062    20864350.215   -14682135.663 9  -8592258.091 8
  20826195.232    20826195.488    -2980464.293 9    929554.479 8
 86  6 20  0 17 59.0800000  0  4G 6G 8G 9G11
  20575683.486    20575684.716    -3778441.479 9    -46659.809 8
  23852353.745    23852354.464    13917700.821 9  13562374.553 9
  20861994.454    20861997.539   -14694502.632 9  -8601894.690 8
  20827598.030    20827598.986    -2973092.028 9    935299.107 8
 86  6 20  0 18  5.0800000  0  4G 6G 8G 9G11
  20576485.820    20576487.885    -3774219.930 9    -43370.296 8
  23856555.059    23856556.826    13939785.878 8  13579583.690 8
  20859644.343    20859645.321   -14706855.747 9  -8611520.488 8
  20829002.849    20829004.354    -2965700.697 9    941058.583 8
 86  6 20  0 18 11.0800000  0  4G 6G 8G 9G11
  20577293.854    20577295.853    -3769978.014 9    -40064.912 8
  23860757.060    23860760.119    13961874.316 9  13596795.427 9
  20857296.144    20857297.682   -14719195.162 9  -8621135.613 8
  20830412.448    20830415.542    -2958290.334 9    946832.884 6
 86  6 20  0 18 17.0800000  0  4G 6G 8G 9G11
  20578105.025    20578106.454    -3765715.689 9    -36743.622 8
  23864962.286    23864964.337    13983966.077 9  13614009.789 9
  20854951.500    20854951.033   -14731520.829 9  -8630740.028 9
  20831827.074    20831828.724    -2950860.964 9    952622.015 8
 86  6 20  0 18 23.0800000  0  4G 6G 8G 9G11
  20578920.283    20578922.390    -3761433.010 9    -33406.476 7
  23869165.806    23869168.827    14006061.162 8  13631226.727 8
  20852607.795    20852608.062   -14743832.584 9  -8640333.609 8
  20833244.866    20833247.606    -2943412.632 9    958425.905 7
 86  6 20  0 18 29.0800000  0  4G 6G 8G 9G11
  20579738.745    20579740.802    -3757129.964 9    -30053.449 8
  23873371.945    23873373.335    14028159.529 8  13648446.231 8
  20850268.724    20850267.986   -14756130.529 9  -8649916.422 9
  20834665.808    20834667.844    -2935945.304 9    964244.594 8
 86  6 20  0 18 35.0800000  0  4G 6G 8G 9G11
  20580561.730    20580562.452    -3752806.531 8    -26684.538 7
  23877577.474    23877578.431    14050261.190 8  13665668.296 8
  20847931.665    20847929.551   -14768414.568 9  -8659488.393 8
  20836090.688    20836092.927    -2928459.047 9    970078.049 8
 86  6 20  0 18 41.0800000  0  4G 6G 8G 9G11
  20581388.205    20581389.338    -3748462.635 9    -23299.682 8
  23881783.179    23881786.988    14072366.110 8  13682892.892 9
  20845596.032    20845595.111   -14780684.722 9  -8669049.570 8
  20837518.538    20837520.764    -2920953.736 9    975926.335 8
 86  6 20  0 18 47.0800000  0  4G 6G 8G 9G11
  20582218.842    20582219.855    -3744098.378 9    -19898.973 9
  23885991.627    23885993.807    14094474.246 9  13700120.017 8
  20843262.919    20843263.194   -14792940.969 9  -8678599.891 8
  20838951.764    20838952.718    -2913429.533 9    981789.351 7
 86  6 20  0 18 53.0800000  0  4G 6G 8G 9G11
  20583052.920    20583053.792    -3739713.696 9    -16482.331 8
  23890197.940    23890201.613    14116585.622 7  13717349.652 8
  20840933.553    20840932.383   -14805183.280 9  -8688139.349 8
  20840386.263    20840388.800    -2905886.432 9    987667.097 8
 86  6 20  0 18 59.0800000  0  4G 6G 8G 9G11
  20583891.776    20583893.866    -3735308.577 8    -13049.788 8
  23894405.337    23894410.611    14138700.184 8  13734581.763 8
  20838606.878    20838606.779   -14817411.655 9  -8697667.954 9
  20841825.453    20841825.779    -2898324.389 9    993559.597 9
 86  6 20  0 19  5.0800000  0  4G 6G 8G 9G11
  20584732.974    20584735.952    -3730883.044 9     -9601.312 8
  23898614.775    23898617.335    14160817.890 7  13751816.339 7
  20836282.204    20836283.423   -14829625.958 9  -8707185.594 9
  20843268.334    20843271.166    -2890743.485 9    999466.801 7
 86  6 20  0 19 11.0800000  0  4G 6G 8G 9G11
  20585578.898    20585581.126    -3726436.997 7     -6136.872 7
  23902824.368    23902826.572    14182938.775 8  13769053.372 8
  20833961.047    20833960.559   -14841826.276 9  -8716692.342 9
  20844713.839    20844715.413    -2883143.662 8   1005388.735 8
 86  6 20  0 19 17.0800000  0  4G 6G 8G 9G11
  20586429.419    20586431.765    -3721970.566 9     -2656.548 8
  23907034.668    23907038.419    14205062.742 8  13786292.851 8
  20831641.188    20831641.669   -14854012.580 8  -8726188.158 7
  20846164.077    20846165.760    -2875524.983 8   1011325.369 8
 86  6 20  0 19 23.0800000  0  4G 6G 8G 9G11
  20587283.678    20587284.931    -3717483.752 9       839.670 8
  23911245.437    23911248.946    14227189.840 7  13803534.720 7
  20829325.813    20829327.445   -14866184.884 9  -8735673.062 8
  20847617.890    20847618.094    -2867887.510 9   1017276.634 8
 86  6 20  0 19 29.0800000  0  4G 6G 8G 9G11
  20588141.886    20588143.161    -3712976.422 9      4351.885 8
  23915454.281    23915459.649    14249319.980 7  13820778.980 8
  20827012.565    20827014.021   -14878343.029 9  -8745146.946 8
  20849074.862    20849075.529    -2860231.254 9   1023242.546 8
 86  6 20  0 19 35.0800000  0  4G 6G 8G 9G11
  20589002.309    20589004.374    -3708448.657 8      7880.005 8
  23919666.874    23919671.066    14271453.170 6  13838025.594 8
  20824701.231    20824700.088   -14890487.186 9  -8754609.921 8
  20850534.543    20850536.513    -2852556.255 9   1029223.071 8
 86  6 20  0 19 41.0800000  0  4G 6G 8G 9G11
  20589868.999    20589869.849    -3703900.473 9     11424.046 8
  23923880.675    23923883.397    14293589.373 7  13855274.579 7
  20822392.266    20822393.259   -14902617.121 9  -8764061.826 8
  20851998.793    20852001.552    -2844862.476 8   1035218.210 7
 86  6 20  0 19 47.0800000  0  4G 6G 8G 9G11
  20590736.743    20590737.031    -3699331.789 8     14984.052 8
  23928094.417    23928096.137    14315728.599 7  13872525.927 8
  20820086.941    20820086.316   -14914733.048 9  -8773502.804 8
  20853465.609    20853468.711    -2837149.912 9   1041227.989 8
 86  6 20  0 19 53.0800000  0  4G 6G 8G 9G11
  20591610.027    20591611.099    -3694742.600 9     18560.042 8
  23932307.457    23932309.848    14337870.789 6  13889779.559 7
  20817783.822    20817784.223   -14926834.727 9  -8782932.683 9
  20854937.530    20854940.293    -2829418.655 9   1047252.355 8
 86  6 20  0 19 59.0800000  0  4G 6G 8G 9G11
  20592487.072    20592488.650    -3690132.917 9     22151.992 8
  23936518.469    23936524.458    14360015.966 6  13907035.526 7
  20815483.445    20815484.453   -14938922.276 9  -8792351.555 9
  20856412.561    20856414.454    -2821668.615 9   1053291.358 7
 86  6 20  0 20  5.0800000  0  4G 6G 8G 9G11
  20593368.277    20593368.788    -3685502.777 9     25759.889 8
  23940737.501    23940739.151    14382164.013 7  13924293.750 7
  20813186.361    20813187.568   -14950995.594 9  -8801759.329 8
  20857889.899    20857893.291    -2813899.892 8   1059344.901 7
 86  6 20  0 20 11.0800000  0  4G 6G 8G 9G11
  20594254.108    20594254.264    -3680852.120 9     29383.773 8
  23944950.402    23944952.458    14404315.021 6  13941554.275 7
  20810890.020    20810893.051   -14963054.634 9  -8811155.984 9
  20859371.394    20859372.957    -2806112.531 8   1065412.983 8
 86  6 20  0 20 17.0800000  0  4G 6G 8G 9G11
  20595143.442    20595144.262    -3676180.977 9     33023.630 7
  23949166.677    23949168.750    14426468.939 6  13958817.047 7
  20808598.692    20808599.703   -14975099.398 9  -8820541.510 8
  20860858.067    20860858.979    -2798306.493 9   1071495.600 8
 86  6 20  0 20 23.0800000  0  4G 6G 8G 9G11
  20596036.541    20596036.445    -3671489.337 9     36679.458 8
  23953381.451    23953386.267    14448625.707 6  13976082.038 8
  20806310.161    20806311.544   -14987130.021 9  -8829916.031 8
  20862346.735    20862349.365    -2790481.855 9   1077592.731 9
 86  6 20  0 20 29.0800000  0  4G 6G 8G 9G11
  20596933.373    20596933.062    -3666777.132 9     40351.305 8
  23957599.671    23957603.650    14470785.331 7  13993349.266 7
  20804022.669    20804024.128   -14999146.381 9  -8839279.430 9
  20863838.602    20863840.921    -2782638.622 8   1083704.325 8
 86  6 20  0 20 35.0800000  0  4G 6G 8G 9G11
  20597833.174    20597834.134    -3662044.432 9     44039.116 9
  23961817.922    23961821.078    14492947.769 7  14010618.700 8
  20801739.090    20801740.460   -15011148.305 9  -8848631.576 8
  20865335.088    20865335.905    -2774776.819 9   1089830.414 8
 86  6 20  0 20 41.0800000  0  4G 6G 8G 9G11
  20598738.230    20598737.488    -3657291.178 9     47742.938 8
  23966035.759    23966038.245    14515112.998 7  14027890.298 7
  20799458.003    20799458.627   -15023135.975 9  -8857972.617 8
  20866835.615    20866836.829    -2766896.393 9   1095971.002 8
 86  6 20  0 20 47.0800000  0  4G 6G 8G 9G11
  20599645.583    20599647.168    -3652517.337 9     51462.804 8
  23970253.253    23970255.059    14537281.072 6  14045164.113 7
  20797179.807    20797180.471   -15035109.266 8  -8867302.453 8
  20868338.749    20868338.973    -2758997.340 9   1102126.107 8
 86  6 20  0 20 53.0800000  0  4G 6G 8G 9G11
  20600556.947    20600557.729    -3647723.000 8     55198.649 7
  23974472.644    23974474.378    14559451.876 7  14062440.054 7
  20794903.383    20794904.366   -15047068.179 9  -8876621.084 8
  20869844.039    20869845.464    -2751079.744 9   1108295.670 8
 86  6 20  0 20 59.0800000  0  4G 6G 8G 9G11
  20601473.352    20601474.444    -3642908.144 9     58950.488 8
  23978691.762    23978694.302    14581625.397 7  14079718.106 6
  20792630.829    20792632.685   -15059012.727 9  -8885928.528 8
  20871354.653    20871355.676    -2743143.655 9   1114479.627 8
 86  6 20  0 21  5.0800000  0  4G 6G 8G 9G11
  20602393.330    20602394.171    -3638072.688 9     62718.370 8
  23982911.485    23982915.209    14603801.643 7  14096998.292 8
  20790361.074    20790362.085   -15070942.630 9  -8895224.556 8
  20872868.010    20872870.250    -2735188.999 9   1120678.057 7
 86  6 20  0 21 11.0800000  0  4G 6G 8G 9G11
  20603317.418    20603319.850    -3633216.675 9     66502.279 8
  23987134.099    23987134.630    14625980.619 7  14114280.614 7
  20788092.582    20788094.208   -15082858.184 8  -8904509.397 9
  20874386.378    20874387.112    -2727215.825 9   1126890.936 8
 86  6 20  0 21 17.0800000  0  4G 6G 8G 9G11
  20604246.885    20604248.489    -3628340.087 8     70302.209 8
  23991351.669    23991356.628    14648162.268 6  14131564.978 6
  20785827.865    20785830.006   -15094759.285 9  -8913782.973 8
  20875906.224    20875909.319    -2719224.179 9   1133118.179 7
 86  6 20  0 21 23.0800000  0  4G 6G 8G 9G11
  20605179.215    20605180.916    -3623442.928 9     74118.167 8
  23995574.136    23995577.938    14670346.554 7  14148851.447 7
  20783566.843    20783568.402   -15106645.891 9  -8923045.270 9
  20877429.752    20877433.296    -2711214.115 9   1139359.781 7
 86  6 20  0 21 29.0800000  0  4G 6G 8G 9G11
  20606115.271    20606115.404    -3618525.249 9     77950.127 8
  23999798.558    23999800.736    14692533.437 7  14166139.925 8
  20781307.076    20781308.601   -15118518.061 9  -8932296.304 9
  20878958.014    20878961.199    -2703185.611 9   1145615.770 8
 86  6 20  0 21 35.0800000  0  4G 6G 8G 9G11
  20607053.038    20607054.247    -3613586.957 9     81798.148 8
  24004020.021    24004022.768    14714722.951 7  14183430.451 7
  20779050.834    20779052.598   -15130375.599 9  -8941535.932 9
  20880488.591    20880491.565    -2695138.696 9   1151886.080 8
 86  6 20  0 21 41.0800000  0  4G 6G 8G 9G11
  20607996.884    20607998.411    -3608628.055 9     85662.216 8
  24008242.845    24008245.395    14736915.043 7  14200722.974 7
  20776797.476    20776799.240   -15142218.606 9  -8950764.243 9
  20882023.835    20882027.217    -2687073.401 9   1158170.726 8
 86  6 20  0 21 47.0800000  0  4G 6G 8G 9G11
  20608945.915    20608945.656    -3603648.580 9     89542.327 8
  24012468.052    24012469.421    14759109.745 7  14218017.530 8
  20774545.867    20774547.546   -15154047.068 9  -8959981.218 8
  20883563.027    20883566.190    -2678989.717 8   1164469.711 8
 86  6 20  0 21 53.0800000  0  4G 6G 8G 9G11
  20609897.075    20609897.057    -3598648.464 8     93438.530 8
  24016688.428    24016693.234    14781306.962 8  14235314.057 8
  20772297.948    20772299.587   -15165860.903 9  -8969186.806 8
  20885103.956    20885108.029    -2670887.544 9   1170783.088 9
 86  6 20  0 21 59.0800000  0  4G 6G 8G 9G11
  20610851.612    20610851.992    -3593627.716 9     97350.794 8
  24020914.175    24020916.999    14803506.729 8  14252612.570 8
  20770053.098    20770054.215   -15177660.115 8  -8978380.989 8
  20886650.999    20886652.253    -2662766.980 9   1177110.804 8
 86  6 20  0 22  5.0800000  0  4G 6G 8G 9G11
  20611810.843    20611810.935    -3588586.355 9    101279.135 8
  24025140.320    24025141.918    14825708.991 8  14269913.016 8
  20767810.873    20767811.125   -15189444.582 9  -8987563.697 9
  20888199.445    20888200.909    -2654628.040 9   1183452.837 8
 86  6 20  0 22 11.0800000  0  4G 6G 8G 9G11
  20612774.156    20612775.585    -3583524.392 9    105223.516 8
  24029365.559    24029368.739    14847913.719 8  14287215.405 8
  20765571.140    20765572.206   -15201214.391 9  -8996734.986 8
  20889751.276    20889753.119    -2646470.785 9   1189809.150 8
 86  6 20  0 22 17.0800000  0  4G 6G 8G 9G11
  20613740.988    20613741.721    -3578441.791 9    109183.973 8
  24033591.432    24033594.529    14870120.911 8  14304519.690 8
  20763334.212    20763336.183   -15212969.541 9  -9005894.841 9
  20891307.734    20891307.820    -2638295.216 9   1196179.713 8
 86  6 20  0 22 23.0800000  0  4G 6G 8G 9G11
  20614713.086    20614714.357    -3573338.571 8    113160.523 8
  24037816.351    24037822.152    14892330.519 7  14321825.878 9
  20761099.402    20761101.676   -15224709.911 9  -9015043.186 8
  20892867.161    20892866.925    -2630101.374 9   1202564.524 8
 86  6 20  0 22 29.0800000  0  4G 6G 8G 9G11
  20615689.075    20615689.273    -3568214.748 9    117153.112 7
  24042043.822    24042047.380    14914542.555 8  14339133.936 8
  20758868.853    20758870.678   -15236435.644 9  -9024180.122 8
  20894429.514    20894430.182    -2621889.261 9   1208963.573 8
 86  6 20  0 22 35.0800000  0  4G 6G 8G 9G11
  20616667.486    20616668.466    -3563070.275 9    121161.780 8
  24046270.717    24046273.542    14936756.944 9  14356443.854 8
  20756640.628    20756641.535   -15248146.660 9  -9033305.582 9
  20895995.569    20895996.330    -2613658.896 9   1215376.845 8
 86  6 20  0 22 41.0800000  0  4G 6G 8G 9G11
  20617650.568    20617651.816    -3557905.102 9    125186.577 7
  24050499.832    24050502.904    14958973.726 8  14373755.624 8
  20754413.600    20754415.829   -15259842.782 9  -9042419.430 9
  20897565.327    20897564.525    -2605410.240 9   1221804.360 7
 86  6 20  0 22 47.0800000  0  4G 6G 8G 9G11
  20618636.316    20618638.653    -3552719.263 9    129227.485 8
  24054726.721    24054730.313    14981192.858 9  14391069.220 8
  20752193.380    20752193.566   -15271524.088 9  -9051521.744 8
  20899139.330    20899139.458    -2597143.382 9   1228246.066 7
 86  6 20  0 22 53.0800000  0  4G 6G 8G 9G11
  20619627.560    20619629.281    -3547512.774 9    133284.480 8
  24058955.317    24058958.381    15003414.307 9  14408384.645 9
  20749973.257    20749973.421   -15283190.560 9  -9060612.494 9
  20900715.249    20900715.506    -2588858.335 9   1234701.959 8
 86  6 20  0 22 59.0800000  0  4G 6G 8G 9G11
  20620622.552    20620624.154    -3542285.630 9    137357.581 8
  24063184.901    24063188.451    15025638.069 9  14425701.858 8
  20747755.904    20747756.026   -15294842.206 9  -9069691.699 8
  20902293.837    20902296.182    -2580555.123 9   1241171.987 8
 86  6 20  0 23  5.0800000  0  4G 6G 8G 9G11
  20621621.111    20621622.754    -3537037.832 9    141446.763 9
  24067412.859    24067418.719    15047864.109 9  14443020.843 8
  20745540.810    20745541.796   -15306479.007 9  -9078759.330 8
  20903877.276    20903880.094    -2572233.750 8   1247656.174 8
 86  6 20  0 23 11.0800000  0  4G 6G 8G 9G11
  20622624.504    20622623.630    -3531769.377 9    145552.048 7
  24071643.773    24071649.266    15070092.409 9  14460341.579 8
  20743329.467    20743329.531   -15318100.890 9  -9087815.342 8
  20905464.775    20905467.678    -2563894.282 8   1254154.461 8
 86  6 20  0 23 17.0800000  0  4G 6G 8G 9G11
  20623630.098    20623630.673    -3526480.183 9    149673.502 8
  24075874.939    24075878.005    15092322.950 9  14477664.100 8
  20741121.784    20741120.297   -15329707.865 9  -9096859.732 8
  20907056.589    20907057.613    -2555536.692 9   1260666.873 7
 86  6 20  0 23 23.0800000  0  4G 6G 8G 9G11
  20624640.481    20624641.804    -3521170.273 9    153811.096 8
  24080105.387    24080108.708    15114555.700 9  14494988.312 8
  20738915.084    20738914.529   -15341299.835 9  -9105892.451 9
  20908648.533    20908651.599    -2547160.924 9   1267193.426 7
 86  6 20  0 23 29.0800000  0  4G 6G 8G 9G11
  20625656.296    20625654.801    -3515839.681 9    157964.798 8
  24084336.463    24084339.246    15136790.653 9  14512314.270 7
  20736711.065    20736711.402   -15352876.885 9  -9114913.528 8
  20910246.364    20910250.119    -2538767.037 9   1273734.128 8
 86  6 20  0 23 35.0800000  0  4G 6G 8G 9G11
  20626674.806    20626671.888    -3510488.453 9    162134.597 8
  24088568.501    24088570.357    15159027.780 9  14529641.905 7
  20734510.709    20734511.616   -15364438.917 9  -9123922.905 8
  20911847.162    20911850.785    -2530355.175 9   1280288.824 8
 86  6 20  0 23 41.0800000  0  4G 6G 8G 9G11
  20627695.286    20627695.787    -3505116.469 9    166320.553 8
  24092799.995    24092804.329    15181267.085 9  14546971.230 7
  20732312.304    20732314.258   -15375986.034 9  -9132920.652 8
  20913451.368    20913454.794    -2521925.249 9   1286857.592 9
 86  6 20  0 23 47.0800000  0  4G 6G 8G 9G11
  20628722.687    20628721.675    -3499723.792 9    170522.644 8
  24097033.741    24097035.834    15203508.509 9  14564302.207 8
  20730118.844    20730119.248   -15387518.017 9  -9141906.610 8
  20915058.938    20915062.185    -2513477.271 9   1293440.443 9
 86  6 20  0 23 53.0800000  0  4G 6G 8G 9G11
  20629753.017    20629752.229    -3494310.370 9    174740.890 8
  24101266.343    24101269.046    15225752.065 9  14581634.834 8
  20727926.312    20727927.644   -15399034.988 9  -9150880.877 9
  20916669.790    20916672.476    -2505011.277 8   1300037.326 8
 86  6 20  0 23 59.0800000  0  4G 6G 8G 9G11
  20630785.831    20630786.334    -3488876.257 9    178975.269 8
  24105498.868    24105501.785    15247997.713 9  14598969.118 8
  20725737.399    20725739.154   -15410536.856 9  -9159843.365 9
  20918282.990    20918286.531    -2496527.286 9   1306648.232 8
 86  6 20  0 24  5.0800000  0  4G 6G 8G 9G11
  20631824.622    20631823.780    -3483421.392 9    183225.802 8
  24109733.110    24109734.571    15270245.392 9  14616304.977 8
  20723552.070    20723552.906   -15422023.635 8  -9168794.087 9
  20919902.686    20919904.856    -2488025.263 9   1313273.177 8
 86  6 20  0 24 11.0800000  0  4G 6G 8G 9G11
  20632865.862    20632867.437    -3477945.793 9    187492.502 8
  24113967.162    24113969.040    15292495.143 9  14633642.435 8
  20721369.630    20721370.855   -15433495.353 9  -9177733.093 8
  20921523.641    20921525.106    -2479505.278 8   1319912.124 8
 86  6 20  0 24 17.0800000  0  4G 6G 8G 9G11
  20633910.925    20633912.239    -3472449.496 9    191775.323 7
  24118200.765    24118204.602    15314746.921 9  14650981.482 8
  20719188.568    20719190.906   -15444951.893 9  -9186660.262 8
  20923147.965    20923150.181    -2470967.336 8   1326565.077 8
 86  6 20  0 24 23.0800000  0  4G 6G 8G 9G11
  20634961.602    20634962.966    -3466932.453 9    196074.323 9
  24122435.807    24122438.917    15337000.678 9  14668322.068 8
  20717010.626    20717013.708   -15456393.252 9  -9195575.598 8
  20924775.827    20924778.812    -2462411.491 9   1333231.965 8
 86  6 20  0 24 29.0800000  0  4G 6G 8G 9G11
  20636015.755    20636017.167    -3461394.620 8    200389.507 8
  24126671.162    24126672.852    15359256.418 9  14685664.208 7
  20714836.913    20714838.566   -15467819.432 9  -9204479.131 8
  20926406.483    20926410.812    -2453837.722 9   1339912.819 8
 86  6 20  0 24 35.0800000  0  4G 6G 8G 9G11
  20637073.903    20637074.133    -3455836.134 9    204720.795 8
  24130907.848    24130909.476    15381514.050 9  14703007.824 8
  20712665.234    20712666.755   -15479230.440 8  -9213370.827 8
  20928041.919    20928045.182    -2445246.093 8   1346607.594 8
 86  6 20  0 24 41.0800000  0  4G 6G 8G 9G11
  20638135.261    20638136.485    -3450256.893 9    209068.248 7
  24135142.224    24135144.730    15403773.637 9  14720352.955 8
  20710496.934    20710497.568   -15490626.225 9  -9222250.646 8
  20929680.912    20929682.835    -2436636.630 9   1353316.266 8
 86  6 20  0 24 47.0800000  0  4G 6G 8G 9G11
  20639201.296    20639202.470    -3444656.882 9    213431.888 9
  24139378.926    24139381.738    15426035.139 9  14737699.566 9
  20708332.208    20708331.700   -15502006.680 9  -9231118.542 8
  20931324.286    20931325.225    -2428009.297 9   1360038.863 8
 86  6 20  0 24 53.0800000  0  4G 6G 8G 9G11
  20640270.358    20640271.948    -3439036.137 9    217811.681 8
  24143614.598    24143618.493    15448298.544 9  14755047.660 8
  20706168.631    20706170.396   -15513371.971 8  -9239974.600 8
  20932968.307    20932970.159    -2419364.118 9   1366775.360 8
 86  6 20  0 24 59.0800000  0  4G 6G 8G 9G11
  20641343.095    20641344.851    -3433394.590 9    222207.689 8
  24147851.574    24147854.952    15470563.842 9  14772397.233 9
  20704008.285    20704009.088   -15524721.884 9  -9248818.682 8
  20934617.156    20934618.157    -2410701.147 9   1373525.723 8
 86  6 20  0 25  5.0800000  0  4G 6G 8G 9G11
  20642421.207    20642421.457    -3427732.263 9    226619.901 8
  24152089.888    24152091.825    15492830.955 9  14789748.227 9
  20701852.145    20701852.974   -15536056.451 9  -9257650.795 8
  20936268.673    20936270.059    -2402020.346 9   1380289.983 7
 86  6 20  0 25 11.0800000  0  4G 6G 8G 9G11
  20643502.615    20643503.679    -3422049.141 9    231048.295 8
  24156327.012    24156330.029    15515099.906 9  14807100.656 9
  20699698.582    20699698.178   -15547375.766 9  -9266471.047 8
  20937923.821    20937924.268    -2393321.765 9   1387068.100 8
 86  6 20  0 25 17.0800000  0  4G 6G 8G 9G11
  20644588.494    20644588.274    -3416345.266 9    235492.878 8
  24160566.102    24160568.161    15537370.648 9  14824454.479 8
  20697547.282    20697546.619   -15558679.652 9  -9275279.281 7
  20939581.425    20939582.994    -2384605.386 9   1393860.090 7
 86  6 20  0 25 23.0800000  0  4G 6G 8G 9G11
  20645677.388    20645677.815    -3410620.582 9    239953.673 8
  24164803.753    24164805.650    15559643.205 9  14841809.714 9
  20695400.473    20695400.119   -15569968.225 9  -9284075.577 8
  20941243.321    20941245.893    -2375871.270 9   1400665.893 7
 86  6 20  0 25 29.0800000  0  4G 6G 8G 9G11
  20646770.795    20646770.772    -3404875.050 9    244430.705 8
  24169042.069    24169044.891    15581917.556 9  14859166.334 9
  20693255.552    20693253.931   -15581241.319 9  -9292859.797 8
  20942908.504    20942911.767    -2367119.431 8   1407485.501 8
 86  6 20  0 25 35.0800000  0  4G 6G 8G 9G11
  20647868.389    20647867.891    -3399108.753 8    248923.921 8
  24173281.070    24173285.143    15604193.641 9  14876524.306 9
  20691113.126    20691110.833   -15592498.988 9  -9301632.012 8
  20944578.043    20944580.992    -2358349.878 8   1414318.931 8
 86  6 20  0 25 41.0800000  0  4G 6G 8G 9G11
  20648969.259    20648969.468    -3393321.632 9    253433.360 8
  24177520.213    24177524.070    15626471.481 9  14893883.656 9
  20688971.612    20688973.888   -15603741.163 9  -9310392.147 9
  20946250.930    20946252.717    -2349562.627 9   1421166.133 8
 86  6 20  0 25 47.0800000  0  4G 6G 8G 9G11
  20650074.981    20650074.754    -3387513.717 8    257959.004 8
  24181760.771    24181762.319    15648751.006 9  14911244.322 8
  20686835.905    20686836.854   -15614967.902 9  -9319140.248 9
  20947926.375    20947927.780    -2340757.709 9   1428027.108 7
 86  6 20  0 25 53.0800000  0  4G 6G 8G 9G11
  20651182.100    20651184.305    -3381684.997 9    262500.859 8
  24186000.600    24186002.553    15671032.210 9  14928606.295 9
  20684703.094    20684703.856   -15626179.200 9  -9327876.315 8
  20949604.339    20949608.340    -2331935.160 9   1434901.818 8
 86  6 20  0 25 59.0800000  0  4G 6G 8G 9G11
  20652297.072    20652297.792    -3375835.482 9    267058.918 8
  24190240.055    24190243.845    15693315.034 9  14945969.528 9
  20682572.481    20682573.359   -15637374.940 9  -9336600.263 8
  20951288.588    20951290.043    -2323095.048 9   1441790.224 8
 86  6 20  0 26  5.0800000  0  4G 6G 8G 9G11
  20653413.516    20653414.453    -3369965.156 8    271633.185 9
  24194480.019    24194483.649    15715599.532 9  14963334.062 9
  20680445.672    20680445.813   -15648555.128 9  -9345312.102 7
  20952973.029    20952975.865    -2314237.348 9   1448692.331 9
 86  6 20  0 26 11.0800000  0  4G 6G 8G 9G11
  20654534.337    20654536.182    -3364073.982 9    276223.704 9
  24198722.814    24198724.315    15737885.636 9  14980699.846 9
  20678320.902    20678321.361   -15659719.805 9  -9354011.840 9
  20954662.133    20954665.272    -2305362.059 9   1455608.139 8
 86  6 20  0 26 17.0800000  0  4G 6G 8G 9G11
  20655659.520    20655661.901    -3358162.039 8    280830.410 7
  24202962.922    24202965.248    15760173.319 9  14998066.870 9
  20676198.817    20676200.274   -15670868.841 9  -9362699.407 8
  20956354.977    20956356.235    -2296469.209 9   1462537.631 8
 86  6 20  0 26 23.0800000  0  4G 6G 8G 9G11
  20656788.504    20656790.650    -3352229.250 9    285453.354 8
  24207205.659    24207207.536    15782462.579 9  15015435.124 9
  20674080.200    20674081.284   -15682002.403 9  -9371374.897 9
  20958048.678    20958052.070    -2287558.796 9   1469480.807 8
 86  6 20  0 26 29.0800000  0  4G 6G 8G 9G11
  20657922.318    20657924.049    -3346275.604 9    290092.563 8
  24211447.320    24211449.390    15804753.360 9  15032804.552 9
  20671965.330    20671965.297   -15693120.250 9  -9380038.165 8
  20959749.282    20959750.930    -2278630.842 8   1476437.654 8
 86  6 20  0 26 35.0800000  0  4G 6G 8G 9G11
  20659058.725    20659060.808    -3340301.141 9    294747.979 8
  24215688.781    24215690.832    15827045.715 9  15050175.217 9
  20669852.861    20669852.816   -15704222.515 9  -9388689.270 8
  20961451.178    20961454.017    -2269685.408 8   1483408.132 9
 86  6 20  0 26 41.0800000  0  4G 6G 8G 9G11
  20660199.225    20660201.039    -3334305.863 9    299419.618 9
  24219931.108    24219932.102    15849339.537 9  15067547.028 8
  20667743.888    20667743.799   -15715309.068 8  -9397328.144 9
  20963155.984    20963157.865    -2260722.486 9   1490392.213 9
 86  6 20  0 26 47.0800000  0  4G 6G 8G 9G11
  20661344.046    20661346.372    -3328289.733 9    304107.512 8
  24224173.956    24224176.326    15871634.889 9  15084920.027 9
  20665636.574    20665635.631   -15726379.971 9  -9405954.814 9
  20964865.161    20964868.674    -2251742.072 8   1497389.946 7
 86  6 20  0 26 53.0800000  0  4G 6G 8G 9G11
  20662493.550    20662494.648    -3322252.741 9    308811.656 8
  24228417.515    24228418.531    15893931.705 9  15102294.152 9
  20663532.750    20663533.656   -15737435.064 9  -9414569.163 8
  20966577.409    20966580.071    -2242744.094 9   1504401.359 8
 86  6 20  0 26 59.0800000  0  4G 6G 8G 9G11
  20663646.808    20663647.625    -3316194.825 9    313532.105 8
  24232661.115    24232662.593    15916230.000 9  15119669.438 9
  20661431.385    20661432.608   -15748474.518 9  -9423171.340 9
  20968292.622    20968295.367    -2233728.679 8   1511426.346 9
 86  6 20  0 27  5.0800000  0  4G 6G 8G 9G11
  20664802.864    20664804.042    -3310116.108 9    318268.775 9
  24236905.135    24236907.469    15938529.660 9  15137045.784 9
  20659334.172    20659334.665   -15759498.136 8  -9431761.161 8
  20970012.532    20970014.740    -2224695.862 9   1518464.898 8
 86  6 20  0 27 11.0800000  0  4G 6G 8G 9G11
  20665963.671    20665964.578    -3304016.521 9    323021.691 8
  24241147.254    24241149.925    15960830.714 9  15154423.209 9
  20657239.417    20657240.049   -15770505.994 9  -9440338.714 9
  20971734.921    20971736.503    -2215645.648 8   1525517.006 9
 86  6 20  0 27 17.0800000  0  4G 6G 8G 9G11
  20667127.455    20667129.474    -3297896.089 9    327790.850 8
  24245391.662    24245393.361    15983133.146 9  15171801.744 9
  20655147.449    20655148.057   -15781498.079 9  -9448903.967 9
  20973461.373    20973462.210    -2206578.060 9   1532582.667 8
 86  6 20  0 27 23.0800000  0  4G 6G 8G 9G11
  20668297.381    20668297.396    -3291754.759 9    332576.296 8
  24249635.169    24249637.388    16005436.968 9  15189181.340 8
  20653058.987    20653059.381   -15792474.253 9  -9457456.835 9
  20975189.636    20975190.260    -2197493.124 9   1539661.843 9
 86  6 20  0 27 29.0800000  0  4G 6G 8G 9G11
  20669469.481    20669470.195    -3285592.574 9    337377.988 8
  24253878.597    24253882.584    16027742.153 8  15206561.996 9
  20650971.250    20650973.744   -15803434.667 8  -9465997.410 9
  20976922.670    20976923.473    -2188390.797 9   1546754.552 8
 86  6 20  0 27 35.0800000  0  4G 6G 8G 9G11
  20670644.918    20670647.790    -3279409.542 9    342195.941 8
  24258124.535    24258127.311    16050048.617 9  15223943.636 9
  20648888.197    20648891.829   -15814379.204 8  -9474525.625 9
  20978658.833    20978657.421    -2179271.179 9   1553860.753 9
 86  6 20  0 27 41.0800000  0  4G 6G 8G 9G11
  20671827.658    20671827.682    -3273205.668 9    347030.130 8
  24262368.260    24262372.794    16072356.387 8  15241326.284 9
  20646808.506    20646811.284   -15825307.980 8  -9483041.540 9
  20980396.303    20980397.815    -2170134.301 9   1560980.393 8
 86  6 20  0 27 47.0800000  0  4G 6G 8G 9G11
  20673011.211    20673011.671    -3266980.843 9    351880.628 8
  24266615.425    24266617.377    16094665.424 9  15258709.940 9
  20644732.784    20644734.163   -15836220.673 9  -9491544.937 9
  20982138.734    20982140.072    -2160980.096 8   1568113.534 8
 86  6 20  0 27 53.0800000  0  4G 6G 8G 9G11
  20674199.939    20674201.234    -3260735.123 9    356747.414 8
  24270861.249    24270863.573    16116975.724 8  15276094.591 9
  20642659.125    20642661.845   -15847117.574 9  -9500036.023 9
  20983883.855    20983883.812    -2151808.641 9   1575260.118 9
 86  6 20  0 27 59.0800000  0  4G 6G 8G 9G11
  20675392.157    20675393.634    -3254468.522 9    361630.470 7
  24275107.347    24275108.280    16139287.237 9  15293480.199 9
  20640588.124    20640590.905   -15857998.397 9  -9508514.589 9
  20985633.078    20985632.265    -2142619.916 9   1582420.172 8
 86  6 20  0 28  5.0800000  0  4G 6G 8G 9G11
  20676588.577    20676590.645    -3248181.004 9    366529.824 8
  24279352.549    24279354.801    16161600.040 8  15310866.801 9
  20638522.363    20638524.012   -15868863.292 9  -9516980.727 9
  20987383.473    20987384.164    -2133413.927 9   1589593.672 8
 86  6 20  0 28 11.0800000  0  4G 6G 8G 9G11
  20677790.057    20677790.024    -3241872.558 9    371445.510 8
  24283598.212    24283600.525    16183914.054 8  15328254.334 8
  20636458.889    20636459.573   -15879712.159 8  -9525434.396 9
  20989137.722    20989139.811    -2124190.724 9   1596780.591 8
 86  6 20  0 28 17.0800000  0  4G 6G 8G 9G11
  20678993.638    20678994.157    -3235543.215 8    376377.458 8
  24287845.787    24287847.290    16206229.296 7  15345642.817 8
  20634396.679    20634398.193   -15890544.986 9  -9533875.549 8
  20990896.409    20990897.306    -2114950.299 9   1603980.907 8
 86  6 20  0 28 23.0800000  0  4G 6G 8G 9G11
  20680202.696    20680202.437    -3229192.926 9    381325.734 8
  24292091.924    24292093.883    16228545.625 9  15363032.148 8
  20632337.898    20632338.935   -15901361.769 9  -9542304.208 8
  20992658.034    20992661.042    -2105692.736 8   1611194.607 8
 86  6 20  0 28 29.0800000  0  4G 6G 8G 9G11
  20681414.948    20681414.309    -3222821.748 9    386290.290 8
  24296339.870    24296340.453    16250863.111 8  15380422.398 9
  20630281.957    20630283.581   -15912162.459 9  -9550720.327 9
  20994422.080    20994424.641    -2096417.990 9   1618421.677 8
 86  6 20  0 28 35.0800000  0  4G 6G 8G 9G11
  20682630.810    20682631.107    -3216429.600 9    391271.181 8
  24300586.597    24300587.346    16273181.705 8  15397813.520 7
  20628229.986    20628231.769   -15922947.113 8  -9559123.947 9
  20996190.757    20996193.114    -2087126.094 9   1625662.122 8
 86  6 20  0 28 41.0800000  0  4G 6G 8G 9G11
  20683851.374    20683851.598    -3210016.574 8    396268.340 8
  24304831.614    24304835.729    16295501.423 7  15415205.493 8
  20626180.827    20626181.849   -15933715.581 8  -9567514.952 9
  20997961.384    20997964.970    -2077817.077 9   1632915.898 7
 86  6 20  0 28 47.0800000  0  4G 6G 8G 9G11
  20685074.908    20685077.795    -3203582.652 9    401281.788 9
  24309077.811    24309083.005    16317822.206 6  15432598.280 8
  20624134.183    20624134.974   -15944467.958 9  -9575893.436 8
  20999737.087    20999738.804    -2068490.987 8   1640182.979 8
 86  6 20  0 28 53.0800000  0  4G 6G 8G 9G11
  20686304.644    20686305.060    -3197127.783 9    406311.561 8
  24313325.247    24313331.278    16340144.034 5  15449991.900 7
  20622091.459    20622092.408   -15955204.219 9  -9584259.342 9
  21001515.291    21001517.361    -2059147.798 8   1647463.391 8
 86  6 20  0 28 59.0800000  0  4G 6G 8G 9G11
  20687536.128    20687537.966    -3190652.028 8    411357.582 7
  24317575.786    24317578.204    16362466.832 6  15467386.269 8
  20620051.479    20620051.287   -15965924.331 9  -9592612.683 8
  21003296.156    21003298.770    -2049787.597 9   1654757.061 8
 86  6 20  0 29  5.0800000  0  4G 6G 8G 9G11
  20688772.842    20688774.806    -3184155.358 9    416419.923 9
  24321822.076    24321827.335    16384790.636 6  15484781.447 8
  20618015.078    20618015.432   -15976628.231 9  -9600953.387 8
  21005080.370    21005082.521    -2040410.403 9   1662063.958 8
 86  6 20  0 29 11.0800000  0  4G 6G 8G 9G11
  20690012.185    20690013.491    -3177637.713 9    421498.592 9
  24326071.983    24326074.983    16407115.491 5  15502177.412 7
  20615980.858    20615981.794   -15987315.844 9  -9609281.384 8
  21006868.093    21006870.818    -2031016.167 9   1669384.138 7
 86  6 20  0 29 17.0800000  0  4G 6G 8G 9G11
  20691257.364    20691258.585    -3171099.129 8    426593.595 8
  24330314.899    24330323.774    16429441.272 3  15519574.124 8
  20613949.150    20613952.217   -15997987.281 9  -9617596.791 8
  21008659.535    21008660.105    -2021604.938 9   1676717.563 8
 86  6 20  0 29 23.0800000  0  4G 6G 8G 9G11
  20692503.986    20692507.102    -3164539.568 8    431704.919 8
  24334568.750    24334571.403    16451768.091 3  15536971.586 7
  20611921.020    20611924.135   -16008642.416 9  -9625899.493 9
  21010453.643    21010454.678    -2012176.721 9   1684064.217 8
